<?xml version="1.0" encoding="UTF-8" standalone="no" ?>
<gpx xmlns="http://www.topografix.com/GPX/1/1" xmlns:xsi="http://www.w3.org/2001/XMLSchema-instance" xsi:schemaLocation="http://www.topografix.com/GPX/1/1 http://www.topografix.com/GPX/1/1/gpx.xsd" version="1.1" creator="VisuGPX - https://www.visugpx.com">
  <metadata>
    <name>104Km-Tour des Canaux de Lille</name>
  </metadata>
  <trk>
    <name><![CDATA[104Km-Tour des Canaux de Lille]]></name>
    <extensions>
      <line xmlns="http://www.topografix.com/GPX/gpx_style/0/2">
        <color>0000FF</color>
        <width>4</width>
      </line>
    </extensions>
    <trkseg>
      <trkpt lat="50.64974" lon="3.03656">
        <ele>20</ele>
        <time>2022-07-14T05:59:15Z</time>
      </trkpt>
      <trkpt lat="50.64989" lon="3.0369">
        <ele>20.3</ele>
        <time>2022-07-14T05:59:25Z</time>
      </trkpt>
      <trkpt lat="50.65009" lon="3.03731">
        <ele>20</ele>
        <time>2022-07-14T06:00:21Z</time>
      </trkpt>
      <trkpt lat="50.65017" lon="3.0375">
        <ele>20</ele>
        <time>2022-07-14T06:00:25Z</time>
      </trkpt>
      <trkpt lat="50.65041" lon="3.03804">
        <ele>20</ele>
        <time>2022-07-14T06:00:35Z</time>
      </trkpt>
      <trkpt lat="50.65058" lon="3.0385">
        <ele>22.113764</ele>
        <time>2022-07-14T06:00:43Z</time>
      </trkpt>
      <trkpt lat="50.65077" lon="3.03894">
        <ele>22.073957</ele>
        <time>2022-07-14T06:00:51Z</time>
      </trkpt>
      <trkpt lat="50.65101" lon="3.03951">
        <ele>22.03294</ele>
        <time>2022-07-14T06:01:01Z</time>
      </trkpt>
      <trkpt lat="50.65112" lon="3.03974">
        <ele>22.006607</ele>
        <time>2022-07-14T06:01:05Z</time>
      </trkpt>
      <trkpt lat="50.65131" lon="3.04023">
        <ele>21.917034</ele>
        <time>2022-07-14T06:01:13Z</time>
      </trkpt>
      <trkpt lat="50.65152" lon="3.04072">
        <ele>21.745274</ele>
        <time>2022-07-14T06:01:23Z</time>
      </trkpt>
      <trkpt lat="50.65184" lon="3.04079">
        <ele>21.536852</ele>
        <time>2022-07-14T06:01:31Z</time>
      </trkpt>
      <trkpt lat="50.65221" lon="3.04043">
        <ele>21.214163</ele>
        <time>2022-07-14T06:01:41Z</time>
      </trkpt>
      <trkpt lat="50.65234" lon="3.04022">
        <ele>21.017986</ele>
        <time>2022-07-14T06:01:45Z</time>
      </trkpt>
      <trkpt lat="50.65257" lon="3.03978">
        <ele>20.708353</ele>
        <time>2022-07-14T06:01:53Z</time>
      </trkpt>
      <trkpt lat="50.65279" lon="3.03916">
        <ele>20.580723</ele>
        <time>2022-07-14T06:02:03Z</time>
      </trkpt>
      <trkpt lat="50.65301" lon="3.03876">
        <ele>20.72979</ele>
        <time>2022-07-14T06:02:11Z</time>
      </trkpt>
      <trkpt lat="50.65331" lon="3.03827">
        <ele>21.167461</ele>
        <time>2022-07-14T06:02:21Z</time>
      </trkpt>
      <trkpt lat="50.65344" lon="3.03797">
        <ele>21.388475</ele>
        <time>2022-07-14T06:02:26Z</time>
      </trkpt>
      <trkpt lat="50.65367" lon="3.0375">
        <ele>21.789631</ele>
        <time>2022-07-14T06:02:34Z</time>
      </trkpt>
      <trkpt lat="50.65403" lon="3.03698">
        <ele>22.314543</ele>
        <time>2022-07-14T06:02:44Z</time>
      </trkpt>
      <trkpt lat="50.65431" lon="3.03658">
        <ele>22.703976</ele>
        <time>2022-07-14T06:02:52Z</time>
      </trkpt>
      <trkpt lat="50.6546" lon="3.03627">
        <ele>22.98311</ele>
        <time>2022-07-14T06:03:00Z</time>
      </trkpt>
      <trkpt lat="50.65486" lon="3.03627">
        <ele>23.209732</ele>
        <time>2022-07-14T06:03:06Z</time>
      </trkpt>
      <trkpt lat="50.65508" lon="3.03669">
        <ele>23.401432</ele>
        <time>2022-07-14T06:03:14Z</time>
      </trkpt>
      <trkpt lat="50.65574" lon="3.03594">
        <ele>23.580776</ele>
        <time>2022-07-14T06:03:36Z</time>
      </trkpt>
      <trkpt lat="50.65599" lon="3.0355">
        <ele>23.605595</ele>
        <time>2022-07-14T06:03:44Z</time>
      </trkpt>
      <trkpt lat="50.65617" lon="3.03497">
        <ele>23.469612</ele>
        <time>2022-07-14T06:03:52Z</time>
      </trkpt>
      <trkpt lat="50.65629" lon="3.03458">
        <ele>23.303085</ele>
        <time>2022-07-14T06:03:58Z</time>
      </trkpt>
      <trkpt lat="50.65641" lon="3.03412">
        <ele>22.992819</ele>
        <time>2022-07-14T06:04:06Z</time>
      </trkpt>
      <trkpt lat="50.6565" lon="3.03365">
        <ele>22.802216</ele>
        <time>2022-07-14T06:04:15Z</time>
      </trkpt>
      <trkpt lat="50.65658" lon="3.03302">
        <ele>22.598764</ele>
        <time>2022-07-14T06:04:27Z</time>
      </trkpt>
      <trkpt lat="50.65663" lon="3.03258">
        <ele>22.617298</ele>
        <time>2022-07-14T06:04:35Z</time>
      </trkpt>
      <trkpt lat="50.65665" lon="3.0323">
        <ele>22.714527</ele>
        <time>2022-07-14T06:04:40Z</time>
      </trkpt>
      <trkpt lat="50.65677" lon="3.03196">
        <ele>23.49197</ele>
        <time>2022-07-14T06:05:00Z</time>
      </trkpt>
      <trkpt lat="50.65697" lon="3.03183">
        <ele>23.764309</ele>
        <time>2022-07-14T06:05:08Z</time>
      </trkpt>
      <trkpt lat="50.65728" lon="3.03146">
        <ele>24.006647</ele>
        <time>2022-07-14T06:05:18Z</time>
      </trkpt>
      <trkpt lat="50.65764" lon="3.03148">
        <ele>24.098804</ele>
        <time>2022-07-14T06:05:26Z</time>
      </trkpt>
      <trkpt lat="50.65783" lon="3.0315">
        <ele>24.111279</ele>
        <time>2022-07-14T06:05:30Z</time>
      </trkpt>
      <trkpt lat="50.65837" lon="3.03169">
        <ele>24.093445</ele>
        <time>2022-07-14T06:05:40Z</time>
      </trkpt>
      <trkpt lat="50.65888" lon="3.03207">
        <ele>24.076321</ele>
        <time>2022-07-14T06:05:48Z</time>
      </trkpt>
      <trkpt lat="50.65921" lon="3.03249">
        <ele>24.020855</ele>
        <time>2022-07-14T06:05:58Z</time>
      </trkpt>
      <trkpt lat="50.65944" lon="3.03278">
        <ele>23.886646</ele>
        <time>2022-07-14T06:06:06Z</time>
      </trkpt>
      <trkpt lat="50.65959" lon="3.03294">
        <ele>23.791773</ele>
        <time>2022-07-14T06:06:10Z</time>
      </trkpt>
      <trkpt lat="50.65999" lon="3.03342">
        <ele>23.560692</ele>
        <time>2022-07-14T06:06:20Z</time>
      </trkpt>
      <trkpt lat="50.66032" lon="3.0338">
        <ele>23.279568</ele>
        <time>2022-07-14T06:06:28Z</time>
      </trkpt>
      <trkpt lat="50.66071" lon="3.03428">
        <ele>22.885805</ele>
        <time>2022-07-14T06:06:38Z</time>
      </trkpt>
      <trkpt lat="50.66103" lon="3.03468">
        <ele>22.581669</ele>
        <time>2022-07-14T06:06:46Z</time>
      </trkpt>
      <trkpt lat="50.66118" lon="3.03487">
        <ele>22.497084</ele>
        <time>2022-07-14T06:06:50Z</time>
      </trkpt>
      <trkpt lat="50.66152" lon="3.03526">
        <ele>22.405214</ele>
        <time>2022-07-14T06:07:00Z</time>
      </trkpt>
      <trkpt lat="50.66174" lon="3.03559">
        <ele>22.390705</ele>
        <time>2022-07-14T06:07:08Z</time>
      </trkpt>
      <trkpt lat="50.66201" lon="3.03589">
        <ele>22.381395</ele>
        <time>2022-07-14T06:07:16Z</time>
      </trkpt>
      <trkpt lat="50.66238" lon="3.03634">
        <ele>22.379381</ele>
        <time>2022-07-14T06:07:26Z</time>
      </trkpt>
      <trkpt lat="50.66253" lon="3.03653">
        <ele>22.377754</ele>
        <time>2022-07-14T06:07:30Z</time>
      </trkpt>
      <trkpt lat="50.66283" lon="3.03689">
        <ele>22.342319</ele>
        <time>2022-07-14T06:07:38Z</time>
      </trkpt>
      <trkpt lat="50.6632" lon="3.03735">
        <ele>22.199169</ele>
        <time>2022-07-14T06:07:48Z</time>
      </trkpt>
      <trkpt lat="50.66348" lon="3.03779">
        <ele>22.07185</ele>
        <time>2022-07-14T06:07:56Z</time>
      </trkpt>
      <trkpt lat="50.66379" lon="3.03842">
        <ele>22.008511</ele>
        <time>2022-07-14T06:08:06Z</time>
      </trkpt>
      <trkpt lat="50.66391" lon="3.03869">
        <ele>22.002888</ele>
        <time>2022-07-14T06:08:10Z</time>
      </trkpt>
      <trkpt lat="50.6641" lon="3.03924">
        <ele>22.000397</ele>
        <time>2022-07-14T06:08:18Z</time>
      </trkpt>
      <trkpt lat="50.6643" lon="3.03987">
        <ele>22.000046</ele>
        <time>2022-07-14T06:08:28Z</time>
      </trkpt>
      <trkpt lat="50.66445" lon="3.04041">
        <ele>22.000006</ele>
        <time>2022-07-14T06:08:36Z</time>
      </trkpt>
      <trkpt lat="50.66467" lon="3.04111">
        <ele>22.000002</ele>
        <time>2022-07-14T06:08:46Z</time>
      </trkpt>
      <trkpt lat="50.66476" lon="3.04139">
        <ele>22.000002</ele>
        <time>2022-07-14T06:08:50Z</time>
      </trkpt>
      <trkpt lat="50.66492" lon="3.04195">
        <ele>21.999931</ele>
        <time>2022-07-14T06:08:58Z</time>
      </trkpt>
      <trkpt lat="50.66514" lon="3.04266">
        <ele>21.979187</ele>
        <time>2022-07-14T06:09:08Z</time>
      </trkpt>
      <trkpt lat="50.66531" lon="3.04323">
        <ele>21.922382</ele>
        <time>2022-07-14T06:09:16Z</time>
      </trkpt>
      <trkpt lat="50.66548" lon="3.0438">
        <ele>21.838047</ele>
        <time>2022-07-14T06:09:24Z</time>
      </trkpt>
      <trkpt lat="50.66559" lon="3.0442">
        <ele>21.74242</ele>
        <time>2022-07-14T06:09:30Z</time>
      </trkpt>
      <trkpt lat="50.66574" lon="3.0447">
        <ele>21.556332</ele>
        <time>2022-07-14T06:09:38Z</time>
      </trkpt>
      <trkpt lat="50.66589" lon="3.04524">
        <ele>21.359943</ele>
        <time>2022-07-14T06:09:48Z</time>
      </trkpt>
      <trkpt lat="50.66604" lon="3.04574">
        <ele>21.209515</ele>
        <time>2022-07-14T06:09:56Z</time>
      </trkpt>
      <trkpt lat="50.6662" lon="3.04626">
        <ele>21.110638</ele>
        <time>2022-07-14T06:10:04Z</time>
      </trkpt>
      <trkpt lat="50.6663" lon="3.04666">
        <ele>21.044981</ele>
        <time>2022-07-14T06:10:10Z</time>
      </trkpt>
      <trkpt lat="50.66639" lon="3.04723">
        <ele>21.021244</ele>
        <time>2022-07-14T06:10:18Z</time>
      </trkpt>
      <trkpt lat="50.66642" lon="3.04778">
        <ele>21.102528</ele>
        <time>2022-07-14T06:10:26Z</time>
      </trkpt>
      <trkpt lat="50.66636" lon="3.04853">
        <ele>21.317356</ele>
        <time>2022-07-14T06:10:36Z</time>
      </trkpt>
      <trkpt lat="50.66618" lon="3.04905">
        <ele>21.559517</ele>
        <time>2022-07-14T06:10:44Z</time>
      </trkpt>
      <trkpt lat="50.66605" lon="3.04927">
        <ele>21.69183</ele>
        <time>2022-07-14T06:10:48Z</time>
      </trkpt>
      <trkpt lat="50.66582" lon="3.04963">
        <ele>22.02907</ele>
        <time>2022-07-14T06:10:59Z</time>
      </trkpt>
      <trkpt lat="50.66588" lon="3.04985">
        <ele>22.397289</ele>
        <time>2022-07-14T06:11:07Z</time>
      </trkpt>
      <trkpt lat="50.66625" lon="3.0502">
        <ele>22.599819</ele>
        <time>2022-07-14T06:11:17Z</time>
      </trkpt>
      <trkpt lat="50.66654" lon="3.05059">
        <ele>22.666904</ele>
        <time>2022-07-14T06:11:25Z</time>
      </trkpt>
      <trkpt lat="50.6667" lon="3.05078">
        <ele>22.655682</ele>
        <time>2022-07-14T06:11:29Z</time>
      </trkpt>
      <trkpt lat="50.66713" lon="3.05119">
        <ele>22.530878</ele>
        <time>2022-07-14T06:11:39Z</time>
      </trkpt>
      <trkpt lat="50.66746" lon="3.05151">
        <ele>22.366571</ele>
        <time>2022-07-14T06:11:47Z</time>
      </trkpt>
      <trkpt lat="50.66785" lon="3.05195">
        <ele>22.199802</ele>
        <time>2022-07-14T06:11:57Z</time>
      </trkpt>
      <trkpt lat="50.66815" lon="3.05237">
        <ele>22.025555</ele>
        <time>2022-07-14T06:12:05Z</time>
      </trkpt>
      <trkpt lat="50.6683" lon="3.05257">
        <ele>21.929342</ele>
        <time>2022-07-14T06:12:09Z</time>
      </trkpt>
      <trkpt lat="50.66866" lon="3.05303">
        <ele>21.643988</ele>
        <time>2022-07-14T06:12:19Z</time>
      </trkpt>
      <trkpt lat="50.66905" lon="3.05303">
        <ele>21.387169</ele>
        <time>2022-07-14T06:12:27Z</time>
      </trkpt>
      <trkpt lat="50.66953" lon="3.0529">
        <ele>21.192814</ele>
        <time>2022-07-14T06:12:37Z</time>
      </trkpt>
      <trkpt lat="50.6699" lon="3.05266">
        <ele>21.042551</ele>
        <time>2022-07-14T06:12:45Z</time>
      </trkpt>
      <trkpt lat="50.67008" lon="3.05258">
        <ele>20.973713</ele>
        <time>2022-07-14T06:12:49Z</time>
      </trkpt>
      <trkpt lat="50.67045" lon="3.05303">
        <ele>20.870754</ele>
        <time>2022-07-14T06:12:59Z</time>
      </trkpt>
      <trkpt lat="50.67078" lon="3.05341">
        <ele>20.833202</ele>
        <time>2022-07-14T06:13:07Z</time>
      </trkpt>
      <trkpt lat="50.67107" lon="3.05386">
        <ele>20.7349</ele>
        <time>2022-07-14T06:13:15Z</time>
      </trkpt>
      <trkpt lat="50.67139" lon="3.05448">
        <ele>20.434515</ele>
        <time>2022-07-14T06:13:25Z</time>
      </trkpt>
      <trkpt lat="50.67152" lon="3.0547">
        <ele>20.268532</ele>
        <time>2022-07-14T06:13:29Z</time>
      </trkpt>
      <trkpt lat="50.67179" lon="3.05502">
        <ele>19.819347</ele>
        <time>2022-07-14T06:13:37Z</time>
      </trkpt>
      <trkpt lat="50.67207" lon="3.0555">
        <ele>19.345564</ele>
        <time>2022-07-14T06:13:47Z</time>
      </trkpt>
      <trkpt lat="50.67225" lon="3.05579">
        <ele>19.017336</ele>
        <time>2022-07-14T06:13:55Z</time>
      </trkpt>
      <trkpt lat="50.6726" lon="3.05577">
        <ele>18.770651</ele>
        <time>2022-07-14T06:14:05Z</time>
      </trkpt>
      <trkpt lat="50.67278" lon="3.05569">
        <ele>18.740982</ele>
        <time>2022-07-14T06:14:09Z</time>
      </trkpt>
      <trkpt lat="50.67312" lon="3.05544">
        <ele>18.708181</ele>
        <time>2022-07-14T06:14:17Z</time>
      </trkpt>
      <trkpt lat="50.67342" lon="3.05527">
        <ele>18.763832</ele>
        <time>2022-07-14T06:14:27Z</time>
      </trkpt>
      <trkpt lat="50.6736" lon="3.05559">
        <ele>18.848639</ele>
        <time>2022-07-14T06:14:35Z</time>
      </trkpt>
      <trkpt lat="50.67379" lon="3.05623">
        <ele>18.965145</ele>
        <time>2022-07-14T06:14:45Z</time>
      </trkpt>
      <trkpt lat="50.67388" lon="3.0565">
        <ele>18.987198</ele>
        <time>2022-07-14T06:14:49Z</time>
      </trkpt>
      <trkpt lat="50.67404" lon="3.05707">
        <ele>18.998377</ele>
        <time>2022-07-14T06:14:57Z</time>
      </trkpt>
      <trkpt lat="50.67427" lon="3.05775">
        <ele>18.999866</ele>
        <time>2022-07-14T06:15:07Z</time>
      </trkpt>
      <trkpt lat="50.67447" lon="3.05831">
        <ele>18.999969</ele>
        <time>2022-07-14T06:15:15Z</time>
      </trkpt>
      <trkpt lat="50.67464" lon="3.05887">
        <ele>18.999491</ele>
        <time>2022-07-14T06:15:23Z</time>
      </trkpt>
      <trkpt lat="50.67477" lon="3.05923">
        <ele>18.988354</ele>
        <time>2022-07-14T06:15:29Z</time>
      </trkpt>
      <trkpt lat="50.67496" lon="3.05954">
        <ele>18.928137</ele>
        <time>2022-07-14T06:15:37Z</time>
      </trkpt>
      <trkpt lat="50.67522" lon="3.05986">
        <ele>18.772943</ele>
        <time>2022-07-14T06:15:47Z</time>
      </trkpt>
      <trkpt lat="50.67549" lon="3.0597">
        <ele>18.602295</ele>
        <time>2022-07-14T06:15:55Z</time>
      </trkpt>
      <trkpt lat="50.67584" lon="3.05952">
        <ele>18.452831</ele>
        <time>2022-07-14T06:16:03Z</time>
      </trkpt>
      <trkpt lat="50.67612" lon="3.05938">
        <ele>18.327885</ele>
        <time>2022-07-14T06:16:09Z</time>
      </trkpt>
      <trkpt lat="50.6765" lon="3.05921">
        <ele>18.182329</ele>
        <time>2022-07-14T06:16:17Z</time>
      </trkpt>
      <trkpt lat="50.67685" lon="3.05927">
        <ele>18.072943</ele>
        <time>2022-07-14T06:16:25Z</time>
      </trkpt>
      <trkpt lat="50.67725" lon="3.05922">
        <ele>18.013626</ele>
        <time>2022-07-14T06:16:35Z</time>
      </trkpt>
      <trkpt lat="50.67764" lon="3.05909">
        <ele>18.00205</ele>
        <time>2022-07-14T06:16:43Z</time>
      </trkpt>
      <trkpt lat="50.67782" lon="3.05902">
        <ele>18.000828</ele>
        <time>2022-07-14T06:16:47Z</time>
      </trkpt>
      <trkpt lat="50.67831" lon="3.05884">
        <ele>18.000055</ele>
        <time>2022-07-14T06:16:57Z</time>
      </trkpt>
      <trkpt lat="50.67872" lon="3.0587">
        <ele>18.000004</ele>
        <time>2022-07-14T06:17:05Z</time>
      </trkpt>
      <trkpt lat="50.67919" lon="3.05851">
        <ele>18.000002</ele>
        <time>2022-07-14T06:17:15Z</time>
      </trkpt>
      <trkpt lat="50.67949" lon="3.05841">
        <ele>18.000002</ele>
        <time>2022-07-14T06:17:23Z</time>
      </trkpt>
      <trkpt lat="50.67962" lon="3.05858">
        <ele>18.000002</ele>
        <time>2022-07-14T06:17:27Z</time>
      </trkpt>
      <trkpt lat="50.68008" lon="3.05876">
        <ele>18.000002</ele>
        <time>2022-07-14T06:17:37Z</time>
      </trkpt>
      <trkpt lat="50.68043" lon="3.05881">
        <ele>18.000002</ele>
        <time>2022-07-14T06:17:45Z</time>
      </trkpt>
      <trkpt lat="50.68087" lon="3.0588">
        <ele>18.000002</ele>
        <time>2022-07-14T06:17:55Z</time>
      </trkpt>
      <trkpt lat="50.68117" lon="3.05898">
        <ele>18.000002</ele>
        <time>2022-07-14T06:18:03Z</time>
      </trkpt>
      <trkpt lat="50.68136" lon="3.05907">
        <ele>18.000002</ele>
        <time>2022-07-14T06:18:07Z</time>
      </trkpt>
      <trkpt lat="50.68184" lon="3.05902">
        <ele>18.000002</ele>
        <time>2022-07-14T06:18:17Z</time>
      </trkpt>
      <trkpt lat="50.68227" lon="3.05897">
        <ele>18.000002</ele>
        <time>2022-07-14T06:18:25Z</time>
      </trkpt>
      <trkpt lat="50.68279" lon="3.05884">
        <ele>18.000002</ele>
        <time>2022-07-14T06:18:35Z</time>
      </trkpt>
      <trkpt lat="50.68319" lon="3.05869">
        <ele>18.000002</ele>
        <time>2022-07-14T06:18:43Z</time>
      </trkpt>
      <trkpt lat="50.68339" lon="3.0586">
        <ele>18.000002</ele>
        <time>2022-07-14T06:18:47Z</time>
      </trkpt>
      <trkpt lat="50.6839" lon="3.05832">
        <ele>18.014317</ele>
        <time>2022-07-14T06:18:57Z</time>
      </trkpt>
      <trkpt lat="50.68427" lon="3.05806">
        <ele>18.10409</ele>
        <time>2022-07-14T06:19:05Z</time>
      </trkpt>
      <trkpt lat="50.68464" lon="3.05778">
        <ele>18.248966</ele>
        <time>2022-07-14T06:19:13Z</time>
      </trkpt>
      <trkpt lat="50.68509" lon="3.05738">
        <ele>18.55271</ele>
        <time>2022-07-14T06:19:23Z</time>
      </trkpt>
      <trkpt lat="50.68526" lon="3.05719">
        <ele>18.723419</ele>
        <time>2022-07-14T06:19:27Z</time>
      </trkpt>
      <trkpt lat="50.68561" lon="3.05678">
        <ele>19.188923</ele>
        <time>2022-07-14T06:19:35Z</time>
      </trkpt>
      <trkpt lat="50.68601" lon="3.05623">
        <ele>19.641186</ele>
        <time>2022-07-14T06:19:45Z</time>
      </trkpt>
      <trkpt lat="50.68631" lon="3.05579">
        <ele>19.873325</ele>
        <time>2022-07-14T06:19:53Z</time>
      </trkpt>
      <trkpt lat="50.68658" lon="3.05529">
        <ele>19.870556</ele>
        <time>2022-07-14T06:20:03Z</time>
      </trkpt>
      <trkpt lat="50.68668" lon="3.05506">
        <ele>19.784405</ele>
        <time>2022-07-14T06:20:07Z</time>
      </trkpt>
      <trkpt lat="50.6869" lon="3.05451">
        <ele>19.476021</ele>
        <time>2022-07-14T06:20:15Z</time>
      </trkpt>
      <trkpt lat="50.68727" lon="3.05407">
        <ele>18.885267</ele>
        <time>2022-07-14T06:20:25Z</time>
      </trkpt>
      <trkpt lat="50.6875" lon="3.05384">
        <ele>18.388315</ele>
        <time>2022-07-14T06:20:33Z</time>
      </trkpt>
      <trkpt lat="50.6877" lon="3.05351">
        <ele>17.862448</ele>
        <time>2022-07-14T06:20:43Z</time>
      </trkpt>
      <trkpt lat="50.68786" lon="3.05337">
        <ele>17.738239</ele>
        <time>2022-07-14T06:20:47Z</time>
      </trkpt>
      <trkpt lat="50.68816" lon="3.05306">
        <ele>17.588551</ele>
        <time>2022-07-14T06:20:55Z</time>
      </trkpt>
      <trkpt lat="50.68853" lon="3.05261">
        <ele>17.56802</ele>
        <time>2022-07-14T06:21:05Z</time>
      </trkpt>
      <trkpt lat="50.68885" lon="3.05227">
        <ele>17.683599</ele>
        <time>2022-07-14T06:21:13Z</time>
      </trkpt>
      <trkpt lat="50.68916" lon="3.0519">
        <ele>17.896048</ele>
        <time>2022-07-14T06:21:21Z</time>
      </trkpt>
      <trkpt lat="50.68939" lon="3.05163">
        <ele>18.094814</ele>
        <time>2022-07-14T06:21:27Z</time>
      </trkpt>
      <trkpt lat="50.68964" lon="3.0514">
        <ele>18.336176</ele>
        <time>2022-07-14T06:21:35Z</time>
      </trkpt>
      <trkpt lat="50.69007" lon="3.05101">
        <ele>18.565609</ele>
        <time>2022-07-14T06:21:45Z</time>
      </trkpt>
      <trkpt lat="50.6904" lon="3.05062">
        <ele>18.687714</ele>
        <time>2022-07-14T06:21:53Z</time>
      </trkpt>
      <trkpt lat="50.69069" lon="3.05018">
        <ele>18.712452</ele>
        <time>2022-07-14T06:22:01Z</time>
      </trkpt>
      <trkpt lat="50.69088" lon="3.04982">
        <ele>18.661001</ele>
        <time>2022-07-14T06:22:07Z</time>
      </trkpt>
      <trkpt lat="50.69111" lon="3.04931">
        <ele>18.525229</ele>
        <time>2022-07-14T06:22:15Z</time>
      </trkpt>
      <trkpt lat="50.69131" lon="3.04877">
        <ele>18.27693</ele>
        <time>2022-07-14T06:22:23Z</time>
      </trkpt>
      <trkpt lat="50.69146" lon="3.04805">
        <ele>17.838017</ele>
        <time>2022-07-14T06:22:33Z</time>
      </trkpt>
      <trkpt lat="50.69163" lon="3.04746">
        <ele>17.497154</ele>
        <time>2022-07-14T06:22:41Z</time>
      </trkpt>
      <trkpt lat="50.69171" lon="3.04716">
        <ele>17.355503</ele>
        <time>2022-07-14T06:22:45Z</time>
      </trkpt>
      <trkpt lat="50.69185" lon="3.04639">
        <ele>17.022491</ele>
        <time>2022-07-14T06:22:55Z</time>
      </trkpt>
      <trkpt lat="50.69199" lon="3.04578">
        <ele>16.764605</ele>
        <time>2022-07-14T06:23:03Z</time>
      </trkpt>
      <trkpt lat="50.69209" lon="3.04501">
        <ele>16.708685</ele>
        <time>2022-07-14T06:23:13Z</time>
      </trkpt>
      <trkpt lat="50.69214" lon="3.04437">
        <ele>16.804264</ele>
        <time>2022-07-14T06:23:21Z</time>
      </trkpt>
      <trkpt lat="50.69219" lon="3.04405">
        <ele>16.867321</ele>
        <time>2022-07-14T06:23:25Z</time>
      </trkpt>
      <trkpt lat="50.69227" lon="3.04324">
        <ele>17.091957</ele>
        <time>2022-07-14T06:23:35Z</time>
      </trkpt>
      <trkpt lat="50.69232" lon="3.0426">
        <ele>17.377529</ele>
        <time>2022-07-14T06:23:43Z</time>
      </trkpt>
      <trkpt lat="50.69239" lon="3.04178">
        <ele>17.672657</ele>
        <time>2022-07-14T06:23:53Z</time>
      </trkpt>
      <trkpt lat="50.69246" lon="3.04112">
        <ele>17.707237</ele>
        <time>2022-07-14T06:24:01Z</time>
      </trkpt>
      <trkpt lat="50.6925" lon="3.0408">
        <ele>17.641539</ele>
        <time>2022-07-14T06:24:05Z</time>
      </trkpt>
      <trkpt lat="50.69262" lon="3.04002">
        <ele>17.345842</ele>
        <time>2022-07-14T06:24:15Z</time>
      </trkpt>
      <trkpt lat="50.69273" lon="3.03939">
        <ele>16.929134</ele>
        <time>2022-07-14T06:24:23Z</time>
      </trkpt>
      <trkpt lat="50.69287" lon="3.0386">
        <ele>16.368252</ele>
        <time>2022-07-14T06:24:33Z</time>
      </trkpt>
      <trkpt lat="50.693" lon="3.03797">
        <ele>16.08119</ele>
        <time>2022-07-14T06:24:41Z</time>
      </trkpt>
      <trkpt lat="50.69304" lon="3.03766">
        <ele>15.944044</ele>
        <time>2022-07-14T06:24:45Z</time>
      </trkpt>
      <trkpt lat="50.69321" lon="3.0369">
        <ele>15.799736</ele>
        <time>2022-07-14T06:24:55Z</time>
      </trkpt>
      <trkpt lat="50.69335" lon="3.03631">
        <ele>15.84596</ele>
        <time>2022-07-14T06:25:03Z</time>
      </trkpt>
      <trkpt lat="50.69345" lon="3.03591">
        <ele>16.062302</ele>
        <time>2022-07-14T06:25:11Z</time>
      </trkpt>
      <trkpt lat="50.69352" lon="3.03557">
        <ele>16.375574</ele>
        <time>2022-07-14T06:25:21Z</time>
      </trkpt>
      <trkpt lat="50.69356" lon="3.03539">
        <ele>16.479979</ele>
        <time>2022-07-14T06:25:25Z</time>
      </trkpt>
      <trkpt lat="50.69358" lon="3.03527">
        <ele>16.716005</ele>
        <time>2022-07-14T06:25:35Z</time>
      </trkpt>
      <trkpt lat="50.69349" lon="3.03571">
        <ele>16.939121</ele>
        <time>2022-07-14T06:25:45Z</time>
      </trkpt>
      <trkpt lat="50.69327" lon="3.03585">
        <ele>17.01041</ele>
        <time>2022-07-14T06:25:53Z</time>
      </trkpt>
      <trkpt lat="50.69289" lon="3.03574">
        <ele>17.026777</ele>
        <time>2022-07-14T06:26:08Z</time>
      </trkpt>
      <trkpt lat="50.69261" lon="3.03549">
        <ele>17.031979</ele>
        <time>2022-07-14T06:26:17Z</time>
      </trkpt>
      <trkpt lat="50.69214" lon="3.03502">
        <ele>17.060701</ele>
        <time>2022-07-14T06:26:30Z</time>
      </trkpt>
      <trkpt lat="50.69179" lon="3.03464">
        <ele>17.299641</ele>
        <time>2022-07-14T06:26:40Z</time>
      </trkpt>
      <trkpt lat="50.69153" lon="3.03433">
        <ele>17.591518</ele>
        <time>2022-07-14T06:26:48Z</time>
      </trkpt>
      <trkpt lat="50.69115" lon="3.03383">
        <ele>18.074202</ele>
        <time>2022-07-14T06:26:58Z</time>
      </trkpt>
      <trkpt lat="50.69101" lon="3.03362">
        <ele>18.312147</ele>
        <time>2022-07-14T06:27:02Z</time>
      </trkpt>
      <trkpt lat="50.69074" lon="3.03322">
        <ele>18.854765</ele>
        <time>2022-07-14T06:27:10Z</time>
      </trkpt>
      <trkpt lat="50.6904" lon="3.03278">
        <ele>19.696735</ele>
        <time>2022-07-14T06:27:20Z</time>
      </trkpt>
      <trkpt lat="50.69016" lon="3.03244">
        <ele>20.296497</ele>
        <time>2022-07-14T06:27:28Z</time>
      </trkpt>
      <trkpt lat="50.69038" lon="3.03219">
        <ele>20.658092</ele>
        <time>2022-07-14T06:27:36Z</time>
      </trkpt>
      <trkpt lat="50.69061" lon="3.03207">
        <ele>20.789951</ele>
        <time>2022-07-14T06:27:42Z</time>
      </trkpt>
      <trkpt lat="50.69081" lon="3.03162">
        <ele>20.945375</ele>
        <time>2022-07-14T06:27:50Z</time>
      </trkpt>
      <trkpt lat="50.69125" lon="3.03036">
        <ele>20.992023</ele>
        <time>2022-07-14T06:28:09Z</time>
      </trkpt>
      <trkpt lat="50.69148" lon="3.02985">
        <ele>20.980095</ele>
        <time>2022-07-14T06:28:17Z</time>
      </trkpt>
      <trkpt lat="50.6917" lon="3.02932">
        <ele>20.873989</ele>
        <time>2022-07-14T06:28:25Z</time>
      </trkpt>
      <trkpt lat="50.69187" lon="3.02892">
        <ele>20.760902</ele>
        <time>2022-07-14T06:28:31Z</time>
      </trkpt>
      <trkpt lat="50.69212" lon="3.02843">
        <ele>20.589085</ele>
        <time>2022-07-14T06:28:39Z</time>
      </trkpt>
      <trkpt lat="50.6924" lon="3.02786">
        <ele>20.414709</ele>
        <time>2022-07-14T06:28:48Z</time>
      </trkpt>
      <trkpt lat="50.69273" lon="3.02723">
        <ele>20.240536</ele>
        <time>2022-07-14T06:28:58Z</time>
      </trkpt>
      <trkpt lat="50.69295" lon="3.02678">
        <ele>20.181614</ele>
        <time>2022-07-14T06:29:06Z</time>
      </trkpt>
      <trkpt lat="50.69307" lon="3.02656">
        <ele>20.197002</ele>
        <time>2022-07-14T06:29:10Z</time>
      </trkpt>
      <trkpt lat="50.69338" lon="3.02587">
        <ele>20.390316</ele>
        <time>2022-07-14T06:29:21Z</time>
      </trkpt>
      <trkpt lat="50.69359" lon="3.02536">
        <ele>20.586689</ele>
        <time>2022-07-14T06:29:29Z</time>
      </trkpt>
      <trkpt lat="50.69385" lon="3.02468">
        <ele>20.803944</ele>
        <time>2022-07-14T06:29:39Z</time>
      </trkpt>
      <trkpt lat="50.69406" lon="3.02414">
        <ele>20.878382</ele>
        <time>2022-07-14T06:29:47Z</time>
      </trkpt>
      <trkpt lat="50.69416" lon="3.02386">
        <ele>20.841589</ele>
        <time>2022-07-14T06:29:51Z</time>
      </trkpt>
      <trkpt lat="50.69442" lon="3.02316">
        <ele>20.587986</ele>
        <time>2022-07-14T06:30:01Z</time>
      </trkpt>
      <trkpt lat="50.69462" lon="3.02261">
        <ele>20.406889</ele>
        <time>2022-07-14T06:30:09Z</time>
      </trkpt>
      <trkpt lat="50.69492" lon="3.02208">
        <ele>20.142429</ele>
        <time>2022-07-14T06:30:19Z</time>
      </trkpt>
      <trkpt lat="50.69518" lon="3.02203">
        <ele>19.911634</ele>
        <time>2022-07-14T06:30:27Z</time>
      </trkpt>
      <trkpt lat="50.69528" lon="3.02217">
        <ele>19.781891</ele>
        <time>2022-07-14T06:30:31Z</time>
      </trkpt>
      <trkpt lat="50.69568" lon="3.02257">
        <ele>19.510933</ele>
        <time>2022-07-14T06:30:41Z</time>
      </trkpt>
      <trkpt lat="50.69603" lon="3.02293">
        <ele>19.295834</ele>
        <time>2022-07-14T06:30:49Z</time>
      </trkpt>
      <trkpt lat="50.69644" lon="3.0234">
        <ele>18.84206</ele>
        <time>2022-07-14T06:30:59Z</time>
      </trkpt>
      <trkpt lat="50.69669" lon="3.02351">
        <ele>18.332685</ele>
        <time>2022-07-14T06:31:07Z</time>
      </trkpt>
      <trkpt lat="50.69694" lon="3.02298">
        <ele>18.015505</ele>
        <time>2022-07-14T06:31:16Z</time>
      </trkpt>
      <trkpt lat="50.69719" lon="3.02227">
        <ele>16.95532</ele>
        <time>2022-07-14T06:31:26Z</time>
      </trkpt>
      <trkpt lat="50.6974" lon="3.02171">
        <ele>16.120449</ele>
        <time>2022-07-14T06:31:34Z</time>
      </trkpt>
      <trkpt lat="50.69762" lon="3.02118">
        <ele>15.329308</ele>
        <time>2022-07-14T06:31:42Z</time>
      </trkpt>
      <trkpt lat="50.69795" lon="3.02055">
        <ele>14.559813</ele>
        <time>2022-07-14T06:31:52Z</time>
      </trkpt>
      <trkpt lat="50.69808" lon="3.02031">
        <ele>14.25961</ele>
        <time>2022-07-14T06:31:56Z</time>
      </trkpt>
      <trkpt lat="50.69835" lon="3.01985">
        <ele>13.850401</ele>
        <time>2022-07-14T06:32:04Z</time>
      </trkpt>
      <trkpt lat="50.69874" lon="3.01936">
        <ele>13.678232</ele>
        <time>2022-07-14T06:32:14Z</time>
      </trkpt>
      <trkpt lat="50.69904" lon="3.01896">
        <ele>13.774256</ele>
        <time>2022-07-14T06:32:22Z</time>
      </trkpt>
      <trkpt lat="50.69941" lon="3.0185">
        <ele>14.092517</ele>
        <time>2022-07-14T06:32:32Z</time>
      </trkpt>
      <trkpt lat="50.69957" lon="3.01835">
        <ele>14.243126</ele>
        <time>2022-07-14T06:32:36Z</time>
      </trkpt>
      <trkpt lat="50.69986" lon="3.01803">
        <ele>14.633512</ele>
        <time>2022-07-14T06:32:44Z</time>
      </trkpt>
      <trkpt lat="50.70017" lon="3.01766">
        <ele>14.962053</ele>
        <time>2022-07-14T06:32:54Z</time>
      </trkpt>
      <trkpt lat="50.70043" lon="3.01734">
        <ele>15.037509</ele>
        <time>2022-07-14T06:33:02Z</time>
      </trkpt>
      <trkpt lat="50.70079" lon="3.01689">
        <ele>14.932974</ele>
        <time>2022-07-14T06:33:12Z</time>
      </trkpt>
      <trkpt lat="50.70092" lon="3.01675">
        <ele>14.809393</ele>
        <time>2022-07-14T06:33:16Z</time>
      </trkpt>
      <trkpt lat="50.70121" lon="3.01641">
        <ele>14.612808</ele>
        <time>2022-07-14T06:33:24Z</time>
      </trkpt>
      <trkpt lat="50.7016" lon="3.01597">
        <ele>14.534569</ele>
        <time>2022-07-14T06:33:34Z</time>
      </trkpt>
      <trkpt lat="50.70195" lon="3.01569">
        <ele>14.503656</ele>
        <time>2022-07-14T06:33:42Z</time>
      </trkpt>
      <trkpt lat="50.70225" lon="3.0153">
        <ele>14.467407</ele>
        <time>2022-07-14T06:33:50Z</time>
      </trkpt>
      <trkpt lat="50.70248" lon="3.01502">
        <ele>14.445543</ele>
        <time>2022-07-14T06:33:56Z</time>
      </trkpt>
      <trkpt lat="50.7028" lon="3.01462">
        <ele>14.438883</ele>
        <time>2022-07-14T06:34:04Z</time>
      </trkpt>
      <trkpt lat="50.7032" lon="3.0141">
        <ele>14.332273</ele>
        <time>2022-07-14T06:34:14Z</time>
      </trkpt>
      <trkpt lat="50.70344" lon="3.01357">
        <ele>14.241364</ele>
        <time>2022-07-14T06:34:22Z</time>
      </trkpt>
      <trkpt lat="50.70375" lon="3.01316">
        <ele>14.226791</ele>
        <time>2022-07-14T06:34:30Z</time>
      </trkpt>
      <trkpt lat="50.7039" lon="3.01277">
        <ele>14.262705</ele>
        <time>2022-07-14T06:34:36Z</time>
      </trkpt>
      <trkpt lat="50.70421" lon="3.01233">
        <ele>14.379585</ele>
        <time>2022-07-14T06:34:44Z</time>
      </trkpt>
      <trkpt lat="50.70457" lon="3.01203">
        <ele>14.524469</ele>
        <time>2022-07-14T06:34:52Z</time>
      </trkpt>
      <trkpt lat="50.70503" lon="3.01169">
        <ele>14.743955</ele>
        <time>2022-07-14T06:35:02Z</time>
      </trkpt>
      <trkpt lat="50.7054" lon="3.01136">
        <ele>14.840826</ele>
        <time>2022-07-14T06:35:10Z</time>
      </trkpt>
      <trkpt lat="50.70556" lon="3.01117">
        <ele>14.820361</ele>
        <time>2022-07-14T06:35:14Z</time>
      </trkpt>
      <trkpt lat="50.70591" lon="3.01069">
        <ele>14.698291</ele>
        <time>2022-07-14T06:35:24Z</time>
      </trkpt>
      <trkpt lat="50.70618" lon="3.01037">
        <ele>14.570218</ele>
        <time>2022-07-14T06:35:32Z</time>
      </trkpt>
      <trkpt lat="50.70656" lon="3.00993">
        <ele>14.347101</ele>
        <time>2022-07-14T06:35:42Z</time>
      </trkpt>
      <trkpt lat="50.70687" lon="3.00955">
        <ele>14.177277</ele>
        <time>2022-07-14T06:35:50Z</time>
      </trkpt>
      <trkpt lat="50.70702" lon="3.00936">
        <ele>14.082199</ele>
        <time>2022-07-14T06:35:54Z</time>
      </trkpt>
      <trkpt lat="50.7074" lon="3.00888">
        <ele>13.904081</ele>
        <time>2022-07-14T06:36:04Z</time>
      </trkpt>
      <trkpt lat="50.7077" lon="3.00847">
        <ele>13.853849</ele>
        <time>2022-07-14T06:36:12Z</time>
      </trkpt>
      <trkpt lat="50.70804" lon="3.00791">
        <ele>13.890768</ele>
        <time>2022-07-14T06:36:22Z</time>
      </trkpt>
      <trkpt lat="50.70829" lon="3.00744">
        <ele>13.948705</ele>
        <time>2022-07-14T06:36:30Z</time>
      </trkpt>
      <trkpt lat="50.70842" lon="3.00718">
        <ele>14.005522</ele>
        <time>2022-07-14T06:36:34Z</time>
      </trkpt>
      <trkpt lat="50.70871" lon="3.00654">
        <ele>14.224498</ele>
        <time>2022-07-14T06:36:44Z</time>
      </trkpt>
      <trkpt lat="50.70892" lon="3.006">
        <ele>14.58074</ele>
        <time>2022-07-14T06:36:52Z</time>
      </trkpt>
      <trkpt lat="50.70915" lon="3.0053">
        <ele>15.326564</ele>
        <time>2022-07-14T06:37:02Z</time>
      </trkpt>
      <trkpt lat="50.70929" lon="3.00473">
        <ele>15.835345</ele>
        <time>2022-07-14T06:37:10Z</time>
      </trkpt>
      <trkpt lat="50.70936" lon="3.00443">
        <ele>16.129379</ele>
        <time>2022-07-14T06:37:14Z</time>
      </trkpt>
      <trkpt lat="50.70952" lon="3.00367">
        <ele>16.738735</ele>
        <time>2022-07-14T06:37:24Z</time>
      </trkpt>
      <trkpt lat="50.70961" lon="3.00303">
        <ele>17.004263</ele>
        <time>2022-07-14T06:37:32Z</time>
      </trkpt>
      <trkpt lat="50.70968" lon="3.00245">
        <ele>17.044737</ele>
        <time>2022-07-14T06:37:40Z</time>
      </trkpt>
      <trkpt lat="50.70976" lon="3.00175">
        <ele>16.856503</ele>
        <time>2022-07-14T06:37:50Z</time>
      </trkpt>
      <trkpt lat="50.70979" lon="3.00145">
        <ele>16.698708</ele>
        <time>2022-07-14T06:37:54Z</time>
      </trkpt>
      <trkpt lat="50.70986" lon="3.00082">
        <ele>16.462215</ele>
        <time>2022-07-14T06:38:02Z</time>
      </trkpt>
      <trkpt lat="50.70999" lon="3.00008">
        <ele>16.087566</ele>
        <time>2022-07-14T06:38:12Z</time>
      </trkpt>
      <trkpt lat="50.71019" lon="2.99959">
        <ele>15.793216</ele>
        <time>2022-07-14T06:38:20Z</time>
      </trkpt>
      <trkpt lat="50.71031" lon="2.99888">
        <ele>15.53185</ele>
        <time>2022-07-14T06:38:30Z</time>
      </trkpt>
      <trkpt lat="50.71036" lon="2.99859">
        <ele>15.496832</ele>
        <time>2022-07-14T06:38:34Z</time>
      </trkpt>
      <trkpt lat="50.71036" lon="2.99809">
        <ele>15.498706</ele>
        <time>2022-07-14T06:38:42Z</time>
      </trkpt>
      <trkpt lat="50.71037" lon="2.99768">
        <ele>15.672731</ele>
        <time>2022-07-14T06:38:52Z</time>
      </trkpt>
      <trkpt lat="50.71054" lon="2.99764">
        <ele>15.901138</ele>
        <time>2022-07-14T06:39:00Z</time>
      </trkpt>
      <trkpt lat="50.71085" lon="2.99788">
        <ele>16.138546</ele>
        <time>2022-07-14T06:39:10Z</time>
      </trkpt>
      <trkpt lat="50.71095" lon="2.99794">
        <ele>16.209736</ele>
        <time>2022-07-14T06:39:14Z</time>
      </trkpt>
      <trkpt lat="50.71107" lon="2.99759">
        <ele>16.248028</ele>
        <time>2022-07-14T06:39:22Z</time>
      </trkpt>
      <trkpt lat="50.71148" lon="2.99696">
        <ele>16.189461</ele>
        <time>2022-07-14T06:39:32Z</time>
      </trkpt>
      <trkpt lat="50.71173" lon="2.99639">
        <ele>16.047667</ele>
        <time>2022-07-14T06:39:40Z</time>
      </trkpt>
      <trkpt lat="50.71198" lon="2.99589">
        <ele>15.762701</ele>
        <time>2022-07-14T06:39:48Z</time>
      </trkpt>
      <trkpt lat="50.71216" lon="2.99555">
        <ele>15.51713</ele>
        <time>2022-07-14T06:39:54Z</time>
      </trkpt>
      <trkpt lat="50.71244" lon="2.995">
        <ele>15.201551</ele>
        <time>2022-07-14T06:40:02Z</time>
      </trkpt>
      <trkpt lat="50.71278" lon="2.99434">
        <ele>14.924161</ele>
        <time>2022-07-14T06:40:12Z</time>
      </trkpt>
      <trkpt lat="50.71304" lon="2.99385">
        <ele>14.63621</ele>
        <time>2022-07-14T06:40:20Z</time>
      </trkpt>
      <trkpt lat="50.71325" lon="2.99344">
        <ele>14.307615</ele>
        <time>2022-07-14T06:40:28Z</time>
      </trkpt>
      <trkpt lat="50.71338" lon="2.99314">
        <ele>14.095652</ele>
        <time>2022-07-14T06:40:34Z</time>
      </trkpt>
      <trkpt lat="50.71353" lon="2.99264">
        <ele>13.809476</ele>
        <time>2022-07-14T06:40:42Z</time>
      </trkpt>
      <trkpt lat="50.71365" lon="2.99215">
        <ele>13.491112</ele>
        <time>2022-07-14T06:40:50Z</time>
      </trkpt>
      <trkpt lat="50.71378" lon="2.99183">
        <ele>13.128111</ele>
        <time>2022-07-14T06:41:00Z</time>
      </trkpt>
      <trkpt lat="50.71404" lon="2.99166">
        <ele>12.951036</ele>
        <time>2022-07-14T06:41:08Z</time>
      </trkpt>
      <trkpt lat="50.71414" lon="2.99143">
        <ele>12.864256</ele>
        <time>2022-07-14T06:41:12Z</time>
      </trkpt>
      <trkpt lat="50.71438" lon="2.99074">
        <ele>12.517496</ele>
        <time>2022-07-14T06:41:22Z</time>
      </trkpt>
      <trkpt lat="50.71459" lon="2.99019">
        <ele>12.174921</ele>
        <time>2022-07-14T06:41:30Z</time>
      </trkpt>
      <trkpt lat="50.71486" lon="2.9895">
        <ele>11.898226</ele>
        <time>2022-07-14T06:41:40Z</time>
      </trkpt>
      <trkpt lat="50.71506" lon="2.98892">
        <ele>11.749258</ele>
        <time>2022-07-14T06:41:48Z</time>
      </trkpt>
      <trkpt lat="50.71516" lon="2.98863">
        <ele>11.684838</ele>
        <time>2022-07-14T06:41:52Z</time>
      </trkpt>
      <trkpt lat="50.7154" lon="2.98792">
        <ele>11.632397</ele>
        <time>2022-07-14T06:42:02Z</time>
      </trkpt>
      <trkpt lat="50.71558" lon="2.98732">
        <ele>11.807064</ele>
        <time>2022-07-14T06:42:10Z</time>
      </trkpt>
      <trkpt lat="50.71577" lon="2.98657">
        <ele>12.480839</ele>
        <time>2022-07-14T06:42:20Z</time>
      </trkpt>
      <trkpt lat="50.71591" lon="2.98594">
        <ele>12.911832</ele>
        <time>2022-07-14T06:42:28Z</time>
      </trkpt>
      <trkpt lat="50.71605" lon="2.98533">
        <ele>13.270274</ele>
        <time>2022-07-14T06:42:36Z</time>
      </trkpt>
      <trkpt lat="50.71616" lon="2.98487">
        <ele>13.570117</ele>
        <time>2022-07-14T06:42:42Z</time>
      </trkpt>
      <trkpt lat="50.7163" lon="2.98426">
        <ele>13.902553</ele>
        <time>2022-07-14T06:42:50Z</time>
      </trkpt>
      <trkpt lat="50.71648" lon="2.98351">
        <ele>14.153498</ele>
        <time>2022-07-14T06:43:00Z</time>
      </trkpt>
      <trkpt lat="50.71661" lon="2.98292">
        <ele>14.319572</ele>
        <time>2022-07-14T06:43:08Z</time>
      </trkpt>
      <trkpt lat="50.71675" lon="2.98232">
        <ele>14.493261</ele>
        <time>2022-07-14T06:43:16Z</time>
      </trkpt>
      <trkpt lat="50.71685" lon="2.98186">
        <ele>14.618151</ele>
        <time>2022-07-14T06:43:22Z</time>
      </trkpt>
      <trkpt lat="50.71699" lon="2.98125">
        <ele>14.768003</ele>
        <time>2022-07-14T06:43:30Z</time>
      </trkpt>
      <trkpt lat="50.71714" lon="2.98057">
        <ele>14.921565</ele>
        <time>2022-07-14T06:43:39Z</time>
      </trkpt>
      <trkpt lat="50.71732" lon="2.9798">
        <ele>14.989896</ele>
        <time>2022-07-14T06:43:49Z</time>
      </trkpt>
      <trkpt lat="50.71749" lon="2.97921">
        <ele>14.998123</ele>
        <time>2022-07-14T06:43:57Z</time>
      </trkpt>
      <trkpt lat="50.71756" lon="2.97891">
        <ele>14.999268</ele>
        <time>2022-07-14T06:44:01Z</time>
      </trkpt>
      <trkpt lat="50.71773" lon="2.97815">
        <ele>14.998793</ele>
        <time>2022-07-14T06:44:11Z</time>
      </trkpt>
      <trkpt lat="50.71787" lon="2.97754">
        <ele>14.939583</ele>
        <time>2022-07-14T06:44:19Z</time>
      </trkpt>
      <trkpt lat="50.71805" lon="2.97677">
        <ele>14.761052</ele>
        <time>2022-07-14T06:44:29Z</time>
      </trkpt>
      <trkpt lat="50.71821" lon="2.97614">
        <ele>14.61237</ele>
        <time>2022-07-14T06:44:37Z</time>
      </trkpt>
      <trkpt lat="50.71829" lon="2.97584">
        <ele>14.512525</ele>
        <time>2022-07-14T06:44:41Z</time>
      </trkpt>
      <trkpt lat="50.71852" lon="2.9751">
        <ele>14.312593</ele>
        <time>2022-07-14T06:44:51Z</time>
      </trkpt>
      <trkpt lat="50.71871" lon="2.97451">
        <ele>14.187648</ele>
        <time>2022-07-14T06:44:59Z</time>
      </trkpt>
      <trkpt lat="50.71896" lon="2.97381">
        <ele>14.049794</ele>
        <time>2022-07-14T06:45:09Z</time>
      </trkpt>
      <trkpt lat="50.71919" lon="2.97327">
        <ele>14.115436</ele>
        <time>2022-07-14T06:45:17Z</time>
      </trkpt>
      <trkpt lat="50.7193" lon="2.973">
        <ele>14.158442</ele>
        <time>2022-07-14T06:45:21Z</time>
      </trkpt>
      <trkpt lat="50.7196" lon="2.97232">
        <ele>14.327893</ele>
        <time>2022-07-14T06:45:31Z</time>
      </trkpt>
      <trkpt lat="50.71985" lon="2.97179">
        <ele>14.527522</ele>
        <time>2022-07-14T06:45:39Z</time>
      </trkpt>
      <trkpt lat="50.7201" lon="2.97132">
        <ele>14.692477</ele>
        <time>2022-07-14T06:45:47Z</time>
      </trkpt>
      <trkpt lat="50.72042" lon="2.97072">
        <ele>14.940758</ele>
        <time>2022-07-14T06:45:57Z</time>
      </trkpt>
      <trkpt lat="50.72054" lon="2.97047">
        <ele>15.012972</ele>
        <time>2022-07-14T06:46:01Z</time>
      </trkpt>
      <trkpt lat="50.72084" lon="2.96985">
        <ele>15.168089</ele>
        <time>2022-07-14T06:46:11Z</time>
      </trkpt>
      <trkpt lat="50.72109" lon="2.96932">
        <ele>15.205833</ele>
        <time>2022-07-14T06:46:19Z</time>
      </trkpt>
      <trkpt lat="50.72133" lon="2.9688">
        <ele>15.211131</ele>
        <time>2022-07-14T06:46:27Z</time>
      </trkpt>
      <trkpt lat="50.72163" lon="2.96821">
        <ele>15.190214</ele>
        <time>2022-07-14T06:46:37Z</time>
      </trkpt>
      <trkpt lat="50.72163" lon="2.96802">
        <ele>15.150362</ele>
        <time>2022-07-14T06:46:41Z</time>
      </trkpt>
      <trkpt lat="50.72187" lon="2.9677">
        <ele>15.030591</ele>
        <time>2022-07-14T06:46:49Z</time>
      </trkpt>
      <trkpt lat="50.72215" lon="2.96706">
        <ele>14.80689</ele>
        <time>2022-07-14T06:46:59Z</time>
      </trkpt>
      <trkpt lat="50.72234" lon="2.96654">
        <ele>14.627205</ele>
        <time>2022-07-14T06:47:07Z</time>
      </trkpt>
      <trkpt lat="50.72255" lon="2.96588">
        <ele>14.408224</ele>
        <time>2022-07-14T06:47:17Z</time>
      </trkpt>
      <trkpt lat="50.72264" lon="2.96561">
        <ele>14.33312</ele>
        <time>2022-07-14T06:47:21Z</time>
      </trkpt>
      <trkpt lat="50.72279" lon="2.96504">
        <ele>14.189407</ele>
        <time>2022-07-14T06:47:29Z</time>
      </trkpt>
      <trkpt lat="50.72299" lon="2.96426">
        <ele>14.083814</ele>
        <time>2022-07-14T06:47:39Z</time>
      </trkpt>
      <trkpt lat="50.72312" lon="2.96367">
        <ele>14.073418</ele>
        <time>2022-07-14T06:47:47Z</time>
      </trkpt>
      <trkpt lat="50.72325" lon="2.96289">
        <ele>14.083574</ele>
        <time>2022-07-14T06:47:57Z</time>
      </trkpt>
      <trkpt lat="50.72327" lon="2.96257">
        <ele>14.08378</ele>
        <time>2022-07-14T06:48:01Z</time>
      </trkpt>
      <trkpt lat="50.72327" lon="2.96192">
        <ele>14.070913</ele>
        <time>2022-07-14T06:48:09Z</time>
      </trkpt>
      <trkpt lat="50.72326" lon="2.96113">
        <ele>14.043384</ele>
        <time>2022-07-14T06:48:19Z</time>
      </trkpt>
      <trkpt lat="50.72326" lon="2.96048">
        <ele>13.995985</ele>
        <time>2022-07-14T06:48:27Z</time>
      </trkpt>
      <trkpt lat="50.72324" lon="2.95985">
        <ele>13.943021</ele>
        <time>2022-07-14T06:48:35Z</time>
      </trkpt>
      <trkpt lat="50.72324" lon="2.95937">
        <ele>13.938944</ele>
        <time>2022-07-14T06:48:41Z</time>
      </trkpt>
      <trkpt lat="50.72324" lon="2.95872">
        <ele>14.064878</ele>
        <time>2022-07-14T06:48:49Z</time>
      </trkpt>
      <trkpt lat="50.72322" lon="2.95792">
        <ele>14.315425</ele>
        <time>2022-07-14T06:48:59Z</time>
      </trkpt>
      <trkpt lat="50.72323" lon="2.95729">
        <ele>14.499623</ele>
        <time>2022-07-14T06:49:07Z</time>
      </trkpt>
      <trkpt lat="50.72326" lon="2.95662">
        <ele>14.694903</ele>
        <time>2022-07-14T06:49:15Z</time>
      </trkpt>
      <trkpt lat="50.7233" lon="2.95609">
        <ele>14.756468</ele>
        <time>2022-07-14T06:49:21Z</time>
      </trkpt>
      <trkpt lat="50.72339" lon="2.95544">
        <ele>14.676831</ele>
        <time>2022-07-14T06:49:29Z</time>
      </trkpt>
      <trkpt lat="50.7235" lon="2.95479">
        <ele>14.497034</ele>
        <time>2022-07-14T06:49:37Z</time>
      </trkpt>
      <trkpt lat="50.72369" lon="2.95402">
        <ele>14.236526</ele>
        <time>2022-07-14T06:49:47Z</time>
      </trkpt>
      <trkpt lat="50.72387" lon="2.95342">
        <ele>14.099131</ele>
        <time>2022-07-14T06:49:55Z</time>
      </trkpt>
      <trkpt lat="50.72396" lon="2.95312">
        <ele>14.038877</ele>
        <time>2022-07-14T06:49:59Z</time>
      </trkpt>
      <trkpt lat="50.72422" lon="2.95239">
        <ele>14.051657</ele>
        <time>2022-07-14T06:50:09Z</time>
      </trkpt>
      <trkpt lat="50.72448" lon="2.9519">
        <ele>14.191118</ele>
        <time>2022-07-14T06:50:17Z</time>
      </trkpt>
      <trkpt lat="50.7248" lon="2.95165">
        <ele>14.399869</ele>
        <time>2022-07-14T06:50:27Z</time>
      </trkpt>
      <trkpt lat="50.72498" lon="2.95146">
        <ele>14.562526</ele>
        <time>2022-07-14T06:50:35Z</time>
      </trkpt>
      <trkpt lat="50.72501" lon="2.95128">
        <ele>14.65285</ele>
        <time>2022-07-14T06:50:39Z</time>
      </trkpt>
      <trkpt lat="50.72528" lon="2.95084">
        <ele>14.821825</ele>
        <time>2022-07-14T06:50:49Z</time>
      </trkpt>
      <trkpt lat="50.72564" lon="2.95088">
        <ele>14.944059</ele>
        <time>2022-07-14T06:50:57Z</time>
      </trkpt>
      <trkpt lat="50.72609" lon="2.95101">
        <ele>15.004639</ele>
        <time>2022-07-14T06:51:07Z</time>
      </trkpt>
      <trkpt lat="50.7265" lon="2.95098">
        <ele>15.004766</ele>
        <time>2022-07-14T06:51:15Z</time>
      </trkpt>
      <trkpt lat="50.72669" lon="2.95095">
        <ele>14.996004</ele>
        <time>2022-07-14T06:51:19Z</time>
      </trkpt>
      <trkpt lat="50.72705" lon="2.95128">
        <ele>14.95857</ele>
        <time>2022-07-14T06:51:29Z</time>
      </trkpt>
      <trkpt lat="50.72735" lon="2.95097">
        <ele>14.949468</ele>
        <time>2022-07-14T06:51:37Z</time>
      </trkpt>
      <trkpt lat="50.72752" lon="2.95074">
        <ele>14.945827</ele>
        <time>2022-07-14T06:51:45Z</time>
      </trkpt>
      <trkpt lat="50.72734" lon="2.95018">
        <ele>14.939054</ele>
        <time>2022-07-14T06:51:55Z</time>
      </trkpt>
      <trkpt lat="50.72737" lon="2.94987">
        <ele>14.938894</ele>
        <time>2022-07-14T06:51:59Z</time>
      </trkpt>
      <trkpt lat="50.72757" lon="2.94919">
        <ele>14.956587</ele>
        <time>2022-07-14T06:52:09Z</time>
      </trkpt>
      <trkpt lat="50.72775" lon="2.94856">
        <ele>15.002443</ele>
        <time>2022-07-14T06:52:17Z</time>
      </trkpt>
      <trkpt lat="50.72802" lon="2.94809">
        <ele>15.102465</ele>
        <time>2022-07-14T06:52:25Z</time>
      </trkpt>
      <trkpt lat="50.72832" lon="2.94759">
        <ele>15.286441</ele>
        <time>2022-07-14T06:52:35Z</time>
      </trkpt>
      <trkpt lat="50.72849" lon="2.94743">
        <ele>15.363535</ele>
        <time>2022-07-14T06:52:39Z</time>
      </trkpt>
      <trkpt lat="50.72885" lon="2.94712">
        <ele>15.424357</ele>
        <time>2022-07-14T06:52:47Z</time>
      </trkpt>
      <trkpt lat="50.72931" lon="2.94673">
        <ele>15.260692</ele>
        <time>2022-07-14T06:52:57Z</time>
      </trkpt>
      <trkpt lat="50.72967" lon="2.94642">
        <ele>15.014763</ele>
        <time>2022-07-14T06:53:05Z</time>
      </trkpt>
      <trkpt lat="50.73012" lon="2.94602">
        <ele>14.616783</ele>
        <time>2022-07-14T06:53:15Z</time>
      </trkpt>
      <trkpt lat="50.73031" lon="2.94587">
        <ele>14.475832</ele>
        <time>2022-07-14T06:53:19Z</time>
      </trkpt>
      <trkpt lat="50.73068" lon="2.94557">
        <ele>14.324106</ele>
        <time>2022-07-14T06:53:27Z</time>
      </trkpt>
      <trkpt lat="50.73113" lon="2.94541">
        <ele>14.361407</ele>
        <time>2022-07-14T06:53:37Z</time>
      </trkpt>
      <trkpt lat="50.73151" lon="2.94555">
        <ele>14.448321</ele>
        <time>2022-07-14T06:53:45Z</time>
      </trkpt>
      <trkpt lat="50.73204" lon="2.94565">
        <ele>14.567526</ele>
        <time>2022-07-14T06:53:55Z</time>
      </trkpt>
      <trkpt lat="50.73225" lon="2.94561">
        <ele>14.5923</ele>
        <time>2022-07-14T06:53:59Z</time>
      </trkpt>
      <trkpt lat="50.7325" lon="2.94533">
        <ele>14.58598</ele>
        <time>2022-07-14T06:54:07Z</time>
      </trkpt>
      <trkpt lat="50.73299" lon="2.94474">
        <ele>14.299692</ele>
        <time>2022-07-14T06:54:17Z</time>
      </trkpt>
      <trkpt lat="50.73338" lon="2.94441">
        <ele>13.894198</ele>
        <time>2022-07-14T06:54:25Z</time>
      </trkpt>
      <trkpt lat="50.73376" lon="2.94414">
        <ele>13.201001</ele>
        <time>2022-07-14T06:54:33Z</time>
      </trkpt>
      <trkpt lat="50.73403" lon="2.94408">
        <ele>12.78101</ele>
        <time>2022-07-14T06:54:39Z</time>
      </trkpt>
      <trkpt lat="50.73436" lon="2.94398">
        <ele>12.428339</ele>
        <time>2022-07-14T06:54:47Z</time>
      </trkpt>
      <trkpt lat="50.73481" lon="2.94369">
        <ele>12.27287</ele>
        <time>2022-07-14T06:54:57Z</time>
      </trkpt>
      <trkpt lat="50.73502" lon="2.94367">
        <ele>12.285425</ele>
        <time>2022-07-14T06:55:05Z</time>
      </trkpt>
      <trkpt lat="50.7351" lon="2.94335">
        <ele>12.415388</ele>
        <time>2022-07-14T06:55:13Z</time>
      </trkpt>
      <trkpt lat="50.73518" lon="2.94305">
        <ele>12.646146</ele>
        <time>2022-07-14T06:55:19Z</time>
      </trkpt>
      <trkpt lat="50.73528" lon="2.94262">
        <ele>12.874974</ele>
        <time>2022-07-14T06:55:27Z</time>
      </trkpt>
      <trkpt lat="50.73553" lon="2.9422">
        <ele>13.032373</ele>
        <time>2022-07-14T06:55:35Z</time>
      </trkpt>
      <trkpt lat="50.73579" lon="2.94162">
        <ele>13.093573</ele>
        <time>2022-07-14T06:55:45Z</time>
      </trkpt>
      <trkpt lat="50.73603" lon="2.94116">
        <ele>13.088736</ele>
        <time>2022-07-14T06:55:53Z</time>
      </trkpt>
      <trkpt lat="50.73618" lon="2.94097">
        <ele>13.05694</ele>
        <time>2022-07-14T06:55:57Z</time>
      </trkpt>
      <trkpt lat="50.73663" lon="2.94067">
        <ele>12.997014</ele>
        <time>2022-07-14T06:56:07Z</time>
      </trkpt>
      <trkpt lat="50.73702" lon="2.94043">
        <ele>12.962898</ele>
        <time>2022-07-14T06:56:15Z</time>
      </trkpt>
      <trkpt lat="50.73751" lon="2.94017">
        <ele>12.957042</ele>
        <time>2022-07-14T06:56:25Z</time>
      </trkpt>
      <trkpt lat="50.7379" lon="2.94001">
        <ele>12.954516</ele>
        <time>2022-07-14T06:56:33Z</time>
      </trkpt>
      <trkpt lat="50.73809" lon="2.93994">
        <ele>12.936821</ele>
        <time>2022-07-14T06:56:37Z</time>
      </trkpt>
      <trkpt lat="50.73858" lon="2.9398">
        <ele>12.825285</ele>
        <time>2022-07-14T06:56:47Z</time>
      </trkpt>
      <trkpt lat="50.73898" lon="2.9397">
        <ele>12.69249</ele>
        <time>2022-07-14T06:56:55Z</time>
      </trkpt>
      <trkpt lat="50.73948" lon="2.93962">
        <ele>12.421551</ele>
        <time>2022-07-14T06:57:05Z</time>
      </trkpt>
      <trkpt lat="50.73988" lon="2.93959">
        <ele>12.221839</ele>
        <time>2022-07-14T06:57:13Z</time>
      </trkpt>
      <trkpt lat="50.74009" lon="2.93958">
        <ele>12.150903</ele>
        <time>2022-07-14T06:57:17Z</time>
      </trkpt>
      <trkpt lat="50.74062" lon="2.93958">
        <ele>12.046284</ele>
        <time>2022-07-14T06:57:27Z</time>
      </trkpt>
      <trkpt lat="50.74103" lon="2.93962">
        <ele>12.084804</ele>
        <time>2022-07-14T06:57:35Z</time>
      </trkpt>
      <trkpt lat="50.74144" lon="2.9397">
        <ele>12.19914</ele>
        <time>2022-07-14T06:57:43Z</time>
      </trkpt>
      <trkpt lat="50.74193" lon="2.93981">
        <ele>12.377925</ele>
        <time>2022-07-14T06:57:53Z</time>
      </trkpt>
      <trkpt lat="50.74213" lon="2.93986">
        <ele>12.435499</ele>
        <time>2022-07-14T06:57:57Z</time>
      </trkpt>
      <trkpt lat="50.74263" lon="2.94007">
        <ele>12.578119</ele>
        <time>2022-07-14T06:58:07Z</time>
      </trkpt>
      <trkpt lat="50.74304" lon="2.94025">
        <ele>12.578795</ele>
        <time>2022-07-14T06:58:15Z</time>
      </trkpt>
      <trkpt lat="50.74344" lon="2.94047">
        <ele>12.4936</ele>
        <time>2022-07-14T06:58:23Z</time>
      </trkpt>
      <trkpt lat="50.74392" lon="2.94077">
        <ele>12.321458</ele>
        <time>2022-07-14T06:58:33Z</time>
      </trkpt>
      <trkpt lat="50.7441" lon="2.94089">
        <ele>12.246237</ele>
        <time>2022-07-14T06:58:37Z</time>
      </trkpt>
      <trkpt lat="50.74446" lon="2.94117">
        <ele>12.140421</ele>
        <time>2022-07-14T06:58:45Z</time>
      </trkpt>
      <trkpt lat="50.74492" lon="2.94157">
        <ele>12.051908</ele>
        <time>2022-07-14T06:58:55Z</time>
      </trkpt>
      <trkpt lat="50.74528" lon="2.9419">
        <ele>12.02091</ele>
        <time>2022-07-14T06:59:03Z</time>
      </trkpt>
      <trkpt lat="50.7457" lon="2.94234">
        <ele>12.139395</ele>
        <time>2022-07-14T06:59:13Z</time>
      </trkpt>
      <trkpt lat="50.74587" lon="2.94254">
        <ele>12.233154</ele>
        <time>2022-07-14T06:59:17Z</time>
      </trkpt>
      <trkpt lat="50.74621" lon="2.94293">
        <ele>12.534099</ele>
        <time>2022-07-14T06:59:25Z</time>
      </trkpt>
      <trkpt lat="50.7466" lon="2.94346">
        <ele>13.090413</ele>
        <time>2022-07-14T06:59:35Z</time>
      </trkpt>
      <trkpt lat="50.74692" lon="2.94402">
        <ele>13.601825</ele>
        <time>2022-07-14T06:59:44Z</time>
      </trkpt>
      <trkpt lat="50.74719" lon="2.94471">
        <ele>14.061717</ele>
        <time>2022-07-14T06:59:54Z</time>
      </trkpt>
      <trkpt lat="50.74731" lon="2.94498">
        <ele>14.12312</ele>
        <time>2022-07-14T06:59:58Z</time>
      </trkpt>
      <trkpt lat="50.74754" lon="2.9455">
        <ele>13.978317</ele>
        <time>2022-07-14T07:00:06Z</time>
      </trkpt>
      <trkpt lat="50.74784" lon="2.94613">
        <ele>13.577751</ele>
        <time>2022-07-14T07:00:16Z</time>
      </trkpt>
      <trkpt lat="50.74807" lon="2.94658">
        <ele>13.189674</ele>
        <time>2022-07-14T07:00:24Z</time>
      </trkpt>
      <trkpt lat="50.74833" lon="2.94706">
        <ele>12.745157</ele>
        <time>2022-07-14T07:00:32Z</time>
      </trkpt>
      <trkpt lat="50.74854" lon="2.94744">
        <ele>12.555346</ele>
        <time>2022-07-14T07:00:38Z</time>
      </trkpt>
      <trkpt lat="50.74875" lon="2.94799">
        <ele>12.483198</ele>
        <time>2022-07-14T07:00:46Z</time>
      </trkpt>
      <trkpt lat="50.74899" lon="2.94874">
        <ele>12.396831</ele>
        <time>2022-07-14T07:00:56Z</time>
      </trkpt>
      <trkpt lat="50.74915" lon="2.94934">
        <ele>12.383797</ele>
        <time>2022-07-14T07:01:04Z</time>
      </trkpt>
      <trkpt lat="50.74928" lon="2.94994">
        <ele>12.566076</ele>
        <time>2022-07-14T07:01:12Z</time>
      </trkpt>
      <trkpt lat="50.74937" lon="2.9504">
        <ele>12.801516</ele>
        <time>2022-07-14T07:01:18Z</time>
      </trkpt>
      <trkpt lat="50.74948" lon="2.95103">
        <ele>13.092837</ele>
        <time>2022-07-14T07:01:26Z</time>
      </trkpt>
      <trkpt lat="50.74958" lon="2.95164">
        <ele>13.411005</ele>
        <time>2022-07-14T07:01:34Z</time>
      </trkpt>
      <trkpt lat="50.7497" lon="2.95233">
        <ele>13.77989</ele>
        <time>2022-07-14T07:01:44Z</time>
      </trkpt>
      <trkpt lat="50.74979" lon="2.95292">
        <ele>13.953695</ele>
        <time>2022-07-14T07:01:52Z</time>
      </trkpt>
      <trkpt lat="50.74982" lon="2.95323">
        <ele>13.977739</ele>
        <time>2022-07-14T07:01:56Z</time>
      </trkpt>
      <trkpt lat="50.74995" lon="2.95402">
        <ele>13.99795</ele>
        <time>2022-07-14T07:02:06Z</time>
      </trkpt>
      <trkpt lat="50.75004" lon="2.95465">
        <ele>13.999586</ele>
        <time>2022-07-14T07:02:14Z</time>
      </trkpt>
      <trkpt lat="50.75016" lon="2.95545">
        <ele>13.997594</ele>
        <time>2022-07-14T07:02:24Z</time>
      </trkpt>
      <trkpt lat="50.75026" lon="2.95608">
        <ele>13.972242</ele>
        <time>2022-07-14T07:02:32Z</time>
      </trkpt>
      <trkpt lat="50.75031" lon="2.95638">
        <ele>13.937131</ele>
        <time>2022-07-14T07:02:36Z</time>
      </trkpt>
      <trkpt lat="50.75036" lon="2.95678">
        <ele>13.000006</ele>
        <time>2022-07-14T07:04:07Z</time>
      </trkpt>
      <trkpt lat="50.75045" lon="2.95728">
        <ele>13.000002</ele>
        <time>2022-07-14T07:04:15Z</time>
      </trkpt>
      <trkpt lat="50.75055" lon="2.958">
        <ele>13.000002</ele>
        <time>2022-07-14T07:04:26Z</time>
      </trkpt>
      <trkpt lat="50.75064" lon="2.95858">
        <ele>13.000002</ele>
        <time>2022-07-14T07:04:34Z</time>
      </trkpt>
      <trkpt lat="50.75069" lon="2.95888">
        <ele>12.999998</ele>
        <time>2022-07-14T07:04:38Z</time>
      </trkpt>
      <trkpt lat="50.75081" lon="2.95969">
        <ele>12.995636</ele>
        <time>2022-07-14T07:04:48Z</time>
      </trkpt>
      <trkpt lat="50.7509" lon="2.96034">
        <ele>12.976985</ele>
        <time>2022-07-14T07:04:56Z</time>
      </trkpt>
      <trkpt lat="50.751" lon="2.96102">
        <ele>12.939138</ele>
        <time>2022-07-14T07:05:04Z</time>
      </trkpt>
      <trkpt lat="50.75114" lon="2.96185">
        <ele>12.831485</ele>
        <time>2022-07-14T07:05:14Z</time>
      </trkpt>
      <trkpt lat="50.75118" lon="2.96215">
        <ele>12.750838</ele>
        <time>2022-07-14T07:05:18Z</time>
      </trkpt>
      <trkpt lat="50.7513" lon="2.96297">
        <ele>12.560198</ele>
        <time>2022-07-14T07:05:28Z</time>
      </trkpt>
      <trkpt lat="50.75141" lon="2.96365">
        <ele>12.390868</ele>
        <time>2022-07-14T07:05:36Z</time>
      </trkpt>
      <trkpt lat="50.75151" lon="2.96432">
        <ele>12.228311</ele>
        <time>2022-07-14T07:05:44Z</time>
      </trkpt>
      <trkpt lat="50.75162" lon="2.96518">
        <ele>12.143087</ele>
        <time>2022-07-14T07:05:54Z</time>
      </trkpt>
      <trkpt lat="50.75165" lon="2.96553">
        <ele>12.195314</ele>
        <time>2022-07-14T07:05:58Z</time>
      </trkpt>
      <trkpt lat="50.75175" lon="2.96622">
        <ele>12.41314</ele>
        <time>2022-07-14T07:06:06Z</time>
      </trkpt>
      <trkpt lat="50.75185" lon="2.96706">
        <ele>12.853281</ele>
        <time>2022-07-14T07:06:16Z</time>
      </trkpt>
      <trkpt lat="50.752" lon="2.96776">
        <ele>13.314145</ele>
        <time>2022-07-14T07:06:24Z</time>
      </trkpt>
      <trkpt lat="50.75219" lon="2.96862">
        <ele>14.036146</ele>
        <time>2022-07-14T07:06:34Z</time>
      </trkpt>
      <trkpt lat="50.75228" lon="2.96895">
        <ele>14.400516</ele>
        <time>2022-07-14T07:06:38Z</time>
      </trkpt>
      <trkpt lat="50.75245" lon="2.96963">
        <ele>15.010025</ele>
        <time>2022-07-14T07:06:46Z</time>
      </trkpt>
      <trkpt lat="50.75271" lon="2.97048">
        <ele>15.71194</ele>
        <time>2022-07-14T07:06:56Z</time>
      </trkpt>
      <trkpt lat="50.75295" lon="2.97114">
        <ele>16.266207</ele>
        <time>2022-07-14T07:07:04Z</time>
      </trkpt>
      <trkpt lat="50.75322" lon="2.97197">
        <ele>16.936596</ele>
        <time>2022-07-14T07:07:14Z</time>
      </trkpt>
      <trkpt lat="50.75334" lon="2.97228">
        <ele>17.15378</ele>
        <time>2022-07-14T07:07:18Z</time>
      </trkpt>
      <trkpt lat="50.75357" lon="2.97289">
        <ele>17.307659</ele>
        <time>2022-07-14T07:07:26Z</time>
      </trkpt>
      <trkpt lat="50.75388" lon="2.97366">
        <ele>17.092396</ele>
        <time>2022-07-14T07:07:36Z</time>
      </trkpt>
      <trkpt lat="50.75412" lon="2.97426">
        <ele>16.65884</ele>
        <time>2022-07-14T07:07:44Z</time>
      </trkpt>
      <trkpt lat="50.75434" lon="2.97486">
        <ele>16.115692</ele>
        <time>2022-07-14T07:07:52Z</time>
      </trkpt>
      <trkpt lat="50.75451" lon="2.97531">
        <ele>15.522489</ele>
        <time>2022-07-14T07:07:58Z</time>
      </trkpt>
      <trkpt lat="50.75473" lon="2.97592">
        <ele>14.821783</ele>
        <time>2022-07-14T07:08:06Z</time>
      </trkpt>
      <trkpt lat="50.755" lon="2.9767">
        <ele>14.063853</ele>
        <time>2022-07-14T07:08:16Z</time>
      </trkpt>
      <trkpt lat="50.75523" lon="2.97731">
        <ele>13.727307</ele>
        <time>2022-07-14T07:08:24Z</time>
      </trkpt>
      <trkpt lat="50.75547" lon="2.97794">
        <ele>13.447268</ele>
        <time>2022-07-14T07:08:32Z</time>
      </trkpt>
      <trkpt lat="50.75565" lon="2.9784">
        <ele>13.31719</ele>
        <time>2022-07-14T07:08:38Z</time>
      </trkpt>
      <trkpt lat="50.75589" lon="2.97902">
        <ele>13.134514</ele>
        <time>2022-07-14T07:08:46Z</time>
      </trkpt>
      <trkpt lat="50.75612" lon="2.97967">
        <ele>12.942099</ele>
        <time>2022-07-14T07:08:54Z</time>
      </trkpt>
      <trkpt lat="50.75635" lon="2.98033">
        <ele>12.732962</ele>
        <time>2022-07-14T07:09:04Z</time>
      </trkpt>
      <trkpt lat="50.75647" lon="2.9807">
        <ele>12.559984</ele>
        <time>2022-07-14T07:09:12Z</time>
      </trkpt>
      <trkpt lat="50.75655" lon="2.98092">
        <ele>12.483698</ele>
        <time>2022-07-14T07:09:16Z</time>
      </trkpt>
      <trkpt lat="50.75681" lon="2.98172">
        <ele>12.235646</ele>
        <time>2022-07-14T07:09:26Z</time>
      </trkpt>
      <trkpt lat="50.75695" lon="2.98236">
        <ele>11.997264</ele>
        <time>2022-07-14T07:09:34Z</time>
      </trkpt>
      <trkpt lat="50.75708" lon="2.98315">
        <ele>11.692766</ele>
        <time>2022-07-14T07:09:44Z</time>
      </trkpt>
      <trkpt lat="50.75734" lon="2.98351">
        <ele>11.474093</ele>
        <time>2022-07-14T07:09:52Z</time>
      </trkpt>
      <trkpt lat="50.75752" lon="2.98371">
        <ele>11.374363</ele>
        <time>2022-07-14T07:09:56Z</time>
      </trkpt>
      <trkpt lat="50.75777" lon="2.98428">
        <ele>11.224669</ele>
        <time>2022-07-14T07:10:06Z</time>
      </trkpt>
      <trkpt lat="50.75779" lon="2.98493">
        <ele>11.261839</ele>
        <time>2022-07-14T07:10:14Z</time>
      </trkpt>
      <trkpt lat="50.75786" lon="2.98577">
        <ele>11.494659</ele>
        <time>2022-07-14T07:10:24Z</time>
      </trkpt>
      <trkpt lat="50.7579" lon="2.98619">
        <ele>11.856149</ele>
        <time>2022-07-14T07:10:32Z</time>
      </trkpt>
      <trkpt lat="50.75795" lon="2.98645">
        <ele>12.003216</ele>
        <time>2022-07-14T07:10:36Z</time>
      </trkpt>
      <trkpt lat="50.7582" lon="2.98711">
        <ele>12.434399</ele>
        <time>2022-07-14T07:10:46Z</time>
      </trkpt>
      <trkpt lat="50.75847" lon="2.98761">
        <ele>12.728774</ele>
        <time>2022-07-14T07:10:54Z</time>
      </trkpt>
      <trkpt lat="50.75871" lon="2.98813">
        <ele>12.941351</ele>
        <time>2022-07-14T07:11:02Z</time>
      </trkpt>
      <trkpt lat="50.759" lon="2.98879">
        <ele>13.110262</ele>
        <time>2022-07-14T07:11:12Z</time>
      </trkpt>
      <trkpt lat="50.75911" lon="2.98907">
        <ele>13.140692</ele>
        <time>2022-07-14T07:11:16Z</time>
      </trkpt>
      <trkpt lat="50.75935" lon="2.98978">
        <ele>13.124437</ele>
        <time>2022-07-14T07:11:26Z</time>
      </trkpt>
      <trkpt lat="50.75955" lon="2.99037">
        <ele>13.056595</ele>
        <time>2022-07-14T07:11:34Z</time>
      </trkpt>
      <trkpt lat="50.75973" lon="2.991">
        <ele>13.003619</ele>
        <time>2022-07-14T07:11:42Z</time>
      </trkpt>
      <trkpt lat="50.75995" lon="2.99177">
        <ele>12.931376</ele>
        <time>2022-07-14T07:11:52Z</time>
      </trkpt>
      <trkpt lat="50.76004" lon="2.99208">
        <ele>12.890417</ele>
        <time>2022-07-14T07:11:56Z</time>
      </trkpt>
      <trkpt lat="50.76024" lon="2.99263">
        <ele>12.867844</ele>
        <time>2022-07-14T07:12:04Z</time>
      </trkpt>
      <trkpt lat="50.76048" lon="2.9933">
        <ele>12.91284</ele>
        <time>2022-07-14T07:12:14Z</time>
      </trkpt>
      <trkpt lat="50.76071" lon="2.99381">
        <ele>12.975743</ele>
        <time>2022-07-14T07:12:22Z</time>
      </trkpt>
      <trkpt lat="50.76102" lon="2.99443">
        <ele>12.988989</ele>
        <time>2022-07-14T07:12:32Z</time>
      </trkpt>
      <trkpt lat="50.76115" lon="2.99467">
        <ele>12.974707</ele>
        <time>2022-07-14T07:12:36Z</time>
      </trkpt>
      <trkpt lat="50.76141" lon="2.99518">
        <ele>12.921573</ele>
        <time>2022-07-14T07:12:44Z</time>
      </trkpt>
      <trkpt lat="50.76177" lon="2.99578">
        <ele>12.784456</ele>
        <time>2022-07-14T07:12:54Z</time>
      </trkpt>
      <trkpt lat="50.76202" lon="2.99621">
        <ele>12.701939</ele>
        <time>2022-07-14T07:13:02Z</time>
      </trkpt>
      <trkpt lat="50.76222" lon="2.99663">
        <ele>12.532001</ele>
        <time>2022-07-14T07:13:16Z</time>
      </trkpt>
      <trkpt lat="50.76231" lon="2.99682">
        <ele>12.215512</ele>
        <time>2022-07-14T07:13:46Z</time>
      </trkpt>
      <trkpt lat="50.76248" lon="2.99725">
        <ele>12.162265</ele>
        <time>2022-07-14T07:13:54Z</time>
      </trkpt>
      <trkpt lat="50.76277" lon="2.99792">
        <ele>12.127488</ele>
        <time>2022-07-14T07:14:04Z</time>
      </trkpt>
      <trkpt lat="50.763" lon="2.9985">
        <ele>12.150181</ele>
        <time>2022-07-14T07:14:12Z</time>
      </trkpt>
      <trkpt lat="50.76322" lon="2.99907">
        <ele>12.223389</ele>
        <time>2022-07-14T07:14:20Z</time>
      </trkpt>
      <trkpt lat="50.7634" lon="2.99956">
        <ele>12.312962</ele>
        <time>2022-07-14T07:14:26Z</time>
      </trkpt>
      <trkpt lat="50.76363" lon="3.00013">
        <ele>12.473177</ele>
        <time>2022-07-14T07:14:34Z</time>
      </trkpt>
      <trkpt lat="50.76387" lon="3.00069">
        <ele>12.660349</ele>
        <time>2022-07-14T07:14:44Z</time>
      </trkpt>
      <trkpt lat="50.76408" lon="3.00125">
        <ele>12.814755</ele>
        <time>2022-07-14T07:14:52Z</time>
      </trkpt>
      <trkpt lat="50.76428" lon="3.00181">
        <ele>12.848061</ele>
        <time>2022-07-14T07:15:00Z</time>
      </trkpt>
      <trkpt lat="50.76444" lon="3.00225">
        <ele>12.798788</ele>
        <time>2022-07-14T07:15:06Z</time>
      </trkpt>
      <trkpt lat="50.76465" lon="3.00284">
        <ele>12.700051</ele>
        <time>2022-07-14T07:15:14Z</time>
      </trkpt>
      <trkpt lat="50.76487" lon="3.00342">
        <ele>12.594964</ele>
        <time>2022-07-14T07:15:22Z</time>
      </trkpt>
      <trkpt lat="50.76515" lon="3.00414">
        <ele>12.591086</ele>
        <time>2022-07-14T07:15:32Z</time>
      </trkpt>
      <trkpt lat="50.7654" lon="3.0047">
        <ele>12.781424</ele>
        <time>2022-07-14T07:15:40Z</time>
      </trkpt>
      <trkpt lat="50.76556" lon="3.00495">
        <ele>13.004854</ele>
        <time>2022-07-14T07:15:44Z</time>
      </trkpt>
      <trkpt lat="50.76593" lon="3.00569">
        <ele>13.548963</ele>
        <time>2022-07-14T07:15:55Z</time>
      </trkpt>
      <trkpt lat="50.76622" lon="3.00617">
        <ele>14.205111</ele>
        <time>2022-07-14T07:16:03Z</time>
      </trkpt>
      <trkpt lat="50.7665" lon="3.00661">
        <ele>16.7162</ele>
        <time>2022-07-14T07:16:48Z</time>
      </trkpt>
      <trkpt lat="50.76674" lon="3.00701">
        <ele>16.850479</ele>
        <time>2022-07-14T07:16:56Z</time>
      </trkpt>
      <trkpt lat="50.76687" lon="3.00725">
        <ele>16.875238</ele>
        <time>2022-07-14T07:17:00Z</time>
      </trkpt>
      <trkpt lat="50.76717" lon="3.00789">
        <ele>16.642025</ele>
        <time>2022-07-14T07:17:10Z</time>
      </trkpt>
      <trkpt lat="50.76735" lon="3.00843">
        <ele>16.212101</ele>
        <time>2022-07-14T07:17:18Z</time>
      </trkpt>
      <trkpt lat="50.76759" lon="3.00872">
        <ele>15.362638</ele>
        <time>2022-07-14T07:17:28Z</time>
      </trkpt>
      <trkpt lat="50.7679" lon="3.00902">
        <ele>14.469419</ele>
        <time>2022-07-14T07:17:36Z</time>
      </trkpt>
      <trkpt lat="50.76804" lon="3.00925">
        <ele>14.023405</ele>
        <time>2022-07-14T07:17:40Z</time>
      </trkpt>
      <trkpt lat="50.76839" lon="3.00985">
        <ele>12.817198</ele>
        <time>2022-07-14T07:17:50Z</time>
      </trkpt>
      <trkpt lat="50.76865" lon="3.01045">
        <ele>12.132602</ele>
        <time>2022-07-14T07:17:58Z</time>
      </trkpt>
      <trkpt lat="50.76894" lon="3.01106">
        <ele>11.681185</ele>
        <time>2022-07-14T07:18:06Z</time>
      </trkpt>
      <trkpt lat="50.76929" lon="3.01182">
        <ele>11.484465</ele>
        <time>2022-07-14T07:18:16Z</time>
      </trkpt>
      <trkpt lat="50.76943" lon="3.01212">
        <ele>11.436366</ele>
        <time>2022-07-14T07:18:20Z</time>
      </trkpt>
      <trkpt lat="50.76968" lon="3.01271">
        <ele>11.371706</ele>
        <time>2022-07-14T07:18:30Z</time>
      </trkpt>
      <trkpt lat="50.76941" lon="3.01306">
        <ele>11.362636</ele>
        <time>2022-07-14T07:18:38Z</time>
      </trkpt>
      <trkpt lat="50.769" lon="3.01312">
        <ele>11.363611</ele>
        <time>2022-07-14T07:18:46Z</time>
      </trkpt>
      <trkpt lat="50.76887" lon="3.01334">
        <ele>11.432297</ele>
        <time>2022-07-14T07:18:56Z</time>
      </trkpt>
      <trkpt lat="50.76899" lon="3.01342">
        <ele>11.503649</ele>
        <time>2022-07-14T07:19:00Z</time>
      </trkpt>
      <trkpt lat="50.76937" lon="3.0134">
        <ele>11.725451</ele>
        <time>2022-07-14T07:19:08Z</time>
      </trkpt>
      <trkpt lat="50.76981" lon="3.01361">
        <ele>12.058617</ele>
        <time>2022-07-14T07:19:18Z</time>
      </trkpt>
      <trkpt lat="50.77015" lon="3.01404">
        <ele>12.276762</ele>
        <time>2022-07-14T07:19:26Z</time>
      </trkpt>
      <trkpt lat="50.77057" lon="3.01459">
        <ele>12.37007</ele>
        <time>2022-07-14T07:19:36Z</time>
      </trkpt>
      <trkpt lat="50.77074" lon="3.0148">
        <ele>12.372619</ele>
        <time>2022-07-14T07:19:40Z</time>
      </trkpt>
      <trkpt lat="50.77108" lon="3.01523">
        <ele>12.352953</ele>
        <time>2022-07-14T07:19:48Z</time>
      </trkpt>
      <trkpt lat="50.77152" lon="3.01579">
        <ele>12.310717</ele>
        <time>2022-07-14T07:19:58Z</time>
      </trkpt>
      <trkpt lat="50.77185" lon="3.01623">
        <ele>12.291528</ele>
        <time>2022-07-14T07:20:06Z</time>
      </trkpt>
      <trkpt lat="50.77218" lon="3.0169">
        <ele>12.27174</ele>
        <time>2022-07-14T07:20:16Z</time>
      </trkpt>
      <trkpt lat="50.7723" lon="3.01718">
        <ele>12.252799</ele>
        <time>2022-07-14T07:20:20Z</time>
      </trkpt>
      <trkpt lat="50.77256" lon="3.0178">
        <ele>12.16543</ele>
        <time>2022-07-14T07:20:28Z</time>
      </trkpt>
      <trkpt lat="50.77273" lon="3.01869">
        <ele>12.055588</ele>
        <time>2022-07-14T07:20:38Z</time>
      </trkpt>
      <trkpt lat="50.77296" lon="3.01926">
        <ele>11.965689</ele>
        <time>2022-07-14T07:20:46Z</time>
      </trkpt>
      <trkpt lat="50.77311" lon="3.01996">
        <ele>11.89773</ele>
        <time>2022-07-14T07:20:54Z</time>
      </trkpt>
      <trkpt lat="50.7732" lon="3.02045">
        <ele>11.848764</ele>
        <time>2022-07-14T07:21:00Z</time>
      </trkpt>
      <trkpt lat="50.77329" lon="3.02115">
        <ele>11.763022</ele>
        <time>2022-07-14T07:21:08Z</time>
      </trkpt>
      <trkpt lat="50.77339" lon="3.02206">
        <ele>11.570196</ele>
        <time>2022-07-14T07:21:18Z</time>
      </trkpt>
      <trkpt lat="50.77343" lon="3.02278">
        <ele>11.348086</ele>
        <time>2022-07-14T07:21:26Z</time>
      </trkpt>
      <trkpt lat="50.77347" lon="3.0235">
        <ele>11.130068</ele>
        <time>2022-07-14T07:21:34Z</time>
      </trkpt>
      <trkpt lat="50.77349" lon="3.02404">
        <ele>11.025383</ele>
        <time>2022-07-14T07:21:40Z</time>
      </trkpt>
      <trkpt lat="50.7735" lon="3.02476">
        <ele>10.989566</ele>
        <time>2022-07-14T07:21:48Z</time>
      </trkpt>
      <trkpt lat="50.77347" lon="3.0255">
        <ele>11.084105</ele>
        <time>2022-07-14T07:21:56Z</time>
      </trkpt>
      <trkpt lat="50.77342" lon="3.02641">
        <ele>11.404668</ele>
        <time>2022-07-14T07:22:06Z</time>
      </trkpt>
      <trkpt lat="50.77339" lon="3.02713">
        <ele>11.963932</ele>
        <time>2022-07-14T07:22:14Z</time>
      </trkpt>
      <trkpt lat="50.77338" lon="3.0275">
        <ele>12.22035</ele>
        <time>2022-07-14T07:22:18Z</time>
      </trkpt>
      <trkpt lat="50.77336" lon="3.02842">
        <ele>12.832128</ele>
        <time>2022-07-14T07:22:28Z</time>
      </trkpt>
      <trkpt lat="50.77337" lon="3.02915">
        <ele>13.214495</ele>
        <time>2022-07-14T07:22:36Z</time>
      </trkpt>
      <trkpt lat="50.77341" lon="3.03004">
        <ele>13.604425</ele>
        <time>2022-07-14T07:22:46Z</time>
      </trkpt>
      <trkpt lat="50.77345" lon="3.03074">
        <ele>13.815015</ele>
        <time>2022-07-14T07:22:54Z</time>
      </trkpt>
      <trkpt lat="50.77346" lon="3.03107">
        <ele>13.857274</ele>
        <time>2022-07-14T07:22:58Z</time>
      </trkpt>
      <trkpt lat="50.77359" lon="3.03195">
        <ele>13.880964</ele>
        <time>2022-07-14T07:23:08Z</time>
      </trkpt>
      <trkpt lat="50.7737" lon="3.03263">
        <ele>13.856404</ele>
        <time>2022-07-14T07:23:16Z</time>
      </trkpt>
      <trkpt lat="50.77384" lon="3.03341">
        <ele>13.781309</ele>
        <time>2022-07-14T07:23:26Z</time>
      </trkpt>
      <trkpt lat="50.77401" lon="3.03401">
        <ele>13.644976</ele>
        <time>2022-07-14T07:23:34Z</time>
      </trkpt>
      <trkpt lat="50.77395" lon="3.03419">
        <ele>13.541842</ele>
        <time>2022-07-14T07:23:38Z</time>
      </trkpt>
      <trkpt lat="50.77373" lon="3.03436">
        <ele>13.128039</ele>
        <time>2022-07-14T07:23:48Z</time>
      </trkpt>
      <trkpt lat="50.77371" lon="3.03451">
        <ele>12.701101</ele>
        <time>2022-07-14T07:23:56Z</time>
      </trkpt>
      <trkpt lat="50.77387" lon="3.0344">
        <ele>12.423464</ele>
        <time>2022-07-14T07:24:04Z</time>
      </trkpt>
      <trkpt lat="50.77414" lon="3.03427">
        <ele>12.03531</ele>
        <time>2022-07-14T07:24:14Z</time>
      </trkpt>
      <trkpt lat="50.77426" lon="3.03421">
        <ele>11.877257</ele>
        <time>2022-07-14T07:24:18Z</time>
      </trkpt>
      <trkpt lat="50.77469" lon="3.03403">
        <ele>11.51363</ele>
        <time>2022-07-14T07:24:28Z</time>
      </trkpt>
      <trkpt lat="50.77488" lon="3.03441">
        <ele>11.318323</ele>
        <time>2022-07-14T07:24:36Z</time>
      </trkpt>
      <trkpt lat="50.77502" lon="3.03506">
        <ele>11.170535</ele>
        <time>2022-07-14T07:24:44Z</time>
      </trkpt>
      <trkpt lat="50.77517" lon="3.03582">
        <ele>10.990973</ele>
        <time>2022-07-14T07:24:54Z</time>
      </trkpt>
      <trkpt lat="50.77516" lon="3.03589">
        <ele>10.976808</ele>
        <time>2022-07-14T07:24:58Z</time>
      </trkpt>
      <trkpt lat="50.77527" lon="3.03631">
        <ele>11.052052</ele>
        <time>2022-07-14T07:25:06Z</time>
      </trkpt>
      <trkpt lat="50.77544" lon="3.03704">
        <ele>11.386372</ele>
        <time>2022-07-14T07:25:16Z</time>
      </trkpt>
      <trkpt lat="50.77561" lon="3.03766">
        <ele>11.726665</ele>
        <time>2022-07-14T07:25:24Z</time>
      </trkpt>
      <trkpt lat="50.7758" lon="3.03847">
        <ele>12.209558</ele>
        <time>2022-07-14T07:25:34Z</time>
      </trkpt>
      <trkpt lat="50.77589" lon="3.03881">
        <ele>12.380637</ele>
        <time>2022-07-14T07:25:38Z</time>
      </trkpt>
      <trkpt lat="50.77605" lon="3.03947">
        <ele>12.66704</ele>
        <time>2022-07-14T07:25:46Z</time>
      </trkpt>
      <trkpt lat="50.77609" lon="3.04013">
        <ele>12.687367</ele>
        <time>2022-07-14T07:25:56Z</time>
      </trkpt>
      <trkpt lat="50.77623" lon="3.04073">
        <ele>12.506876</ele>
        <time>2022-07-14T07:26:04Z</time>
      </trkpt>
      <trkpt lat="50.77643" lon="3.04153">
        <ele>12.212799</ele>
        <time>2022-07-14T07:26:14Z</time>
      </trkpt>
      <trkpt lat="50.77652" lon="3.04186">
        <ele>12.096769</ele>
        <time>2022-07-14T07:26:18Z</time>
      </trkpt>
      <trkpt lat="50.77668" lon="3.04249">
        <ele>12.051009</ele>
        <time>2022-07-14T07:26:26Z</time>
      </trkpt>
      <trkpt lat="50.77684" lon="3.04314">
        <ele>12.353201</ele>
        <time>2022-07-14T07:26:36Z</time>
      </trkpt>
      <trkpt lat="50.77702" lon="3.04378">
        <ele>12.797988</ele>
        <time>2022-07-14T07:26:44Z</time>
      </trkpt>
      <trkpt lat="50.77725" lon="3.04437">
        <ele>13.335614</ele>
        <time>2022-07-14T07:26:52Z</time>
      </trkpt>
      <trkpt lat="50.77748" lon="3.04522">
        <ele>13.901418</ele>
        <time>2022-07-14T07:27:02Z</time>
      </trkpt>
      <trkpt lat="50.77757" lon="3.04557">
        <ele>13.983389</ele>
        <time>2022-07-14T07:27:06Z</time>
      </trkpt>
      <trkpt lat="50.77779" lon="3.04644">
        <ele>14.012622</ele>
        <time>2022-07-14T07:27:16Z</time>
      </trkpt>
      <trkpt lat="50.77796" lon="3.04712">
        <ele>13.65596</ele>
        <time>2022-07-14T07:27:24Z</time>
      </trkpt>
      <trkpt lat="50.77814" lon="3.0478">
        <ele>13.185751</ele>
        <time>2022-07-14T07:27:32Z</time>
      </trkpt>
      <trkpt lat="50.77828" lon="3.04867">
        <ele>12.557886</ele>
        <time>2022-07-14T07:27:42Z</time>
      </trkpt>
      <trkpt lat="50.77837" lon="3.049">
        <ele>12.355479</ele>
        <time>2022-07-14T07:27:46Z</time>
      </trkpt>
      <trkpt lat="50.77854" lon="3.04967">
        <ele>12.017183</ele>
        <time>2022-07-14T07:27:54Z</time>
      </trkpt>
      <trkpt lat="50.77892" lon="3.05027">
        <ele>11.884211</ele>
        <time>2022-07-14T07:28:04Z</time>
      </trkpt>
      <trkpt lat="50.77929" lon="3.05063">
        <ele>11.894758</ele>
        <time>2022-07-14T07:28:12Z</time>
      </trkpt>
      <trkpt lat="50.77963" lon="3.05118">
        <ele>11.965889</ele>
        <time>2022-07-14T07:28:23Z</time>
      </trkpt>
      <trkpt lat="50.77976" lon="3.05146">
        <ele>11.979251</ele>
        <time>2022-07-14T07:28:27Z</time>
      </trkpt>
      <trkpt lat="50.78" lon="3.05209">
        <ele>12.018074</ele>
        <time>2022-07-14T07:28:35Z</time>
      </trkpt>
      <trkpt lat="50.7802" lon="3.05284">
        <ele>12.119619</ele>
        <time>2022-07-14T07:28:45Z</time>
      </trkpt>
      <trkpt lat="50.78036" lon="3.05346">
        <ele>12.180806</ele>
        <time>2022-07-14T07:28:53Z</time>
      </trkpt>
      <trkpt lat="50.78052" lon="3.05435">
        <ele>12.235854</ele>
        <time>2022-07-14T07:29:03Z</time>
      </trkpt>
      <trkpt lat="50.78059" lon="3.0547">
        <ele>12.250097</ele>
        <time>2022-07-14T07:29:07Z</time>
      </trkpt>
      <trkpt lat="50.78069" lon="3.05541">
        <ele>12.253199</ele>
        <time>2022-07-14T07:29:15Z</time>
      </trkpt>
      <trkpt lat="50.78082" lon="3.05627">
        <ele>12.162649</ele>
        <time>2022-07-14T07:29:25Z</time>
      </trkpt>
      <trkpt lat="50.78088" lon="3.05679">
        <ele>11.994241</ele>
        <time>2022-07-14T07:29:33Z</time>
      </trkpt>
      <trkpt lat="50.78094" lon="3.05739">
        <ele>11.778578</ele>
        <time>2022-07-14T07:29:41Z</time>
      </trkpt>
      <trkpt lat="50.78096" lon="3.0579">
        <ele>11.629366</ele>
        <time>2022-07-14T07:29:47Z</time>
      </trkpt>
      <trkpt lat="50.78096" lon="3.05862">
        <ele>11.483568</ele>
        <time>2022-07-14T07:29:55Z</time>
      </trkpt>
      <trkpt lat="50.78096" lon="3.05935">
        <ele>11.469088</ele>
        <time>2022-07-14T07:30:03Z</time>
      </trkpt>
      <trkpt lat="50.78095" lon="3.06028">
        <ele>11.607672</ele>
        <time>2022-07-14T07:30:13Z</time>
      </trkpt>
      <trkpt lat="50.78086" lon="3.06102">
        <ele>11.823736</ele>
        <time>2022-07-14T07:30:21Z</time>
      </trkpt>
      <trkpt lat="50.78073" lon="3.06156">
        <ele>11.915929</ele>
        <time>2022-07-14T07:30:27Z</time>
      </trkpt>
      <trkpt lat="50.78045" lon="3.06219">
        <ele>11.897791</ele>
        <time>2022-07-14T07:30:35Z</time>
      </trkpt>
      <trkpt lat="50.7802" lon="3.06284">
        <ele>11.62691</ele>
        <time>2022-07-14T07:30:43Z</time>
      </trkpt>
      <trkpt lat="50.77992" lon="3.06366">
        <ele>10.851749</ele>
        <time>2022-07-14T07:30:53Z</time>
      </trkpt>
      <trkpt lat="50.77968" lon="3.06432">
        <ele>10.106508</ele>
        <time>2022-07-14T07:31:01Z</time>
      </trkpt>
      <trkpt lat="50.77958" lon="3.06467">
        <ele>9.710394</ele>
        <time>2022-07-14T07:31:05Z</time>
      </trkpt>
      <trkpt lat="50.77938" lon="3.06554">
        <ele>8.81433</ele>
        <time>2022-07-14T07:31:15Z</time>
      </trkpt>
      <trkpt lat="50.77922" lon="3.06623">
        <ele>8.151907</ele>
        <time>2022-07-14T07:31:23Z</time>
      </trkpt>
      <trkpt lat="50.77897" lon="3.06707">
        <ele>7.841271</ele>
        <time>2022-07-14T07:31:33Z</time>
      </trkpt>
      <trkpt lat="50.77874" lon="3.06774">
        <ele>7.861876</ele>
        <time>2022-07-14T07:31:41Z</time>
      </trkpt>
      <trkpt lat="50.77863" lon="3.06806">
        <ele>7.925874</ele>
        <time>2022-07-14T07:31:45Z</time>
      </trkpt>
      <trkpt lat="50.77833" lon="3.06889">
        <ele>8.086676</ele>
        <time>2022-07-14T07:31:55Z</time>
      </trkpt>
      <trkpt lat="50.77811" lon="3.06952">
        <ele>8.207323</ele>
        <time>2022-07-14T07:32:03Z</time>
      </trkpt>
      <trkpt lat="50.7778" lon="3.07038">
        <ele>8.4937</ele>
        <time>2022-07-14T07:32:13Z</time>
      </trkpt>
      <trkpt lat="50.77755" lon="3.07107">
        <ele>8.794279</ele>
        <time>2022-07-14T07:32:21Z</time>
      </trkpt>
      <trkpt lat="50.77743" lon="3.0714">
        <ele>8.95432</ele>
        <time>2022-07-14T07:32:25Z</time>
      </trkpt>
      <trkpt lat="50.77712" lon="3.07221">
        <ele>9.311934</ele>
        <time>2022-07-14T07:32:35Z</time>
      </trkpt>
      <trkpt lat="50.77689" lon="3.07286">
        <ele>9.571005</ele>
        <time>2022-07-14T07:32:43Z</time>
      </trkpt>
      <trkpt lat="50.77664" lon="3.0735">
        <ele>9.862132</ele>
        <time>2022-07-14T07:32:51Z</time>
      </trkpt>
      <trkpt lat="50.77634" lon="3.0743">
        <ele>10.120779</ele>
        <time>2022-07-14T07:33:01Z</time>
      </trkpt>
      <trkpt lat="50.77623" lon="3.07462">
        <ele>10.185877</ele>
        <time>2022-07-14T07:33:05Z</time>
      </trkpt>
      <trkpt lat="50.77597" lon="3.07542">
        <ele>10.159783</ele>
        <time>2022-07-14T07:33:15Z</time>
      </trkpt>
      <trkpt lat="50.77577" lon="3.07604">
        <ele>9.954719</ele>
        <time>2022-07-14T07:33:23Z</time>
      </trkpt>
      <trkpt lat="50.77559" lon="3.0767">
        <ele>9.73478</ele>
        <time>2022-07-14T07:33:31Z</time>
      </trkpt>
      <trkpt lat="50.77541" lon="3.07754">
        <ele>9.708754</ele>
        <time>2022-07-14T07:33:41Z</time>
      </trkpt>
      <trkpt lat="50.77534" lon="3.07788">
        <ele>9.774736</ele>
        <time>2022-07-14T07:33:45Z</time>
      </trkpt>
      <trkpt lat="50.77523" lon="3.07856">
        <ele>9.99122</ele>
        <time>2022-07-14T07:33:53Z</time>
      </trkpt>
      <trkpt lat="50.77509" lon="3.07942">
        <ele>10.203163</ele>
        <time>2022-07-14T07:34:03Z</time>
      </trkpt>
      <trkpt lat="50.77502" lon="3.08013">
        <ele>10.517454</ele>
        <time>2022-07-14T07:34:11Z</time>
      </trkpt>
      <trkpt lat="50.77494" lon="3.08101">
        <ele>10.872366</ele>
        <time>2022-07-14T07:34:21Z</time>
      </trkpt>
      <trkpt lat="50.77491" lon="3.08137">
        <ele>10.994</ele>
        <time>2022-07-14T07:34:25Z</time>
      </trkpt>
      <trkpt lat="50.77488" lon="3.08209">
        <ele>11.113335</ele>
        <time>2022-07-14T07:34:33Z</time>
      </trkpt>
      <trkpt lat="50.77488" lon="3.08299">
        <ele>11.027575</ele>
        <time>2022-07-14T07:34:43Z</time>
      </trkpt>
      <trkpt lat="50.77489" lon="3.08371">
        <ele>10.884662</ele>
        <time>2022-07-14T07:34:51Z</time>
      </trkpt>
      <trkpt lat="50.77494" lon="3.08462">
        <ele>10.755981</ele>
        <time>2022-07-14T07:35:01Z</time>
      </trkpt>
      <trkpt lat="50.77496" lon="3.08498">
        <ele>10.723636</ele>
        <time>2022-07-14T07:35:05Z</time>
      </trkpt>
      <trkpt lat="50.77504" lon="3.08567">
        <ele>10.692564</ele>
        <time>2022-07-14T07:35:13Z</time>
      </trkpt>
      <trkpt lat="50.77515" lon="3.08654">
        <ele>10.667711</ele>
        <time>2022-07-14T07:35:23Z</time>
      </trkpt>
      <trkpt lat="50.77525" lon="3.08724">
        <ele>10.627874</ele>
        <time>2022-07-14T07:35:31Z</time>
      </trkpt>
      <trkpt lat="50.77538" lon="3.08793">
        <ele>10.566297</ele>
        <time>2022-07-14T07:35:39Z</time>
      </trkpt>
      <trkpt lat="50.77549" lon="3.08844">
        <ele>10.512987</ele>
        <time>2022-07-14T07:35:45Z</time>
      </trkpt>
      <trkpt lat="50.77566" lon="3.0891">
        <ele>10.412303</ele>
        <time>2022-07-14T07:35:53Z</time>
      </trkpt>
      <trkpt lat="50.77583" lon="3.08977">
        <ele>10.320797</ele>
        <time>2022-07-14T07:36:01Z</time>
      </trkpt>
      <trkpt lat="50.7761" lon="3.09054">
        <ele>10.280635</ele>
        <time>2022-07-14T07:36:11Z</time>
      </trkpt>
      <trkpt lat="50.77631" lon="3.09114">
        <ele>10.298451</ele>
        <time>2022-07-14T07:36:19Z</time>
      </trkpt>
      <trkpt lat="50.77649" lon="3.09158">
        <ele>10.321015</ele>
        <time>2022-07-14T07:36:25Z</time>
      </trkpt>
      <trkpt lat="50.77672" lon="3.09218">
        <ele>10.321518</ele>
        <time>2022-07-14T07:36:33Z</time>
      </trkpt>
      <trkpt lat="50.777" lon="3.09278">
        <ele>10.274648</ele>
        <time>2022-07-14T07:36:41Z</time>
      </trkpt>
      <trkpt lat="50.77735" lon="3.09351">
        <ele>10.149791</ele>
        <time>2022-07-14T07:36:51Z</time>
      </trkpt>
      <trkpt lat="50.77765" lon="3.09407">
        <ele>9.899734</ele>
        <time>2022-07-14T07:36:59Z</time>
      </trkpt>
      <trkpt lat="50.77779" lon="3.09436">
        <ele>9.771169</ele>
        <time>2022-07-14T07:37:03Z</time>
      </trkpt>
      <trkpt lat="50.77817" lon="3.09512">
        <ele>9.466688</ele>
        <time>2022-07-14T07:37:13Z</time>
      </trkpt>
      <trkpt lat="50.77848" lon="3.09572">
        <ele>9.215066</ele>
        <time>2022-07-14T07:37:21Z</time>
      </trkpt>
      <trkpt lat="50.77886" lon="3.09645">
        <ele>9.064926</ele>
        <time>2022-07-14T07:37:31Z</time>
      </trkpt>
      <trkpt lat="50.77916" lon="3.09703">
        <ele>9.036928</ele>
        <time>2022-07-14T07:37:39Z</time>
      </trkpt>
      <trkpt lat="50.77931" lon="3.0973">
        <ele>9.047009</ele>
        <time>2022-07-14T07:37:43Z</time>
      </trkpt>
      <trkpt lat="50.77966" lon="3.09799">
        <ele>9.085367</ele>
        <time>2022-07-14T07:37:53Z</time>
      </trkpt>
      <trkpt lat="50.77996" lon="3.09853">
        <ele>9.042027</ele>
        <time>2022-07-14T07:38:01Z</time>
      </trkpt>
      <trkpt lat="50.78035" lon="3.09924">
        <ele>8.874023</ele>
        <time>2022-07-14T07:38:11Z</time>
      </trkpt>
      <trkpt lat="50.78065" lon="3.09983">
        <ele>8.797556</ele>
        <time>2022-07-14T07:38:19Z</time>
      </trkpt>
      <trkpt lat="50.7808" lon="3.10011">
        <ele>8.77376</ele>
        <time>2022-07-14T07:38:23Z</time>
      </trkpt>
      <trkpt lat="50.78116" lon="3.10081">
        <ele>8.722266</ele>
        <time>2022-07-14T07:38:33Z</time>
      </trkpt>
      <trkpt lat="50.78145" lon="3.1014">
        <ele>8.790271</ele>
        <time>2022-07-14T07:38:41Z</time>
      </trkpt>
      <trkpt lat="50.78172" lon="3.10199">
        <ele>8.952032</ele>
        <time>2022-07-14T07:38:49Z</time>
      </trkpt>
      <trkpt lat="50.78207" lon="3.10272">
        <ele>9.21353</ele>
        <time>2022-07-14T07:38:59Z</time>
      </trkpt>
      <trkpt lat="50.78221" lon="3.10299">
        <ele>9.320594</ele>
        <time>2022-07-14T07:39:03Z</time>
      </trkpt>
      <trkpt lat="50.78256" lon="3.10364">
        <ele>9.532579</ele>
        <time>2022-07-14T07:39:13Z</time>
      </trkpt>
      <trkpt lat="50.7829" lon="3.10415">
        <ele>9.672634</ele>
        <time>2022-07-14T07:39:21Z</time>
      </trkpt>
      <trkpt lat="50.78326" lon="3.10469">
        <ele>9.740842</ele>
        <time>2022-07-14T07:39:29Z</time>
      </trkpt>
      <trkpt lat="50.78369" lon="3.10535">
        <ele>9.946161</ele>
        <time>2022-07-14T07:39:39Z</time>
      </trkpt>
      <trkpt lat="50.78387" lon="3.10561">
        <ele>10.111201</ele>
        <time>2022-07-14T07:39:43Z</time>
      </trkpt>
      <trkpt lat="50.78425" lon="3.10602">
        <ele>10.617754</ele>
        <time>2022-07-14T07:39:51Z</time>
      </trkpt>
      <trkpt lat="50.78472" lon="3.10648">
        <ele>11.238164</ele>
        <time>2022-07-14T07:40:01Z</time>
      </trkpt>
      <trkpt lat="50.78508" lon="3.10685">
        <ele>11.672971</ele>
        <time>2022-07-14T07:40:09Z</time>
      </trkpt>
      <trkpt lat="50.78559" lon="3.10724">
        <ele>12.219902</ele>
        <time>2022-07-14T07:40:19Z</time>
      </trkpt>
      <trkpt lat="50.78582" lon="3.1072">
        <ele>12.385581</ele>
        <time>2022-07-14T07:40:23Z</time>
      </trkpt>
      <trkpt lat="50.78623" lon="3.10694">
        <ele>12.566451</ele>
        <time>2022-07-14T07:40:31Z</time>
      </trkpt>
      <trkpt lat="50.78649" lon="3.10622">
        <ele>12.50288</ele>
        <time>2022-07-14T07:40:41Z</time>
      </trkpt>
      <trkpt lat="50.78669" lon="3.10568">
        <ele>12.399453</ele>
        <time>2022-07-14T07:40:49Z</time>
      </trkpt>
      <trkpt lat="50.78701" lon="3.10504">
        <ele>12.464418</ele>
        <time>2022-07-14T07:40:59Z</time>
      </trkpt>
      <trkpt lat="50.78714" lon="3.10479">
        <ele>12.573751</ele>
        <time>2022-07-14T07:41:03Z</time>
      </trkpt>
      <trkpt lat="50.78746" lon="3.10413">
        <ele>17</ele>
        <time>2022-07-14T07:41:11Z</time>
      </trkpt>
      <trkpt lat="50.78782" lon="3.10458">
        <ele>13.646791</ele>
        <time>2022-07-14T07:41:21Z</time>
      </trkpt>
      <trkpt lat="50.78821" lon="3.10491">
        <ele>14.212027</ele>
        <time>2022-07-14T07:41:29Z</time>
      </trkpt>
      <trkpt lat="50.78866" lon="3.10517">
        <ele>14.710912</ele>
        <time>2022-07-14T07:41:37Z</time>
      </trkpt>
      <trkpt lat="50.78898" lon="3.10535">
        <ele>15.017607</ele>
        <time>2022-07-14T07:41:43Z</time>
      </trkpt>
      <trkpt lat="50.7894" lon="3.10557">
        <ele>15.185399</ele>
        <time>2022-07-14T07:41:51Z</time>
      </trkpt>
      <trkpt lat="50.78982" lon="3.10581">
        <ele>15.142423</ele>
        <time>2022-07-14T07:41:59Z</time>
      </trkpt>
      <trkpt lat="50.79035" lon="3.1061">
        <ele>14.807521</ele>
        <time>2022-07-14T07:42:09Z</time>
      </trkpt>
      <trkpt lat="50.79076" lon="3.10637">
        <ele>14.475206</ele>
        <time>2022-07-14T07:42:17Z</time>
      </trkpt>
      <trkpt lat="50.79107" lon="3.10658">
        <ele>14.193835</ele>
        <time>2022-07-14T07:42:23Z</time>
      </trkpt>
      <trkpt lat="50.79146" lon="3.10684">
        <ele>13.878673</ele>
        <time>2022-07-14T07:42:31Z</time>
      </trkpt>
      <trkpt lat="50.79161" lon="3.10706">
        <ele>13.584002</ele>
        <time>2022-07-14T07:42:39Z</time>
      </trkpt>
      <trkpt lat="50.7913" lon="3.10745">
        <ele>13.349539</ele>
        <time>2022-07-14T07:42:49Z</time>
      </trkpt>
      <trkpt lat="50.791" lon="3.10808">
        <ele>13.203532</ele>
        <time>2022-07-14T07:42:57Z</time>
      </trkpt>
      <trkpt lat="50.79096" lon="3.10834">
        <ele>13.142792</ele>
        <time>2022-07-14T07:43:01Z</time>
      </trkpt>
      <trkpt lat="50.79142" lon="3.10859">
        <ele>13.035202</ele>
        <time>2022-07-14T07:43:11Z</time>
      </trkpt>
      <trkpt lat="50.79184" lon="3.10881">
        <ele>13.007521</ele>
        <time>2022-07-14T07:43:19Z</time>
      </trkpt>
      <trkpt lat="50.79234" lon="3.10908">
        <ele>13.010687</ele>
        <time>2022-07-14T07:43:29Z</time>
      </trkpt>
      <trkpt lat="50.79277" lon="3.10934">
        <ele>13.083204</ele>
        <time>2022-07-14T07:43:37Z</time>
      </trkpt>
      <trkpt lat="50.79298" lon="3.10948">
        <ele>13.130373</ele>
        <time>2022-07-14T07:43:41Z</time>
      </trkpt>
      <trkpt lat="50.79351" lon="3.10988">
        <ele>13.198059</ele>
        <time>2022-07-14T07:43:51Z</time>
      </trkpt>
      <trkpt lat="50.7939" lon="3.11027">
        <ele>13.131001</ele>
        <time>2022-07-14T07:43:59Z</time>
      </trkpt>
      <trkpt lat="50.79428" lon="3.11099">
        <ele>12.977057</ele>
        <time>2022-07-14T07:44:09Z</time>
      </trkpt>
      <trkpt lat="50.79451" lon="3.11163">
        <ele>12.784796</ele>
        <time>2022-07-14T07:44:17Z</time>
      </trkpt>
      <trkpt lat="50.7946" lon="3.11198">
        <ele>12.677846</ele>
        <time>2022-07-14T07:44:21Z</time>
      </trkpt>
      <trkpt lat="50.79476" lon="3.11276">
        <ele>12.358118</ele>
        <time>2022-07-14T07:44:31Z</time>
      </trkpt>
      <trkpt lat="50.79481" lon="3.11318">
        <ele>12.15212</ele>
        <time>2022-07-14T07:44:39Z</time>
      </trkpt>
      <trkpt lat="50.7948" lon="3.11376">
        <ele>12.047022</ele>
        <time>2022-07-14T07:44:47Z</time>
      </trkpt>
      <trkpt lat="50.79463" lon="3.11469">
        <ele>12.010143</ele>
        <time>2022-07-14T07:44:57Z</time>
      </trkpt>
      <trkpt lat="50.79454" lon="3.11503">
        <ele>12.012408</ele>
        <time>2022-07-14T07:45:01Z</time>
      </trkpt>
      <trkpt lat="50.7942" lon="3.11583">
        <ele>12.061535</ele>
        <time>2022-07-14T07:45:11Z</time>
      </trkpt>
      <trkpt lat="50.79388" lon="3.11643">
        <ele>12.091978</ele>
        <time>2022-07-14T07:45:19Z</time>
      </trkpt>
      <trkpt lat="50.79355" lon="3.11703">
        <ele>12.088516</ele>
        <time>2022-07-14T07:45:27Z</time>
      </trkpt>
      <trkpt lat="50.79316" lon="3.11777">
        <ele>12.012045</ele>
        <time>2022-07-14T07:45:37Z</time>
      </trkpt>
      <trkpt lat="50.79302" lon="3.11805">
        <ele>11.948946</ele>
        <time>2022-07-14T07:45:41Z</time>
      </trkpt>
      <trkpt lat="50.7927" lon="3.11863">
        <ele>11.780226</ele>
        <time>2022-07-14T07:45:49Z</time>
      </trkpt>
      <trkpt lat="50.7923" lon="3.11934">
        <ele>11.487671</ele>
        <time>2022-07-14T07:45:59Z</time>
      </trkpt>
      <trkpt lat="50.79204" lon="3.11985">
        <ele>11.195677</ele>
        <time>2022-07-14T07:46:07Z</time>
      </trkpt>
      <trkpt lat="50.79168" lon="3.12052">
        <ele>10.735572</ele>
        <time>2022-07-14T07:46:17Z</time>
      </trkpt>
      <trkpt lat="50.79155" lon="3.1208">
        <ele>10.489605</ele>
        <time>2022-07-14T07:46:21Z</time>
      </trkpt>
      <trkpt lat="50.79127" lon="3.12133">
        <ele>9.975105</ele>
        <time>2022-07-14T07:46:29Z</time>
      </trkpt>
      <trkpt lat="50.79096" lon="3.12211">
        <ele>9.423378</ele>
        <time>2022-07-14T07:46:39Z</time>
      </trkpt>
      <trkpt lat="50.79077" lon="3.12279">
        <ele>9.221076</ele>
        <time>2022-07-14T07:46:47Z</time>
      </trkpt>
      <trkpt lat="50.79066" lon="3.12369">
        <ele>9.276898</ele>
        <time>2022-07-14T07:46:57Z</time>
      </trkpt>
      <trkpt lat="50.79068" lon="3.12401">
        <ele>9.387816</ele>
        <time>2022-07-14T07:47:01Z</time>
      </trkpt>
      <trkpt lat="50.7907" lon="3.12433">
        <ele>14</ele>
      </trkpt>
      <trkpt lat="50.7908" lon="3.12469">
        <ele>14</ele>
        <time>2022-07-14T07:47:09Z</time>
      </trkpt>
      <trkpt lat="50.79101" lon="3.12533">
        <ele>14</ele>
        <time>2022-07-14T07:47:19Z</time>
      </trkpt>
      <trkpt lat="50.79114" lon="3.12565">
        <ele>13</ele>
        <time>2022-07-14T07:47:27Z</time>
      </trkpt>
      <trkpt lat="50.7912" lon="3.12555">
        <ele>11.146111</ele>
        <time>2022-07-14T07:50:33Z</time>
      </trkpt>
      <trkpt lat="50.79104" lon="3.12504">
        <ele>11.446361</ele>
        <time>2022-07-14T07:50:43Z</time>
      </trkpt>
      <trkpt lat="50.79098" lon="3.12489">
        <ele>14.8</ele>
        <time>2022-07-14T07:51:07Z</time>
      </trkpt>
      <trkpt lat="50.79052" lon="3.12533">
        <ele>16</ele>
        <time>2022-07-14T07:51:22Z</time>
      </trkpt>
      <trkpt lat="50.79096" lon="3.12655">
        <ele>12.255926</ele>
        <time>2022-07-14T07:51:35Z</time>
      </trkpt>
      <trkpt lat="50.79111" lon="3.12737">
        <ele>12.277257</ele>
        <time>2022-07-14T07:51:44Z</time>
      </trkpt>
      <trkpt lat="50.79125" lon="3.12824">
        <ele>12.261363</ele>
        <time>2022-07-14T07:51:54Z</time>
      </trkpt>
      <trkpt lat="50.79144" lon="3.12928">
        <ele>12.124691</ele>
        <time>2022-07-14T07:52:07Z</time>
      </trkpt>
      <trkpt lat="50.79176" lon="3.13037">
        <ele>11.936832</ele>
        <time>2022-07-14T07:52:22Z</time>
      </trkpt>
      <trkpt lat="50.79224" lon="3.1317">
        <ele>11.683708</ele>
        <time>2022-07-14T07:52:40Z</time>
      </trkpt>
      <trkpt lat="50.79234" lon="3.13197">
        <ele>11.525067</ele>
        <time>2022-07-14T07:52:44Z</time>
      </trkpt>
      <trkpt lat="50.79249" lon="3.13299">
        <ele>11.044806</ele>
        <time>2022-07-14T07:52:54Z</time>
      </trkpt>
      <trkpt lat="50.79267" lon="3.13369">
        <ele>12.7</ele>
        <time>2022-07-14T07:53:02Z</time>
      </trkpt>
      <trkpt lat="50.79308" lon="3.13461">
        <ele>12.4</ele>
        <time>2022-07-14T07:53:15Z</time>
      </trkpt>
      <trkpt lat="50.79355" lon="3.13478">
        <ele>12.3</ele>
      </trkpt>
      <trkpt lat="50.79369" lon="3.13519">
        <ele>9.951583</ele>
        <time>2022-07-14T07:53:30Z</time>
      </trkpt>
      <trkpt lat="50.79379" lon="3.13549">
        <ele>9.913809</ele>
        <time>2022-07-14T07:53:34Z</time>
      </trkpt>
      <trkpt lat="50.79402" lon="3.1363">
        <ele>9.9802</ele>
        <time>2022-07-14T07:53:44Z</time>
      </trkpt>
      <trkpt lat="50.79412" lon="3.13693">
        <ele>13</ele>
        <time>2022-07-14T07:53:52Z</time>
      </trkpt>
      <trkpt lat="50.79426" lon="3.13765">
        <ele>12.8</ele>
        <time>2022-07-14T07:54:00Z</time>
      </trkpt>
      <trkpt lat="50.7943" lon="3.13797">
        <ele>12.2</ele>
        <time>2022-07-14T07:54:10Z</time>
      </trkpt>
      <trkpt lat="50.79379" lon="3.13808">
        <ele>11.289357</ele>
        <time>2022-07-14T07:54:14Z</time>
      </trkpt>
      <trkpt lat="50.79332" lon="3.13822">
        <ele>11.463259</ele>
        <time>2022-07-14T07:54:22Z</time>
      </trkpt>
      <trkpt lat="50.79277" lon="3.13837">
        <ele>11.601285</ele>
        <time>2022-07-14T07:54:32Z</time>
      </trkpt>
      <trkpt lat="50.79234" lon="3.13846">
        <ele>11.647461</ele>
        <time>2022-07-14T07:54:40Z</time>
      </trkpt>
      <trkpt lat="50.79186" lon="3.13852">
        <ele>11.731008</ele>
        <time>2022-07-14T07:54:50Z</time>
      </trkpt>
      <trkpt lat="50.79166" lon="3.13856">
        <ele>11.786639</ele>
        <time>2022-07-14T07:54:54Z</time>
      </trkpt>
      <trkpt lat="50.7913" lon="3.13866">
        <ele>11.986434</ele>
        <time>2022-07-14T07:55:02Z</time>
      </trkpt>
      <trkpt lat="50.79086" lon="3.13878">
        <ele>12.516539</ele>
        <time>2022-07-14T07:55:12Z</time>
      </trkpt>
      <trkpt lat="50.79058" lon="3.13883">
        <ele>16.2</ele>
        <time>2022-07-14T07:55:20Z</time>
      </trkpt>
      <trkpt lat="50.79055" lon="3.13877">
        <ele>16.5</ele>
        <time>2022-07-14T07:55:30Z</time>
      </trkpt>
      <trkpt lat="50.7907" lon="3.13873">
        <ele>13.763422</ele>
        <time>2022-07-14T07:55:34Z</time>
      </trkpt>
      <trkpt lat="50.79105" lon="3.13861">
        <ele>14.11188</ele>
        <time>2022-07-14T07:55:42Z</time>
      </trkpt>
      <trkpt lat="50.79158" lon="3.13843">
        <ele>14.400424</ele>
        <time>2022-07-14T07:55:52Z</time>
      </trkpt>
      <trkpt lat="50.79202" lon="3.13829">
        <ele>14.44165</ele>
        <time>2022-07-14T07:56:00Z</time>
      </trkpt>
      <trkpt lat="50.79244" lon="3.13816">
        <ele>14.328318</ele>
        <time>2022-07-14T07:56:08Z</time>
      </trkpt>
      <trkpt lat="50.79275" lon="3.13806">
        <ele>14.140532</ele>
        <time>2022-07-14T07:56:14Z</time>
      </trkpt>
      <trkpt lat="50.79313" lon="3.13795">
        <ele>13.838934</ele>
        <time>2022-07-14T07:56:22Z</time>
      </trkpt>
      <trkpt lat="50.79352" lon="3.13783">
        <ele>13.410078</ele>
        <time>2022-07-14T07:56:30Z</time>
      </trkpt>
      <trkpt lat="50.79401" lon="3.13765">
        <ele>12.882016</ele>
        <time>2022-07-14T07:56:40Z</time>
      </trkpt>
      <trkpt lat="50.79423" lon="3.13759">
        <ele>13.1</ele>
      </trkpt>
      <trkpt lat="50.79441" lon="3.13752">
        <ele>12.463453</ele>
        <time>2022-07-14T07:56:48Z</time>
      </trkpt>
      <trkpt lat="50.795" lon="3.13733">
        <ele>12.235771</ele>
        <time>2022-07-14T07:56:59Z</time>
      </trkpt>
      <trkpt lat="50.79551" lon="3.13723">
        <ele>12.07172</ele>
        <time>2022-07-14T07:57:12Z</time>
      </trkpt>
      <trkpt lat="50.79588" lon="3.13719">
        <ele>11.934182</ele>
        <time>2022-07-14T07:57:20Z</time>
      </trkpt>
      <trkpt lat="50.79638" lon="3.13715">
        <ele>11.824222</ele>
        <time>2022-07-14T07:57:30Z</time>
      </trkpt>
      <trkpt lat="50.79677" lon="3.13707">
        <ele>11.826292</ele>
        <time>2022-07-14T07:57:38Z</time>
      </trkpt>
      <trkpt lat="50.79696" lon="3.13702">
        <ele>11.86125</ele>
        <time>2022-07-14T07:57:42Z</time>
      </trkpt>
      <trkpt lat="50.79749" lon="3.13689">
        <ele>12.072638</ele>
        <time>2022-07-14T07:57:53Z</time>
      </trkpt>
      <trkpt lat="50.7977" lon="3.13688">
        <ele>18.2</ele>
        <time>2022-07-14T07:58:03Z</time>
      </trkpt>
      <trkpt lat="50.79736" lon="3.13706">
        <ele>12.634936</ele>
        <time>2022-07-14T07:58:13Z</time>
      </trkpt>
      <trkpt lat="50.79696" lon="3.1372">
        <ele>12.819929</ele>
        <time>2022-07-14T07:58:21Z</time>
      </trkpt>
      <trkpt lat="50.79674" lon="3.13726">
        <ele>12.890657</ele>
        <time>2022-07-14T07:58:25Z</time>
      </trkpt>
      <trkpt lat="50.7961" lon="3.13752">
        <ele>12.959633</ele>
        <time>2022-07-14T07:58:35Z</time>
      </trkpt>
      <trkpt lat="50.7956" lon="3.1377">
        <ele>12.876038</ele>
        <time>2022-07-14T07:58:43Z</time>
      </trkpt>
      <trkpt lat="50.79493" lon="3.13781">
        <ele>12.5</ele>
        <time>2022-07-14T07:58:58Z</time>
      </trkpt>
      <trkpt lat="50.79499" lon="3.13844">
        <ele>13</ele>
        <time>2022-07-14T07:59:06Z</time>
      </trkpt>
      <trkpt lat="50.79501" lon="3.13873">
        <ele>13</ele>
        <time>2022-07-14T07:59:10Z</time>
      </trkpt>
      <trkpt lat="50.79509" lon="3.13949">
        <ele>11.697833</ele>
        <time>2022-07-14T07:59:20Z</time>
      </trkpt>
      <trkpt lat="50.79512" lon="3.13999">
        <ele>11.276252</ele>
        <time>2022-07-14T07:59:28Z</time>
      </trkpt>
      <trkpt lat="50.7951" lon="3.14053">
        <ele>10.919152</ele>
        <time>2022-07-14T07:59:36Z</time>
      </trkpt>
      <trkpt lat="50.79509" lon="3.14123">
        <ele>10.563256</ele>
        <time>2022-07-14T07:59:46Z</time>
      </trkpt>
      <trkpt lat="50.79506" lon="3.14155">
        <ele>10.469139</ele>
        <time>2022-07-14T07:59:50Z</time>
      </trkpt>
      <trkpt lat="50.79496" lon="3.14234">
        <ele>10.333679</ele>
        <time>2022-07-14T08:00:00Z</time>
      </trkpt>
      <trkpt lat="50.7949" lon="3.14301">
        <ele>10.381536</ele>
        <time>2022-07-14T08:00:08Z</time>
      </trkpt>
      <trkpt lat="50.79483" lon="3.14365">
        <ele>10.551638</ele>
        <time>2022-07-14T08:00:16Z</time>
      </trkpt>
      <trkpt lat="50.79474" lon="3.14443">
        <ele>10.822581</ele>
        <time>2022-07-14T08:00:26Z</time>
      </trkpt>
      <trkpt lat="50.7947" lon="3.14475">
        <ele>10.931713</ele>
        <time>2022-07-14T08:00:30Z</time>
      </trkpt>
      <trkpt lat="50.79464" lon="3.14538">
        <ele>11.155586</ele>
        <time>2022-07-14T08:00:38Z</time>
      </trkpt>
      <trkpt lat="50.79455" lon="3.14618">
        <ele>11.40568</ele>
        <time>2022-07-14T08:00:48Z</time>
      </trkpt>
      <trkpt lat="50.79448" lon="3.1468">
        <ele>11.533743</ele>
        <time>2022-07-14T08:00:56Z</time>
      </trkpt>
      <trkpt lat="50.79439" lon="3.1476">
        <ele>11.435086</ele>
        <time>2022-07-14T08:01:06Z</time>
      </trkpt>
      <trkpt lat="50.79436" lon="3.14793">
        <ele>11.349646</ele>
        <time>2022-07-14T08:01:10Z</time>
      </trkpt>
      <trkpt lat="50.79431" lon="3.14859">
        <ele>11.137751</ele>
        <time>2022-07-14T08:01:18Z</time>
      </trkpt>
      <trkpt lat="50.79427" lon="3.14938">
        <ele>10.757757</ele>
        <time>2022-07-14T08:01:28Z</time>
      </trkpt>
      <trkpt lat="50.79425" lon="3.15001">
        <ele>10.255857</ele>
        <time>2022-07-14T08:01:36Z</time>
      </trkpt>
      <trkpt lat="50.79424" lon="3.15074">
        <ele>12.2</ele>
        <time>2022-07-14T08:01:46Z</time>
      </trkpt>
      <trkpt lat="50.79425" lon="3.15104">
        <ele>12.3</ele>
        <time>2022-07-14T08:01:50Z</time>
      </trkpt>
      <trkpt lat="50.79426" lon="3.15163">
        <ele>11.1</ele>
        <time>2022-07-14T08:01:58Z</time>
      </trkpt>
      <trkpt lat="50.79438" lon="3.15251">
        <ele>8.402494</ele>
        <time>2022-07-14T08:02:08Z</time>
      </trkpt>
      <trkpt lat="50.79441" lon="3.15309">
        <ele>8.103228</ele>
        <time>2022-07-14T08:02:16Z</time>
      </trkpt>
      <trkpt lat="50.79448" lon="3.15373">
        <ele>7.88199</ele>
        <time>2022-07-14T08:02:24Z</time>
      </trkpt>
      <trkpt lat="50.79454" lon="3.15421">
        <ele>7.788934</ele>
        <time>2022-07-14T08:02:30Z</time>
      </trkpt>
      <trkpt lat="50.79465" lon="3.15484">
        <ele>7.751802</ele>
        <time>2022-07-14T08:02:38Z</time>
      </trkpt>
      <trkpt lat="50.79477" lon="3.15547">
        <ele>7.795326</ele>
        <time>2022-07-14T08:02:46Z</time>
      </trkpt>
      <trkpt lat="50.79491" lon="3.15604">
        <ele>7.974387</ele>
        <time>2022-07-14T08:02:56Z</time>
      </trkpt>
      <trkpt lat="50.79503" lon="3.15658">
        <ele>8.239008</ele>
        <time>2022-07-14T08:03:04Z</time>
      </trkpt>
      <trkpt lat="50.79514" lon="3.15703">
        <ele>8.409539</ele>
        <time>2022-07-14T08:03:10Z</time>
      </trkpt>
      <trkpt lat="50.79531" lon="3.15762">
        <ele>8.61834</ele>
        <time>2022-07-14T08:03:18Z</time>
      </trkpt>
      <trkpt lat="50.79549" lon="3.15824">
        <ele>8.858758</ele>
        <time>2022-07-14T08:03:26Z</time>
      </trkpt>
      <trkpt lat="50.79568" lon="3.15899">
        <ele>9.149672</ele>
        <time>2022-07-14T08:03:36Z</time>
      </trkpt>
      <trkpt lat="50.79583" lon="3.15957">
        <ele>9.375897</ele>
        <time>2022-07-14T08:03:44Z</time>
      </trkpt>
      <trkpt lat="50.7959" lon="3.15986">
        <ele>9.472817</ele>
        <time>2022-07-14T08:03:48Z</time>
      </trkpt>
      <trkpt lat="50.79605" lon="3.16054">
        <ele>9.668861</ele>
        <time>2022-07-14T08:03:58Z</time>
      </trkpt>
      <trkpt lat="50.79616" lon="3.16108">
        <ele>9.786243</ele>
        <time>2022-07-14T08:04:06Z</time>
      </trkpt>
      <trkpt lat="50.79628" lon="3.16184">
        <ele>9.929919</ele>
        <time>2022-07-14T08:04:16Z</time>
      </trkpt>
      <trkpt lat="50.79635" lon="3.16242">
        <ele>10.032343</ele>
        <time>2022-07-14T08:04:24Z</time>
      </trkpt>
      <trkpt lat="50.79638" lon="3.16271">
        <ele>10.08101</ele>
        <time>2022-07-14T08:04:28Z</time>
      </trkpt>
      <trkpt lat="50.79646" lon="3.16344">
        <ele>10.170809</ele>
        <time>2022-07-14T08:04:38Z</time>
      </trkpt>
      <trkpt lat="50.79651" lon="3.16405">
        <ele>10.218544</ele>
        <time>2022-07-14T08:04:46Z</time>
      </trkpt>
      <trkpt lat="50.79653" lon="3.16448">
        <ele>11.4</ele>
      </trkpt>
      <trkpt lat="50.7967" lon="3.16464">
        <ele>10.152229</ele>
        <time>2022-07-14T08:04:56Z</time>
      </trkpt>
      <trkpt lat="50.79694" lon="3.16479">
        <ele>11.7</ele>
      </trkpt>
      <trkpt lat="50.79699" lon="3.16493">
        <ele>10.035602</ele>
        <time>2022-07-14T08:05:04Z</time>
      </trkpt>
      <trkpt lat="50.79696" lon="3.16519">
        <ele>9.965044</ele>
        <time>2022-07-14T08:05:08Z</time>
      </trkpt>
      <trkpt lat="50.7968" lon="3.16582">
        <ele>9.785902</ele>
        <time>2022-07-14T08:05:18Z</time>
      </trkpt>
      <trkpt lat="50.79668" lon="3.16635">
        <ele>9.699964</ele>
        <time>2022-07-14T08:05:26Z</time>
      </trkpt>
      <trkpt lat="50.79671" lon="3.16692">
        <ele>9.747115</ele>
        <time>2022-07-14T08:05:34Z</time>
      </trkpt>
      <trkpt lat="50.79675" lon="3.16768">
        <ele>10.042765</ele>
        <time>2022-07-14T08:05:44Z</time>
      </trkpt>
      <trkpt lat="50.79677" lon="3.16798">
        <ele>10.212317</ele>
        <time>2022-07-14T08:05:48Z</time>
      </trkpt>
      <trkpt lat="50.79683" lon="3.16873">
        <ele>10.665668</ele>
        <time>2022-07-14T08:05:58Z</time>
      </trkpt>
      <trkpt lat="50.79687" lon="3.16933">
        <ele>11.067937</ele>
        <time>2022-07-14T08:06:06Z</time>
      </trkpt>
      <trkpt lat="50.79688" lon="3.16977">
        <ele>12.20144</ele>
        <time>2022-07-14T08:09:21Z</time>
      </trkpt>
      <trkpt lat="50.79694" lon="3.17033">
        <ele>12.218866</ele>
        <time>2022-07-14T08:09:31Z</time>
      </trkpt>
      <trkpt lat="50.79697" lon="3.1706">
        <ele>12.226097</ele>
        <time>2022-07-14T08:09:35Z</time>
      </trkpt>
      <trkpt lat="50.79706" lon="3.17115">
        <ele>12.227501</ele>
        <time>2022-07-14T08:09:43Z</time>
      </trkpt>
      <trkpt lat="50.79719" lon="3.17188">
        <ele>12.194022</ele>
        <time>2022-07-14T08:09:53Z</time>
      </trkpt>
      <trkpt lat="50.79731" lon="3.17248">
        <ele>12.125604</ele>
        <time>2022-07-14T08:10:01Z</time>
      </trkpt>
      <trkpt lat="50.79748" lon="3.17322">
        <ele>12.009069</ele>
        <time>2022-07-14T08:10:11Z</time>
      </trkpt>
      <trkpt lat="50.79756" lon="3.17353">
        <ele>11.958261</ele>
        <time>2022-07-14T08:10:15Z</time>
      </trkpt>
      <trkpt lat="50.79773" lon="3.17415">
        <ele>11.816774</ele>
        <time>2022-07-14T08:10:23Z</time>
      </trkpt>
      <trkpt lat="50.79794" lon="3.1748">
        <ele>11.472161</ele>
        <time>2022-07-14T08:10:33Z</time>
      </trkpt>
      <trkpt lat="50.79811" lon="3.17531">
        <ele>11.114931</ele>
        <time>2022-07-14T08:10:41Z</time>
      </trkpt>
      <trkpt lat="50.79836" lon="3.176">
        <ele>10.722753</ele>
        <time>2022-07-14T08:10:51Z</time>
      </trkpt>
      <trkpt lat="50.79844" lon="3.17626">
        <ele>10.594391</ele>
        <time>2022-07-14T08:10:55Z</time>
      </trkpt>
      <trkpt lat="50.79863" lon="3.1768">
        <ele>10.556383</ele>
        <time>2022-07-14T08:11:03Z</time>
      </trkpt>
      <trkpt lat="50.79887" lon="3.17753">
        <ele>10.681442</ele>
        <time>2022-07-14T08:11:13Z</time>
      </trkpt>
      <trkpt lat="50.79907" lon="3.17807">
        <ele>10.941454</ele>
        <time>2022-07-14T08:11:21Z</time>
      </trkpt>
      <trkpt lat="50.79923" lon="3.17861">
        <ele>11.247953</ele>
        <time>2022-07-14T08:11:29Z</time>
      </trkpt>
      <trkpt lat="50.79935" lon="3.17904">
        <ele>11.409739</ele>
        <time>2022-07-14T08:11:35Z</time>
      </trkpt>
      <trkpt lat="50.7995" lon="3.17964">
        <ele>11.334958</ele>
        <time>2022-07-14T08:11:43Z</time>
      </trkpt>
      <trkpt lat="50.79964" lon="3.18024">
        <ele>10.977656</ele>
        <time>2022-07-14T08:11:51Z</time>
      </trkpt>
      <trkpt lat="50.79979" lon="3.18096">
        <ele>10.233469</ele>
        <time>2022-07-14T08:12:01Z</time>
      </trkpt>
      <trkpt lat="50.79992" lon="3.18159">
        <ele>9.32236</ele>
        <time>2022-07-14T08:12:09Z</time>
      </trkpt>
      <trkpt lat="50.80001" lon="3.18202">
        <ele>8.673289</ele>
        <time>2022-07-14T08:12:15Z</time>
      </trkpt>
      <trkpt lat="50.80007" lon="3.18246">
        <ele>8.191836</ele>
        <time>2022-07-14T08:12:23Z</time>
      </trkpt>
      <trkpt lat="50.80015" lon="3.18288">
        <ele>8.069048</ele>
        <time>2022-07-14T08:12:31Z</time>
      </trkpt>
      <trkpt lat="50.80029" lon="3.18355">
        <ele>8.056874</ele>
        <time>2022-07-14T08:12:41Z</time>
      </trkpt>
      <trkpt lat="50.8004" lon="3.18416">
        <ele>8.047819</ele>
        <time>2022-07-14T08:12:49Z</time>
      </trkpt>
      <trkpt lat="50.80046" lon="3.18453">
        <ele>11.7</ele>
        <time>2022-07-14T08:12:53Z</time>
      </trkpt>
      <trkpt lat="50.8006" lon="3.18524">
        <ele>12.9</ele>
        <time>2022-07-14T08:13:03Z</time>
      </trkpt>
      <trkpt lat="50.8007" lon="3.18579">
        <ele>11.6</ele>
        <time>2022-07-14T08:13:11Z</time>
      </trkpt>
      <trkpt lat="50.80087" lon="3.18655">
        <ele>12.5</ele>
        <time>2022-07-14T08:13:21Z</time>
      </trkpt>
      <trkpt lat="50.80101" lon="3.18711">
        <ele>11.8</ele>
        <time>2022-07-14T08:13:29Z</time>
      </trkpt>
      <trkpt lat="50.80111" lon="3.18749">
        <ele>13</ele>
        <time>2022-07-14T08:13:33Z</time>
      </trkpt>
      <trkpt lat="50.80127" lon="3.18807">
        <ele>12.4</ele>
        <time>2022-07-14T08:13:43Z</time>
      </trkpt>
      <trkpt lat="50.80135" lon="3.18848">
        <ele>13.4</ele>
        <time>2022-07-14T08:13:51Z</time>
      </trkpt>
      <trkpt lat="50.80183" lon="3.18838">
        <ele>10.944181</ele>
        <time>2022-07-14T08:14:01Z</time>
      </trkpt>
      <trkpt lat="50.8022" lon="3.18831">
        <ele>11.232749</ele>
        <time>2022-07-14T08:14:09Z</time>
      </trkpt>
      <trkpt lat="50.80248" lon="3.18832">
        <ele>11.556517</ele>
        <time>2022-07-14T08:14:17Z</time>
      </trkpt>
      <trkpt lat="50.80254" lon="3.1884">
        <ele>14.5</ele>
        <time>2022-07-14T08:14:23Z</time>
      </trkpt>
      <trkpt lat="50.80222" lon="3.18848">
        <ele>11.764979</ele>
        <time>2022-07-14T08:14:31Z</time>
      </trkpt>
      <trkpt lat="50.80188" lon="3.18857">
        <ele>11.70781</ele>
        <time>2022-07-14T08:14:39Z</time>
      </trkpt>
      <trkpt lat="50.80142" lon="3.18871">
        <ele>11.598304</ele>
        <time>2022-07-14T08:14:49Z</time>
      </trkpt>
      <trkpt lat="50.80105" lon="3.18882">
        <ele>11.533018</ele>
        <time>2022-07-14T08:14:57Z</time>
      </trkpt>
      <trkpt lat="50.80085" lon="3.1889">
        <ele>11.547119</ele>
        <time>2022-07-14T08:15:03Z</time>
      </trkpt>
      <trkpt lat="50.80071" lon="3.18892">
        <ele>15.9</ele>
      </trkpt>
      <trkpt lat="50.80085" lon="3.18917">
        <ele>11.670801</ele>
        <time>2022-07-14T08:15:11Z</time>
      </trkpt>
      <trkpt lat="50.80111" lon="3.18985">
        <ele>11.876125</ele>
        <time>2022-07-14T08:15:19Z</time>
      </trkpt>
      <trkpt lat="50.80139" lon="3.19061">
        <ele>12.109318</ele>
        <time>2022-07-14T08:15:29Z</time>
      </trkpt>
      <trkpt lat="50.80157" lon="3.1911">
        <ele>12.15546</ele>
        <time>2022-07-14T08:15:37Z</time>
      </trkpt>
      <trkpt lat="50.80167" lon="3.19138">
        <ele>12.14431</ele>
        <time>2022-07-14T08:15:41Z</time>
      </trkpt>
      <trkpt lat="50.80193" lon="3.19208">
        <ele>12.082934</ele>
        <time>2022-07-14T08:15:51Z</time>
      </trkpt>
      <trkpt lat="50.80216" lon="3.19268">
        <ele>11.909292</ele>
        <time>2022-07-14T08:15:59Z</time>
      </trkpt>
      <trkpt lat="50.80243" lon="3.19344">
        <ele>11.578302</ele>
        <time>2022-07-14T08:16:09Z</time>
      </trkpt>
      <trkpt lat="50.80265" lon="3.19405">
        <ele>11.165732</ele>
        <time>2022-07-14T08:16:17Z</time>
      </trkpt>
      <trkpt lat="50.80277" lon="3.19437">
        <ele>11.007002</ele>
        <time>2022-07-14T08:16:21Z</time>
      </trkpt>
      <trkpt lat="50.80306" lon="3.19512">
        <ele>10.751234</ele>
        <time>2022-07-14T08:16:31Z</time>
      </trkpt>
      <trkpt lat="50.80328" lon="3.19575">
        <ele>10.544024</ele>
        <time>2022-07-14T08:16:39Z</time>
      </trkpt>
      <trkpt lat="50.80356" lon="3.19649">
        <ele>10.297892</ele>
        <time>2022-07-14T08:16:49Z</time>
      </trkpt>
      <trkpt lat="50.80378" lon="3.19705">
        <ele>10.122945</ele>
        <time>2022-07-14T08:16:57Z</time>
      </trkpt>
      <trkpt lat="50.80389" lon="3.19735">
        <ele>10.057642</ele>
        <time>2022-07-14T08:17:01Z</time>
      </trkpt>
      <trkpt lat="50.80416" lon="3.19814">
        <ele>9.998937</ele>
        <time>2022-07-14T08:17:11Z</time>
      </trkpt>
      <trkpt lat="50.80439" lon="3.19876">
        <ele>9.997041</ele>
        <time>2022-07-14T08:17:19Z</time>
      </trkpt>
      <trkpt lat="50.80461" lon="3.19938">
        <ele>9.961147</ele>
        <time>2022-07-14T08:17:27Z</time>
      </trkpt>
      <trkpt lat="50.80489" lon="3.20013">
        <ele>9.851594</ele>
        <time>2022-07-14T08:17:37Z</time>
      </trkpt>
      <trkpt lat="50.805" lon="3.20043">
        <ele>9.770512</ele>
        <time>2022-07-14T08:17:41Z</time>
      </trkpt>
      <trkpt lat="50.80523" lon="3.20102">
        <ele>9.531594</ele>
        <time>2022-07-14T08:17:49Z</time>
      </trkpt>
      <trkpt lat="50.80548" lon="3.20172">
        <ele>9.153451</ele>
        <time>2022-07-14T08:17:59Z</time>
      </trkpt>
      <trkpt lat="50.80566" lon="3.20233">
        <ele>11.4</ele>
        <time>2022-07-14T08:18:07Z</time>
      </trkpt>
      <trkpt lat="50.8059" lon="3.20309">
        <ele>8.480043</ele>
        <time>2022-07-14T08:18:17Z</time>
      </trkpt>
      <trkpt lat="50.80599" lon="3.20341">
        <ele>8.349916</ele>
        <time>2022-07-14T08:18:21Z</time>
      </trkpt>
      <trkpt lat="50.80615" lon="3.20405">
        <ele>8.141036</ele>
        <time>2022-07-14T08:18:29Z</time>
      </trkpt>
      <trkpt lat="50.80632" lon="3.20486">
        <ele>8.042258</ele>
        <time>2022-07-14T08:18:39Z</time>
      </trkpt>
      <trkpt lat="50.80642" lon="3.20551">
        <ele>8.014129</ele>
        <time>2022-07-14T08:18:47Z</time>
      </trkpt>
      <trkpt lat="50.80653" lon="3.20629">
        <ele>11.5</ele>
        <time>2022-07-14T08:18:57Z</time>
      </trkpt>
      <trkpt lat="50.80657" lon="3.20663">
        <ele>11.4</ele>
        <time>2022-07-14T08:19:01Z</time>
      </trkpt>
      <trkpt lat="50.80664" lon="3.20727">
        <ele>12.1</ele>
        <time>2022-07-14T08:19:09Z</time>
      </trkpt>
      <trkpt lat="50.80669" lon="3.20804">
        <ele>11.9</ele>
        <time>2022-07-14T08:19:19Z</time>
      </trkpt>
      <trkpt lat="50.80676" lon="3.20864">
        <ele>12.4</ele>
        <time>2022-07-14T08:19:27Z</time>
      </trkpt>
      <trkpt lat="50.8068" lon="3.20931">
        <ele>11.8</ele>
        <time>2022-07-14T08:19:37Z</time>
      </trkpt>
      <trkpt lat="50.80684" lon="3.20963">
        <ele>9.376512</ele>
        <time>2022-07-14T08:19:41Z</time>
      </trkpt>
      <trkpt lat="50.80689" lon="3.21033">
        <ele>9.800796</ele>
        <time>2022-07-14T08:19:49Z</time>
      </trkpt>
      <trkpt lat="50.80694" lon="3.21112">
        <ele>10.304705</ele>
        <time>2022-07-14T08:19:59Z</time>
      </trkpt>
      <trkpt lat="50.80698" lon="3.21166">
        <ele>10.570884</ele>
        <time>2022-07-14T08:20:07Z</time>
      </trkpt>
      <trkpt lat="50.80704" lon="3.21224">
        <ele>10.759237</ele>
        <time>2022-07-14T08:20:15Z</time>
      </trkpt>
      <trkpt lat="50.80707" lon="3.21267">
        <ele>10.802401</ele>
        <time>2022-07-14T08:20:21Z</time>
      </trkpt>
      <trkpt lat="50.80715" lon="3.21329">
        <ele>10.699258</ele>
        <time>2022-07-14T08:20:29Z</time>
      </trkpt>
      <trkpt lat="50.80722" lon="3.21388">
        <ele>10.405256</ele>
        <time>2022-07-14T08:20:37Z</time>
      </trkpt>
      <trkpt lat="50.8073" lon="3.21461">
        <ele>12.3</ele>
        <time>2022-07-14T08:20:47Z</time>
      </trkpt>
      <trkpt lat="50.8074" lon="3.21514">
        <ele>9.752464</ele>
        <time>2022-07-14T08:20:55Z</time>
      </trkpt>
      <trkpt lat="50.80748" lon="3.21558">
        <ele>9.583781</ele>
        <time>2022-07-14T08:21:01Z</time>
      </trkpt>
      <trkpt lat="50.80757" lon="3.21612">
        <ele>9.540215</ele>
        <time>2022-07-14T08:21:09Z</time>
      </trkpt>
      <trkpt lat="50.80765" lon="3.21652">
        <ele>9.751315</ele>
        <time>2022-07-14T08:21:17Z</time>
      </trkpt>
      <trkpt lat="50.80784" lon="3.21727">
        <ele>10.394632</ele>
        <time>2022-07-14T08:21:27Z</time>
      </trkpt>
      <trkpt lat="50.80802" lon="3.21792">
        <ele>11.10851</ele>
        <time>2022-07-14T08:21:35Z</time>
      </trkpt>
      <trkpt lat="50.80811" lon="3.21822">
        <ele>11.5147</ele>
        <time>2022-07-14T08:21:39Z</time>
      </trkpt>
      <trkpt lat="50.80835" lon="3.21892">
        <ele>12.435946</ele>
        <time>2022-07-14T08:21:49Z</time>
      </trkpt>
      <trkpt lat="50.80856" lon="3.2195">
        <ele>13.057787</ele>
        <time>2022-07-14T08:21:57Z</time>
      </trkpt>
      <trkpt lat="50.80882" lon="3.22021">
        <ele>13.576502</ele>
        <time>2022-07-14T08:22:07Z</time>
      </trkpt>
      <trkpt lat="50.80904" lon="3.22077">
        <ele>13.901446</ele>
        <time>2022-07-14T08:22:15Z</time>
      </trkpt>
      <trkpt lat="50.80916" lon="3.22104">
        <ele>14.011998</ele>
        <time>2022-07-14T08:22:19Z</time>
      </trkpt>
      <trkpt lat="50.80944" lon="3.22167">
        <ele>14.194394</ele>
        <time>2022-07-14T08:22:29Z</time>
      </trkpt>
      <trkpt lat="50.8097" lon="3.22216">
        <ele>14.272756</ele>
        <time>2022-07-14T08:22:37Z</time>
      </trkpt>
      <trkpt lat="50.81006" lon="3.22276">
        <ele>14.301257</ele>
        <time>2022-07-14T08:22:47Z</time>
      </trkpt>
      <trkpt lat="50.81032" lon="3.22326">
        <ele>14.208771</ele>
        <time>2022-07-14T08:22:55Z</time>
      </trkpt>
      <trkpt lat="50.81046" lon="3.2235">
        <ele>14.156784</ele>
        <time>2022-07-14T08:22:59Z</time>
      </trkpt>
      <trkpt lat="50.81079" lon="3.2241">
        <ele>11.9</ele>
        <time>2022-07-14T08:23:09Z</time>
      </trkpt>
      <trkpt lat="50.81105" lon="3.22457">
        <ele>11.9</ele>
        <time>2022-07-14T08:23:17Z</time>
      </trkpt>
      <trkpt lat="50.8113" lon="3.22509">
        <ele>12.767311</ele>
        <time>2022-07-14T08:23:25Z</time>
      </trkpt>
      <trkpt lat="50.81162" lon="3.2257">
        <ele>11.94704</ele>
        <time>2022-07-14T08:23:35Z</time>
      </trkpt>
      <trkpt lat="50.81173" lon="3.22594">
        <ele>11.71572</ele>
        <time>2022-07-14T08:23:39Z</time>
      </trkpt>
      <trkpt lat="50.81189" lon="3.22632">
        <ele>11.096959</ele>
        <time>2022-07-14T08:23:47Z</time>
      </trkpt>
      <trkpt lat="50.81215" lon="3.22685">
        <ele>10.434523</ele>
        <time>2022-07-14T08:23:57Z</time>
      </trkpt>
      <trkpt lat="50.81238" lon="3.22732">
        <ele>10.177099</ele>
        <time>2022-07-14T08:24:05Z</time>
      </trkpt>
      <trkpt lat="50.81268" lon="3.22795">
        <ele>10.000701</ele>
        <time>2022-07-14T08:24:15Z</time>
      </trkpt>
      <trkpt lat="50.81281" lon="3.22819">
        <ele>10.011648</ele>
        <time>2022-07-14T08:24:19Z</time>
      </trkpt>
      <trkpt lat="50.81306" lon="3.22867">
        <ele>10.207434</ele>
        <time>2022-07-14T08:24:27Z</time>
      </trkpt>
      <trkpt lat="50.81339" lon="3.22921">
        <ele>10.663671</ele>
        <time>2022-07-14T08:24:37Z</time>
      </trkpt>
      <trkpt lat="50.81366" lon="3.22964">
        <ele>11.013727</ele>
        <time>2022-07-14T08:24:45Z</time>
      </trkpt>
      <trkpt lat="50.81382" lon="3.22989">
        <ele>11.230687</ele>
        <time>2022-07-14T08:24:55Z</time>
      </trkpt>
      <trkpt lat="50.8139" lon="3.23">
        <ele>11.254061</ele>
        <time>2022-07-14T08:24:59Z</time>
      </trkpt>
      <trkpt lat="50.81413" lon="3.23033">
        <ele>11.20372</ele>
        <time>2022-07-14T08:25:07Z</time>
      </trkpt>
      <trkpt lat="50.81447" lon="3.23078">
        <ele>10.931656</ele>
        <time>2022-07-14T08:25:17Z</time>
      </trkpt>
      <trkpt lat="50.81478" lon="3.23116">
        <ele>10.553651</ele>
        <time>2022-07-14T08:25:25Z</time>
      </trkpt>
      <trkpt lat="50.81514" lon="3.2316">
        <ele>10.159686</ele>
        <time>2022-07-14T08:25:35Z</time>
      </trkpt>
      <trkpt lat="50.81532" lon="3.23178">
        <ele>10.121877</ele>
        <time>2022-07-14T08:25:39Z</time>
      </trkpt>
      <trkpt lat="50.81564" lon="3.2321">
        <ele>10.225595</ele>
        <time>2022-07-14T08:25:47Z</time>
      </trkpt>
      <trkpt lat="50.81593" lon="3.2324">
        <ele>10.725592</ele>
        <time>2022-07-14T08:25:57Z</time>
      </trkpt>
      <trkpt lat="50.81607" lon="3.23251">
        <ele>11.255677</ele>
        <time>2022-07-14T08:26:05Z</time>
      </trkpt>
      <trkpt lat="50.81618" lon="3.23262">
        <ele>12.5</ele>
      </trkpt>
      <trkpt lat="50.81618" lon="3.23289">
        <ele>14.4</ele>
        <time>2022-07-14T08:26:13Z</time>
      </trkpt>
      <trkpt lat="50.81635" lon="3.2333">
        <ele>15.1</ele>
      </trkpt>
      <trkpt lat="50.81639" lon="3.23324">
        <ele>14.7</ele>
        <time>2022-07-14T08:26:19Z</time>
      </trkpt>
      <trkpt lat="50.8162" lon="3.23275">
        <ele>13.2</ele>
      </trkpt>
      <trkpt lat="50.81633" lon="3.23248">
        <ele>13.822298</ele>
        <time>2022-07-14T08:27:58Z</time>
      </trkpt>
      <trkpt lat="50.81653" lon="3.23189">
        <ele>11.3</ele>
      </trkpt>
      <trkpt lat="50.8169" lon="3.23216">
        <ele>11.1</ele>
        <time>2022-07-14T08:28:20Z</time>
      </trkpt>
      <trkpt lat="50.81683" lon="3.23204">
        <ele>13.654577</ele>
        <time>2022-07-14T08:28:28Z</time>
      </trkpt>
      <trkpt lat="50.81667" lon="3.23191">
        <ele>13.544672</ele>
        <time>2022-07-14T08:28:34Z</time>
      </trkpt>
      <trkpt lat="50.81649" lon="3.23177">
        <ele>11.5</ele>
        <time>2022-07-14T08:28:48Z</time>
      </trkpt>
      <trkpt lat="50.81702" lon="3.23216">
        <ele>11.5</ele>
        <time>2022-07-14T08:29:12Z</time>
      </trkpt>
      <trkpt lat="50.81724" lon="3.23255">
        <ele>11.2</ele>
      </trkpt>
      <trkpt lat="50.81762" lon="3.23281">
        <ele>11.4</ele>
      </trkpt>
      <trkpt lat="50.81807" lon="3.23295">
        <ele>11.4</ele>
        <time>2022-07-14T08:30:42Z</time>
      </trkpt>
      <trkpt lat="50.81878" lon="3.23316">
        <ele>13.272733</ele>
        <time>2022-07-14T08:31:01Z</time>
      </trkpt>
      <trkpt lat="50.81897" lon="3.23321">
        <ele>13.153198</ele>
        <time>2022-07-14T08:31:05Z</time>
      </trkpt>
      <trkpt lat="50.81945" lon="3.23351">
        <ele>12.561869</ele>
        <time>2022-07-14T08:31:15Z</time>
      </trkpt>
      <trkpt lat="50.8198" lon="3.23387">
        <ele>12.110025</ele>
        <time>2022-07-14T08:31:23Z</time>
      </trkpt>
      <trkpt lat="50.82016" lon="3.23421">
        <ele>11.555571</ele>
        <time>2022-07-14T08:31:31Z</time>
      </trkpt>
      <trkpt lat="50.82066" lon="3.23464">
        <ele>10.965588</ele>
        <time>2022-07-14T08:31:41Z</time>
      </trkpt>
      <trkpt lat="50.82085" lon="3.23481">
        <ele>10.810004</ele>
        <time>2022-07-14T08:31:45Z</time>
      </trkpt>
      <trkpt lat="50.82147" lon="3.2354">
        <ele>10.628438</ele>
        <time>2022-07-14T08:31:58Z</time>
      </trkpt>
      <trkpt lat="50.8218" lon="3.23571">
        <ele>11.4</ele>
      </trkpt>
      <trkpt lat="50.82201" lon="3.23579">
        <ele>10.579515</ele>
        <time>2022-07-14T08:32:08Z</time>
      </trkpt>
      <trkpt lat="50.82228" lon="3.23587">
        <ele>11.9</ele>
      </trkpt>
      <trkpt lat="50.82246" lon="3.23603">
        <ele>10.605006</ele>
        <time>2022-07-14T08:32:16Z</time>
      </trkpt>
      <trkpt lat="50.82296" lon="3.23651">
        <ele>10.559408</ele>
        <time>2022-07-14T08:32:26Z</time>
      </trkpt>
      <trkpt lat="50.82313" lon="3.23675">
        <ele>10.51135</ele>
        <time>2022-07-14T08:32:30Z</time>
      </trkpt>
      <trkpt lat="50.82344" lon="3.23729">
        <ele>10.412164</ele>
        <time>2022-07-14T08:32:38Z</time>
      </trkpt>
      <trkpt lat="50.8238" lon="3.238">
        <ele>10.237628</ele>
        <time>2022-07-14T08:32:48Z</time>
      </trkpt>
      <trkpt lat="50.8243" lon="3.23899">
        <ele>9.983113</ele>
        <time>2022-07-14T08:33:02Z</time>
      </trkpt>
      <trkpt lat="50.82462" lon="3.23967">
        <ele>9.584094</ele>
        <time>2022-07-14T08:33:12Z</time>
      </trkpt>
      <trkpt lat="50.82475" lon="3.23995">
        <ele>9.493568</ele>
        <time>2022-07-14T08:33:16Z</time>
      </trkpt>
      <trkpt lat="50.82499" lon="3.24057">
        <ele>9.430489</ele>
        <time>2022-07-14T08:33:24Z</time>
      </trkpt>
      <trkpt lat="50.82526" lon="3.24135">
        <ele>9.450659</ele>
        <time>2022-07-14T08:33:34Z</time>
      </trkpt>
      <trkpt lat="50.82547" lon="3.24201">
        <ele>9.455286</ele>
        <time>2022-07-14T08:33:42Z</time>
      </trkpt>
      <trkpt lat="50.82572" lon="3.24282">
        <ele>9.305517</ele>
        <time>2022-07-14T08:33:52Z</time>
      </trkpt>
      <trkpt lat="50.82583" lon="3.24313">
        <ele>9.179504</ele>
        <time>2022-07-14T08:33:56Z</time>
      </trkpt>
      <trkpt lat="50.82605" lon="3.24376">
        <ele>8.838659</ele>
        <time>2022-07-14T08:34:04Z</time>
      </trkpt>
      <trkpt lat="50.82628" lon="3.24463">
        <ele>12.2</ele>
        <time>2022-07-14T08:34:14Z</time>
      </trkpt>
      <trkpt lat="50.82647" lon="3.24525">
        <ele>7.961396</ele>
        <time>2022-07-14T08:34:22Z</time>
      </trkpt>
      <trkpt lat="50.8266" lon="3.24596">
        <ele>11.8</ele>
        <time>2022-07-14T08:34:30Z</time>
      </trkpt>
      <trkpt lat="50.8267" lon="3.24643">
        <ele>11.1</ele>
        <time>2022-07-14T08:34:36Z</time>
      </trkpt>
      <trkpt lat="50.82685" lon="3.24711">
        <ele>11.7</ele>
        <time>2022-07-14T08:34:44Z</time>
      </trkpt>
      <trkpt lat="50.827" lon="3.24772">
        <ele>11.4</ele>
        <time>2022-07-14T08:34:52Z</time>
      </trkpt>
      <trkpt lat="50.82715" lon="3.24854">
        <ele>11.2</ele>
        <time>2022-07-14T08:35:02Z</time>
      </trkpt>
      <trkpt lat="50.82727" lon="3.24923">
        <ele>11.3</ele>
        <time>2022-07-14T08:35:10Z</time>
      </trkpt>
      <trkpt lat="50.8274" lon="3.24976">
        <ele>11.6</ele>
        <time>2022-07-14T08:35:16Z</time>
      </trkpt>
      <trkpt lat="50.8276" lon="3.25032">
        <ele>12.3</ele>
        <time>2022-07-14T08:35:24Z</time>
      </trkpt>
      <trkpt lat="50.82784" lon="3.25071">
        <ele>11.8</ele>
        <time>2022-07-14T08:35:32Z</time>
      </trkpt>
      <trkpt lat="50.82819" lon="3.25119">
        <ele>9.04833</ele>
        <time>2022-07-14T08:35:42Z</time>
      </trkpt>
      <trkpt lat="50.82844" lon="3.2517">
        <ele>8.940094</ele>
        <time>2022-07-14T08:35:50Z</time>
      </trkpt>
      <trkpt lat="50.82857" lon="3.25197">
        <ele>8.916061</ele>
        <time>2022-07-14T08:35:54Z</time>
      </trkpt>
      <trkpt lat="50.82906" lon="3.25311">
        <ele>8.884199</ele>
        <time>2022-07-14T08:36:10Z</time>
      </trkpt>
      <trkpt lat="50.82926" lon="3.25377">
        <ele>11.6</ele>
        <time>2022-07-14T08:36:18Z</time>
      </trkpt>
      <trkpt lat="50.8294" lon="3.25464">
        <ele>12</ele>
        <time>2022-07-14T08:36:28Z</time>
      </trkpt>
      <trkpt lat="50.82953" lon="3.2553">
        <ele>12.3</ele>
        <time>2022-07-14T08:36:36Z</time>
      </trkpt>
      <trkpt lat="50.8296" lon="3.25572">
        <ele>12.2</ele>
        <time>2022-07-14T08:36:40Z</time>
      </trkpt>
      <trkpt lat="50.82971" lon="3.25642">
        <ele>12</ele>
        <time>2022-07-14T08:36:50Z</time>
      </trkpt>
      <trkpt lat="50.82978" lon="3.25703">
        <ele>12.2</ele>
        <time>2022-07-14T08:36:58Z</time>
      </trkpt>
      <trkpt lat="50.82993" lon="3.25778">
        <ele>12</ele>
        <time>2022-07-14T08:37:08Z</time>
      </trkpt>
      <trkpt lat="50.83007" lon="3.25839">
        <ele>12</ele>
        <time>2022-07-14T08:37:16Z</time>
      </trkpt>
      <trkpt lat="50.83016" lon="3.25861">
        <ele>12.410063</ele>
        <time>2022-07-14T08:37:20Z</time>
      </trkpt>
      <trkpt lat="50.83025" lon="3.25902">
        <ele>11.5</ele>
      </trkpt>
      <trkpt lat="50.83041" lon="3.25929">
        <ele>12.642412</ele>
        <time>2022-07-14T08:37:30Z</time>
      </trkpt>
      <trkpt lat="50.83065" lon="3.25984">
        <ele>12.794677</ele>
        <time>2022-07-14T08:37:38Z</time>
      </trkpt>
      <trkpt lat="50.83091" lon="3.26036">
        <ele>12.871096</ele>
        <time>2022-07-14T08:37:46Z</time>
      </trkpt>
      <trkpt lat="50.83123" lon="3.26094">
        <ele>12.825691</ele>
        <time>2022-07-14T08:37:56Z</time>
      </trkpt>
      <trkpt lat="50.83133" lon="3.26115">
        <ele>12.770649</ele>
        <time>2022-07-14T08:38:00Z</time>
      </trkpt>
      <trkpt lat="50.83156" lon="3.26155">
        <ele>12.633802</ele>
        <time>2022-07-14T08:38:08Z</time>
      </trkpt>
      <trkpt lat="50.83186" lon="3.26205">
        <ele>12.482892</ele>
        <time>2022-07-14T08:38:18Z</time>
      </trkpt>
      <trkpt lat="50.83207" lon="3.26245">
        <ele>12.324611</ele>
        <time>2022-07-14T08:38:26Z</time>
      </trkpt>
      <trkpt lat="50.83235" lon="3.2631">
        <ele>12.141049</ele>
        <time>2022-07-14T08:38:36Z</time>
      </trkpt>
      <trkpt lat="50.83246" lon="3.26338">
        <ele>12.091578</ele>
        <time>2022-07-14T08:38:40Z</time>
      </trkpt>
      <trkpt lat="50.83264" lon="3.26398">
        <ele>12.030563</ele>
        <time>2022-07-14T08:38:48Z</time>
      </trkpt>
      <trkpt lat="50.83286" lon="3.26469">
        <ele>12.011833</ele>
        <time>2022-07-14T08:38:58Z</time>
      </trkpt>
      <trkpt lat="50.83301" lon="3.26515">
        <ele>11.974523</ele>
        <time>2022-07-14T08:39:06Z</time>
      </trkpt>
      <trkpt lat="50.83322" lon="3.26547">
        <ele>11.677745</ele>
        <time>2022-07-14T08:39:24Z</time>
      </trkpt>
      <trkpt lat="50.8333" lon="3.2657">
        <ele>11.60181</ele>
        <time>2022-07-14T08:39:28Z</time>
      </trkpt>
      <trkpt lat="50.83349" lon="3.2661">
        <ele>11.420563</ele>
        <time>2022-07-14T08:39:36Z</time>
      </trkpt>
      <trkpt lat="50.83369" lon="3.26657">
        <ele>11.17135</ele>
        <time>2022-07-14T08:39:46Z</time>
      </trkpt>
      <trkpt lat="50.83369" lon="3.26674">
        <ele>12.5</ele>
      </trkpt>
      <trkpt lat="50.83362" lon="3.26697">
        <ele>10.811499</ele>
        <time>2022-07-14T08:39:54Z</time>
      </trkpt>
      <trkpt lat="50.83328" lon="3.26735">
        <ele>10.57923</ele>
        <time>2022-07-14T08:40:04Z</time>
      </trkpt>
      <trkpt lat="50.83317" lon="3.26757">
        <ele>10.458558</ele>
        <time>2022-07-14T08:40:08Z</time>
      </trkpt>
      <trkpt lat="50.83315" lon="3.26782">
        <ele>11.7</ele>
      </trkpt>
      <trkpt lat="50.8333" lon="3.26818">
        <ele>12</ele>
        <time>2022-07-14T08:40:16Z</time>
      </trkpt>
      <trkpt lat="50.83349" lon="3.26875">
        <ele>9.83696</ele>
        <time>2022-07-14T08:40:26Z</time>
      </trkpt>
      <trkpt lat="50.83351" lon="3.26898">
        <ele>12.7</ele>
        <time>2022-07-14T08:40:49Z</time>
      </trkpt>
      <trkpt lat="50.83363" lon="3.26928">
        <ele>13.8</ele>
        <time>2022-07-14T08:40:57Z</time>
      </trkpt>
      <trkpt lat="50.83365" lon="3.26938">
        <ele>9.493891</ele>
        <time>2022-07-14T08:41:03Z</time>
      </trkpt>
      <trkpt lat="50.8337" lon="3.26977">
        <ele>9.61373</ele>
        <time>2022-07-14T08:41:11Z</time>
      </trkpt>
      <trkpt lat="50.83375" lon="3.27008">
        <ele>9.759157</ele>
        <time>2022-07-14T08:41:19Z</time>
      </trkpt>
      <trkpt lat="50.83379" lon="3.27036">
        <ele>13.3</ele>
        <time>2022-07-14T08:41:42Z</time>
      </trkpt>
      <trkpt lat="50.83395" lon="3.27114">
        <ele>14</ele>
      </trkpt>
      <trkpt lat="50.83398" lon="3.27144">
        <ele>14</ele>
      </trkpt>
      <trkpt lat="50.83414" lon="3.27155">
        <ele>14</ele>
      </trkpt>
      <trkpt lat="50.83413" lon="3.27184">
        <ele>13.9</ele>
      </trkpt>
      <trkpt lat="50.83371" lon="3.27359">
        <ele>14</ele>
        <time>2022-07-14T08:44:03Z</time>
      </trkpt>
      <trkpt lat="50.83321" lon="3.27551">
        <ele>14.9</ele>
        <time>2022-07-14T08:44:31Z</time>
      </trkpt>
      <trkpt lat="50.83285" lon="3.27711">
        <ele>17.1</ele>
        <time>2022-07-14T08:46:12Z</time>
      </trkpt>
      <trkpt lat="50.83269" lon="3.27779">
        <ele>16.3</ele>
        <time>2022-07-14T08:46:23Z</time>
      </trkpt>
      <trkpt lat="50.83256" lon="3.27834">
        <ele>17</ele>
        <time>2022-07-14T08:46:27Z</time>
      </trkpt>
      <trkpt lat="50.83239" lon="3.27903">
        <ele>16.7</ele>
        <time>2022-07-14T08:46:35Z</time>
      </trkpt>
      <trkpt lat="50.83223" lon="3.27974">
        <ele>16.9</ele>
        <time>2022-07-14T08:46:45Z</time>
      </trkpt>
      <trkpt lat="50.83208" lon="3.28038">
        <ele>16.5</ele>
        <time>2022-07-14T08:46:53Z</time>
      </trkpt>
      <trkpt lat="50.83192" lon="3.2811">
        <ele>16.1</ele>
        <time>2022-07-14T08:47:03Z</time>
      </trkpt>
      <trkpt lat="50.83181" lon="3.28163">
        <ele>16.5</ele>
        <time>2022-07-14T08:47:07Z</time>
      </trkpt>
      <trkpt lat="50.83163" lon="3.28237">
        <ele>16.1</ele>
        <time>2022-07-14T08:47:15Z</time>
      </trkpt>
      <trkpt lat="50.83147" lon="3.28309">
        <ele>16.6</ele>
        <time>2022-07-14T08:47:25Z</time>
      </trkpt>
      <trkpt lat="50.83136" lon="3.2836">
        <ele>16.1</ele>
        <time>2022-07-14T08:47:33Z</time>
      </trkpt>
      <trkpt lat="50.83127" lon="3.28411">
        <ele>16.4</ele>
        <time>2022-07-14T08:47:43Z</time>
      </trkpt>
      <trkpt lat="50.8312" lon="3.2844">
        <ele>16.7</ele>
        <time>2022-07-14T08:47:47Z</time>
      </trkpt>
      <trkpt lat="50.83107" lon="3.28499">
        <ele>16.4</ele>
        <time>2022-07-14T08:47:55Z</time>
      </trkpt>
      <trkpt lat="50.83094" lon="3.28567">
        <ele>15.682469</ele>
        <time>2022-07-14T08:48:05Z</time>
      </trkpt>
      <trkpt lat="50.83082" lon="3.28587">
        <ele>18</ele>
        <time>2022-07-14T08:48:13Z</time>
      </trkpt>
      <trkpt lat="50.83062" lon="3.2857">
        <ele>18.4</ele>
        <time>2022-07-14T08:48:21Z</time>
      </trkpt>
      <trkpt lat="50.83059" lon="3.28579">
        <ele>18.1</ele>
        <time>2022-07-14T08:48:27Z</time>
      </trkpt>
      <trkpt lat="50.83119" lon="3.28646">
        <ele>17.6</ele>
        <time>2022-07-14T08:48:35Z</time>
      </trkpt>
      <trkpt lat="50.83177" lon="3.2869">
        <ele>20.2</ele>
      </trkpt>
      <trkpt lat="50.83178" lon="3.2868">
        <ele>18.7</ele>
      </trkpt>
      <trkpt lat="50.83115" lon="3.28608">
        <ele>16.9</ele>
      </trkpt>
      <trkpt lat="50.83107" lon="3.28655">
        <ele>17.5</ele>
      </trkpt>
      <trkpt lat="50.83107" lon="3.28692">
        <ele>17.2</ele>
      </trkpt>
      <trkpt lat="50.83085" lon="3.28705">
        <ele>18</ele>
        <time>2022-07-14T08:48:43Z</time>
      </trkpt>
      <trkpt lat="50.83071" lon="3.28768">
        <ele>17.2</ele>
        <time>2022-07-14T08:48:53Z</time>
      </trkpt>
      <trkpt lat="50.83048" lon="3.28875">
        <ele>17.6</ele>
        <time>2022-07-14T08:49:01Z</time>
      </trkpt>
      <trkpt lat="50.8303" lon="3.28959">
        <ele>18</ele>
        <time>2022-07-14T08:49:07Z</time>
      </trkpt>
      <trkpt lat="50.83017" lon="3.29015">
        <ele>17.5</ele>
        <time>2022-07-14T08:49:15Z</time>
      </trkpt>
      <trkpt lat="50.83004" lon="3.29065">
        <ele>17</ele>
      </trkpt>
      <trkpt lat="50.82992" lon="3.2912">
        <ele>17.8</ele>
        <time>2022-07-14T08:49:23Z</time>
      </trkpt>
      <trkpt lat="50.82978" lon="3.29182">
        <ele>17.5</ele>
        <time>2022-07-14T08:49:33Z</time>
      </trkpt>
      <trkpt lat="50.82968" lon="3.29223">
        <ele>17.8</ele>
        <time>2022-07-14T08:49:41Z</time>
      </trkpt>
      <trkpt lat="50.82956" lon="3.29278">
        <ele>17</ele>
        <time>2022-07-14T08:49:45Z</time>
      </trkpt>
      <trkpt lat="50.82946" lon="3.29332">
        <ele>18</ele>
        <time>2022-07-14T08:49:55Z</time>
      </trkpt>
      <trkpt lat="50.82934" lon="3.2938">
        <ele>17.3</ele>
        <time>2022-07-14T08:50:03Z</time>
      </trkpt>
      <trkpt lat="50.82922" lon="3.29437">
        <ele>17.6</ele>
        <time>2022-07-14T08:50:13Z</time>
      </trkpt>
      <trkpt lat="50.82909" lon="3.29501">
        <ele>18</ele>
        <time>2022-07-14T08:50:21Z</time>
      </trkpt>
      <trkpt lat="50.82897" lon="3.29554">
        <ele>17.7</ele>
        <time>2022-07-14T08:50:25Z</time>
      </trkpt>
      <trkpt lat="50.82893" lon="3.29575">
        <ele>17.8</ele>
        <time>2022-07-14T08:50:35Z</time>
      </trkpt>
      <trkpt lat="50.829" lon="3.29602">
        <ele>17.6</ele>
        <time>2022-07-14T08:50:43Z</time>
      </trkpt>
      <trkpt lat="50.82889" lon="3.29682">
        <ele>18</ele>
        <time>2022-07-14T08:50:53Z</time>
      </trkpt>
      <trkpt lat="50.82882" lon="3.29737">
        <ele>18</ele>
        <time>2022-07-14T08:51:15Z</time>
      </trkpt>
      <trkpt lat="50.82874" lon="3.29795">
        <ele>17.5</ele>
        <time>2022-07-14T08:51:19Z</time>
      </trkpt>
      <trkpt lat="50.82867" lon="3.29847">
        <ele>17.8</ele>
        <time>2022-07-14T08:51:29Z</time>
      </trkpt>
      <trkpt lat="50.82863" lon="3.29875">
        <ele>17.5</ele>
        <time>2022-07-14T08:51:37Z</time>
      </trkpt>
      <trkpt lat="50.82847" lon="3.29898">
        <ele>17.5</ele>
        <time>2022-07-14T08:51:45Z</time>
      </trkpt>
      <trkpt lat="50.82839" lon="3.30021">
        <ele>17.8</ele>
        <time>2022-07-14T08:51:55Z</time>
      </trkpt>
      <trkpt lat="50.82835" lon="3.30094">
        <ele>17.9</ele>
        <time>2022-07-14T08:51:59Z</time>
      </trkpt>
      <trkpt lat="50.82833" lon="3.30157">
        <ele>18</ele>
        <time>2022-07-14T08:52:07Z</time>
      </trkpt>
      <trkpt lat="50.82832" lon="3.30226">
        <ele>18.1</ele>
        <time>2022-07-14T08:52:17Z</time>
      </trkpt>
      <trkpt lat="50.82833" lon="3.30287">
        <ele>19</ele>
        <time>2022-07-14T08:52:25Z</time>
      </trkpt>
      <trkpt lat="50.82833" lon="3.30343">
        <ele>18.7</ele>
        <time>2022-07-14T08:52:35Z</time>
      </trkpt>
      <trkpt lat="50.82838" lon="3.3036">
        <ele>18</ele>
        <time>2022-07-14T08:54:22Z</time>
      </trkpt>
      <trkpt lat="50.82844" lon="3.30449">
        <ele>17.22765</ele>
        <time>2022-07-14T08:54:37Z</time>
      </trkpt>
      <trkpt lat="50.82846" lon="3.30553">
        <ele>18</ele>
        <time>2022-07-14T08:54:50Z</time>
      </trkpt>
      <trkpt lat="50.82845" lon="3.30658">
        <ele>17.290262</ele>
        <time>2022-07-14T08:55:03Z</time>
      </trkpt>
      <trkpt lat="50.82844" lon="3.30709">
        <ele>17.25647</ele>
        <time>2022-07-14T08:55:09Z</time>
      </trkpt>
      <trkpt lat="50.82843" lon="3.30778">
        <ele>17.166004</ele>
        <time>2022-07-14T08:55:17Z</time>
      </trkpt>
      <trkpt lat="50.82838" lon="3.30829">
        <ele>18</ele>
      </trkpt>
      <trkpt lat="50.82838" lon="3.30893">
        <ele>17.110985</ele>
        <time>2022-07-14T08:55:30Z</time>
      </trkpt>
      <trkpt lat="50.82834" lon="3.31077">
        <ele>18</ele>
        <time>2022-07-14T08:55:51Z</time>
      </trkpt>
      <trkpt lat="50.82833" lon="3.3116">
        <ele>18</ele>
        <time>2022-07-14T08:56:00Z</time>
      </trkpt>
      <trkpt lat="50.82832" lon="3.31215">
        <ele>18</ele>
        <time>2022-07-14T08:56:06Z</time>
      </trkpt>
      <trkpt lat="50.82831" lon="3.31282">
        <ele>18</ele>
        <time>2022-07-14T08:56:14Z</time>
      </trkpt>
      <trkpt lat="50.8283" lon="3.31353">
        <ele>18</ele>
        <time>2022-07-14T08:56:22Z</time>
      </trkpt>
      <trkpt lat="50.82828" lon="3.3144">
        <ele>17.8</ele>
        <time>2022-07-14T08:56:32Z</time>
      </trkpt>
      <trkpt lat="50.82831" lon="3.31504">
        <ele>18</ele>
        <time>2022-07-14T08:56:40Z</time>
      </trkpt>
      <trkpt lat="50.8284" lon="3.31509">
        <ele>17.8</ele>
        <time>2022-07-14T08:56:44Z</time>
      </trkpt>
      <trkpt lat="50.82838" lon="3.31613">
        <ele>18</ele>
        <time>2022-07-14T08:56:54Z</time>
      </trkpt>
      <trkpt lat="50.82836" lon="3.31679">
        <ele>18</ele>
        <time>2022-07-14T08:57:02Z</time>
      </trkpt>
      <trkpt lat="50.82836" lon="3.3176">
        <ele>15.458282</ele>
        <time>2022-07-14T08:57:12Z</time>
      </trkpt>
      <trkpt lat="50.82828" lon="3.31813">
        <ele>18</ele>
        <time>2022-07-14T08:57:20Z</time>
      </trkpt>
      <trkpt lat="50.82827" lon="3.31907">
        <ele>17.5</ele>
        <time>2022-07-14T08:57:29Z</time>
      </trkpt>
      <trkpt lat="50.82823" lon="3.32077">
        <ele>20.8</ele>
        <time>2022-07-14T08:57:49Z</time>
      </trkpt>
      <trkpt lat="50.82823" lon="3.32152">
        <ele>18.3</ele>
        <time>2022-07-14T08:57:57Z</time>
      </trkpt>
      <trkpt lat="50.82821" lon="3.32237">
        <ele>17.8</ele>
        <time>2022-07-14T08:58:07Z</time>
      </trkpt>
      <trkpt lat="50.8282" lon="3.32302">
        <ele>18</ele>
        <time>2022-07-14T08:58:15Z</time>
      </trkpt>
      <trkpt lat="50.82818" lon="3.32376">
        <ele>18.1</ele>
        <time>2022-07-14T08:58:24Z</time>
      </trkpt>
      <trkpt lat="50.82816" lon="3.32463">
        <ele>18</ele>
        <time>2022-07-14T08:58:34Z</time>
      </trkpt>
      <trkpt lat="50.82815" lon="3.32535">
        <ele>17.7</ele>
        <time>2022-07-14T08:58:42Z</time>
      </trkpt>
      <trkpt lat="50.82814" lon="3.32599">
        <ele>17.7</ele>
        <time>2022-07-14T08:58:50Z</time>
      </trkpt>
      <trkpt lat="50.82813" lon="3.32686">
        <ele>17.7</ele>
        <time>2022-07-14T08:59:00Z</time>
      </trkpt>
      <trkpt lat="50.82813" lon="3.3272">
        <ele>17.7</ele>
        <time>2022-07-14T08:59:04Z</time>
      </trkpt>
      <trkpt lat="50.82811" lon="3.32791">
        <ele>17.2</ele>
        <time>2022-07-14T08:59:12Z</time>
      </trkpt>
      <trkpt lat="50.82811" lon="3.32876">
        <ele>16.590956</ele>
        <time>2022-07-14T08:59:22Z</time>
      </trkpt>
      <trkpt lat="50.8281" lon="3.32945">
        <ele>16.816418</ele>
        <time>2022-07-14T08:59:30Z</time>
      </trkpt>
      <trkpt lat="50.82809" lon="3.33034">
        <ele>16.938574</ele>
        <time>2022-07-14T08:59:40Z</time>
      </trkpt>
      <trkpt lat="50.82809" lon="3.3307">
        <ele>16.925016</ele>
        <time>2022-07-14T08:59:44Z</time>
      </trkpt>
      <trkpt lat="50.82807" lon="3.33142">
        <ele>16.801308</ele>
        <time>2022-07-14T08:59:52Z</time>
      </trkpt>
      <trkpt lat="50.82804" lon="3.33229">
        <ele>16.53764</ele>
        <time>2022-07-14T09:00:02Z</time>
      </trkpt>
      <trkpt lat="50.82799" lon="3.33299">
        <ele>16.279379</ele>
        <time>2022-07-14T09:00:10Z</time>
      </trkpt>
      <trkpt lat="50.8279" lon="3.33384">
        <ele>16.00481</ele>
        <time>2022-07-14T09:00:20Z</time>
      </trkpt>
      <trkpt lat="50.82785" lon="3.33418">
        <ele>15.963046</ele>
        <time>2022-07-14T09:00:24Z</time>
      </trkpt>
      <trkpt lat="50.82775" lon="3.33486">
        <ele>16.064934</ele>
        <time>2022-07-14T09:00:32Z</time>
      </trkpt>
      <trkpt lat="50.82753" lon="3.33599">
        <ele>16.227222</ele>
        <time>2022-07-14T09:00:47Z</time>
      </trkpt>
      <trkpt lat="50.82739" lon="3.33663">
        <ele>16.345287</ele>
        <time>2022-07-14T09:00:55Z</time>
      </trkpt>
      <trkpt lat="50.82717" lon="3.33742">
        <ele>16.239162</ele>
        <time>2022-07-14T09:01:05Z</time>
      </trkpt>
      <trkpt lat="50.82698" lon="3.33802">
        <ele>15.997394</ele>
        <time>2022-07-14T09:01:13Z</time>
      </trkpt>
      <trkpt lat="50.82687" lon="3.3383">
        <ele>15.821628</ele>
        <time>2022-07-14T09:01:17Z</time>
      </trkpt>
      <trkpt lat="50.8266" lon="3.33902">
        <ele>15.348269</ele>
        <time>2022-07-14T09:01:27Z</time>
      </trkpt>
      <trkpt lat="50.82622" lon="3.33994">
        <ele>17.6</ele>
        <time>2022-07-14T09:01:40Z</time>
      </trkpt>
      <trkpt lat="50.826" lon="3.34051">
        <ele>14.800458</ele>
        <time>2022-07-14T09:01:48Z</time>
      </trkpt>
      <trkpt lat="50.82569" lon="3.34123">
        <ele>17.5</ele>
        <time>2022-07-14T09:01:58Z</time>
      </trkpt>
      <trkpt lat="50.82557" lon="3.34152">
        <ele>17.9</ele>
        <time>2022-07-14T09:02:02Z</time>
      </trkpt>
      <trkpt lat="50.82532" lon="3.34206">
        <ele>18.4</ele>
        <time>2022-07-14T09:02:10Z</time>
      </trkpt>
      <trkpt lat="50.82499" lon="3.34273">
        <ele>15.64097</ele>
        <time>2022-07-14T09:02:20Z</time>
      </trkpt>
      <trkpt lat="50.82496" lon="3.34295">
        <ele>19.3</ele>
        <time>2022-07-14T09:04:27Z</time>
      </trkpt>
      <trkpt lat="50.82487" lon="3.34315">
        <ele>19.7</ele>
        <time>2022-07-14T09:04:35Z</time>
      </trkpt>
      <trkpt lat="50.82476" lon="3.34339">
        <ele>20.6</ele>
        <time>2022-07-14T09:04:41Z</time>
      </trkpt>
      <trkpt lat="50.82462" lon="3.34372">
        <ele>21.4</ele>
        <time>2022-07-14T09:04:49Z</time>
      </trkpt>
      <trkpt lat="50.82444" lon="3.3441">
        <ele>23.2</ele>
        <time>2022-07-14T09:04:59Z</time>
      </trkpt>
      <trkpt lat="50.82431" lon="3.34437">
        <ele>22.9</ele>
        <time>2022-07-14T09:05:07Z</time>
      </trkpt>
      <trkpt lat="50.82419" lon="3.34462">
        <ele>16.635916</ele>
        <time>2022-07-14T09:05:15Z</time>
      </trkpt>
      <trkpt lat="50.82408" lon="3.34476">
        <ele>25.4</ele>
        <time>2022-07-14T09:05:21Z</time>
      </trkpt>
      <trkpt lat="50.82399" lon="3.34478">
        <ele>25.7</ele>
        <time>2022-07-14T09:05:35Z</time>
      </trkpt>
      <trkpt lat="50.82382" lon="3.34456">
        <ele>23.2</ele>
        <time>2022-07-14T09:05:43Z</time>
      </trkpt>
      <trkpt lat="50.82338" lon="3.344">
        <ele>20.3</ele>
        <time>2022-07-14T09:06:04Z</time>
      </trkpt>
      <trkpt lat="50.82311" lon="3.34364">
        <ele>24.6</ele>
        <time>2022-07-14T09:06:17Z</time>
      </trkpt>
      <trkpt lat="50.82287" lon="3.34335">
        <ele>23.7</ele>
      </trkpt>
      <trkpt lat="50.82251" lon="3.34294">
        <ele>18.661432</ele>
        <time>2022-07-14T09:06:37Z</time>
      </trkpt>
      <trkpt lat="50.82213" lon="3.3426">
        <ele>19.105988</ele>
        <time>2022-07-14T09:06:45Z</time>
      </trkpt>
      <trkpt lat="50.82161" lon="3.34219">
        <ele>19.621012</ele>
        <time>2022-07-14T09:06:55Z</time>
      </trkpt>
      <trkpt lat="50.82146" lon="3.34219">
        <ele>21</ele>
      </trkpt>
      <trkpt lat="50.82141" lon="3.34207">
        <ele>21</ele>
        <time>2022-07-14T09:07:03Z</time>
      </trkpt>
      <trkpt lat="50.82132" lon="3.34203">
        <ele>21</ele>
      </trkpt>
      <trkpt lat="50.82123" lon="3.34216">
        <ele>21</ele>
      </trkpt>
      <trkpt lat="50.82124" lon="3.34231">
        <ele>21.2</ele>
        <time>2022-07-14T09:07:07Z</time>
      </trkpt>
      <trkpt lat="50.82145" lon="3.34293">
        <ele>20.643677</ele>
        <time>2022-07-14T09:07:17Z</time>
      </trkpt>
      <trkpt lat="50.82165" lon="3.34346">
        <ele>22</ele>
        <time>2022-07-14T09:07:25Z</time>
      </trkpt>
      <trkpt lat="50.82203" lon="3.344">
        <ele>22</ele>
        <time>2022-07-14T09:07:35Z</time>
      </trkpt>
      <trkpt lat="50.82239" lon="3.34435">
        <ele>22</ele>
        <time>2022-07-14T09:07:43Z</time>
      </trkpt>
      <trkpt lat="50.82252" lon="3.34449">
        <ele>22.2</ele>
        <time>2022-07-14T09:07:47Z</time>
      </trkpt>
      <trkpt lat="50.82284" lon="3.34481">
        <ele>24.5</ele>
      </trkpt>
      <trkpt lat="50.82273" lon="3.34498">
        <ele>21.108063</ele>
        <time>2022-07-14T09:08:02Z</time>
      </trkpt>
      <trkpt lat="50.82254" lon="3.3453">
        <ele>20.942616</ele>
        <time>2022-07-14T09:08:10Z</time>
      </trkpt>
      <trkpt lat="50.82226" lon="3.34575">
        <ele>20.67675</ele>
        <time>2022-07-14T09:08:20Z</time>
      </trkpt>
      <trkpt lat="50.822" lon="3.34622">
        <ele>20.515692</ele>
        <time>2022-07-14T09:08:28Z</time>
      </trkpt>
      <trkpt lat="50.82186" lon="3.34648">
        <ele>20.472237</ele>
        <time>2022-07-14T09:08:32Z</time>
      </trkpt>
      <trkpt lat="50.82151" lon="3.34714">
        <ele>20.571476</ele>
        <time>2022-07-14T09:08:42Z</time>
      </trkpt>
      <trkpt lat="50.82123" lon="3.34767">
        <ele>20.798523</ele>
        <time>2022-07-14T09:08:50Z</time>
      </trkpt>
      <trkpt lat="50.82095" lon="3.34821">
        <ele>21.173738</ele>
        <time>2022-07-14T09:08:58Z</time>
      </trkpt>
      <trkpt lat="50.82056" lon="3.34879">
        <ele>21.735296</ele>
        <time>2022-07-14T09:09:08Z</time>
      </trkpt>
      <trkpt lat="50.82048" lon="3.34886">
        <ele>26</ele>
      </trkpt>
      <trkpt lat="50.82037" lon="3.34878">
        <ele>21.983572</ele>
        <time>2022-07-14T09:09:12Z</time>
      </trkpt>
      <trkpt lat="50.81995" lon="3.34854">
        <ele>22.422731</ele>
        <time>2022-07-14T09:09:20Z</time>
      </trkpt>
      <trkpt lat="50.81952" lon="3.34832">
        <ele>25.3</ele>
      </trkpt>
      <trkpt lat="50.81946" lon="3.34843">
        <ele>25.7</ele>
        <time>2022-07-14T09:09:31Z</time>
      </trkpt>
      <trkpt lat="50.81922" lon="3.3489">
        <ele>25.3</ele>
        <time>2022-07-14T09:09:39Z</time>
      </trkpt>
      <trkpt lat="50.819" lon="3.34935">
        <ele>25.5</ele>
      </trkpt>
      <trkpt lat="50.81894" lon="3.34968">
        <ele>25.9</ele>
        <time>2022-07-14T09:09:49Z</time>
      </trkpt>
      <trkpt lat="50.81889" lon="3.34998">
        <ele>23.563625</ele>
        <time>2022-07-14T09:09:53Z</time>
      </trkpt>
      <trkpt lat="50.81879" lon="3.35032">
        <ele>25.4</ele>
      </trkpt>
      <trkpt lat="50.81861" lon="3.35048">
        <ele>23.730747</ele>
        <time>2022-07-14T09:10:01Z</time>
      </trkpt>
      <trkpt lat="50.8181" lon="3.35087">
        <ele>23.99107</ele>
        <time>2022-07-14T09:10:11Z</time>
      </trkpt>
      <trkpt lat="50.81768" lon="3.35117">
        <ele>26.1</ele>
        <time>2022-07-14T09:10:19Z</time>
      </trkpt>
      <trkpt lat="50.81716" lon="3.35157">
        <ele>26.9</ele>
        <time>2022-07-14T09:10:29Z</time>
      </trkpt>
      <trkpt lat="50.81694" lon="3.35172">
        <ele>27.8</ele>
        <time>2022-07-14T09:10:33Z</time>
      </trkpt>
      <trkpt lat="50.81655" lon="3.35202">
        <ele>26.6</ele>
        <time>2022-07-14T09:10:41Z</time>
      </trkpt>
      <trkpt lat="50.81599" lon="3.35245">
        <ele>26</ele>
        <time>2022-07-14T09:10:51Z</time>
      </trkpt>
      <trkpt lat="50.81557" lon="3.35279">
        <ele>25.0672</ele>
        <time>2022-07-14T09:10:59Z</time>
      </trkpt>
      <trkpt lat="50.81516" lon="3.35311">
        <ele>25.145784</ele>
        <time>2022-07-14T09:11:07Z</time>
      </trkpt>
      <trkpt lat="50.81484" lon="3.35335">
        <ele>25.107218</ele>
        <time>2022-07-14T09:11:13Z</time>
      </trkpt>
      <trkpt lat="50.81443" lon="3.35367">
        <ele>24.89035</ele>
        <time>2022-07-14T09:11:21Z</time>
      </trkpt>
      <trkpt lat="50.81393" lon="3.35405">
        <ele>24.360043</ele>
        <time>2022-07-14T09:11:31Z</time>
      </trkpt>
      <trkpt lat="50.81353" lon="3.35431">
        <ele>26.1</ele>
        <time>2022-07-14T09:11:39Z</time>
      </trkpt>
      <trkpt lat="50.81311" lon="3.35461">
        <ele>24.7</ele>
        <time>2022-07-14T09:11:47Z</time>
      </trkpt>
      <trkpt lat="50.81281" lon="3.35483">
        <ele>24.7</ele>
        <time>2022-07-14T09:11:53Z</time>
      </trkpt>
      <trkpt lat="50.8124" lon="3.35514">
        <ele>25.6</ele>
        <time>2022-07-14T09:12:01Z</time>
      </trkpt>
      <trkpt lat="50.81199" lon="3.35545">
        <ele>25.4</ele>
        <time>2022-07-14T09:12:09Z</time>
      </trkpt>
      <trkpt lat="50.81145" lon="3.35588">
        <ele>26</ele>
        <time>2022-07-14T09:12:19Z</time>
      </trkpt>
      <trkpt lat="50.81103" lon="3.35622">
        <ele>25.4</ele>
        <time>2022-07-14T09:12:27Z</time>
      </trkpt>
      <trkpt lat="50.8108" lon="3.35639">
        <ele>25.9</ele>
        <time>2022-07-14T09:12:31Z</time>
      </trkpt>
      <trkpt lat="50.81027" lon="3.35682">
        <ele>25.9</ele>
        <time>2022-07-14T09:12:41Z</time>
      </trkpt>
      <trkpt lat="50.80985" lon="3.35715">
        <ele>25.7</ele>
        <time>2022-07-14T09:12:49Z</time>
      </trkpt>
      <trkpt lat="50.80932" lon="3.35756">
        <ele>25.7</ele>
        <time>2022-07-14T09:12:59Z</time>
      </trkpt>
      <trkpt lat="50.80891" lon="3.35787">
        <ele>26</ele>
        <time>2022-07-14T09:13:07Z</time>
      </trkpt>
      <trkpt lat="50.80868" lon="3.35805">
        <ele>26</ele>
        <time>2022-07-14T09:13:11Z</time>
      </trkpt>
      <trkpt lat="50.80818" lon="3.35845">
        <ele>25.7</ele>
        <time>2022-07-14T09:13:21Z</time>
      </trkpt>
      <trkpt lat="50.80777" lon="3.35876">
        <ele>25.9</ele>
        <time>2022-07-14T09:13:29Z</time>
      </trkpt>
      <trkpt lat="50.80725" lon="3.35916">
        <ele>26</ele>
        <time>2022-07-14T09:13:39Z</time>
      </trkpt>
      <trkpt lat="50.80684" lon="3.35949">
        <ele>22.89172</ele>
        <time>2022-07-14T09:13:47Z</time>
      </trkpt>
      <trkpt lat="50.80661" lon="3.35965">
        <ele>25.6</ele>
        <time>2022-07-14T09:13:51Z</time>
      </trkpt>
      <trkpt lat="50.80611" lon="3.36006">
        <ele>23.146633</ele>
        <time>2022-07-14T09:14:01Z</time>
      </trkpt>
      <trkpt lat="50.80569" lon="3.36036">
        <ele>25.6</ele>
        <time>2022-07-14T09:14:09Z</time>
      </trkpt>
      <trkpt lat="50.80518" lon="3.36076">
        <ele>22.977791</ele>
        <time>2022-07-14T09:14:19Z</time>
      </trkpt>
      <trkpt lat="50.80476" lon="3.36108">
        <ele>22.856863</ele>
        <time>2022-07-14T09:14:27Z</time>
      </trkpt>
      <trkpt lat="50.80455" lon="3.36124">
        <ele>22.812346</ele>
        <time>2022-07-14T09:14:31Z</time>
      </trkpt>
      <trkpt lat="50.80404" lon="3.36164">
        <ele>22.88673</ele>
        <time>2022-07-14T09:14:41Z</time>
      </trkpt>
      <trkpt lat="50.80363" lon="3.36195">
        <ele>23.133335</ele>
        <time>2022-07-14T09:14:49Z</time>
      </trkpt>
      <trkpt lat="50.80321" lon="3.36227">
        <ele>23.368389</ele>
        <time>2022-07-14T09:14:57Z</time>
      </trkpt>
      <trkpt lat="50.80272" lon="3.36264">
        <ele>23.721876</ele>
        <time>2022-07-14T09:15:07Z</time>
      </trkpt>
      <trkpt lat="50.80253" lon="3.36279">
        <ele>23.930641</ele>
        <time>2022-07-14T09:15:11Z</time>
      </trkpt>
      <trkpt lat="50.80212" lon="3.36307">
        <ele>26.4</ele>
        <time>2022-07-14T09:15:19Z</time>
      </trkpt>
      <trkpt lat="50.80166" lon="3.36345">
        <ele>25.08559</ele>
        <time>2022-07-14T09:15:29Z</time>
      </trkpt>
      <trkpt lat="50.80126" lon="3.36374">
        <ele>25.553579</ele>
        <time>2022-07-14T09:15:37Z</time>
      </trkpt>
      <trkpt lat="50.80079" lon="3.36411">
        <ele>26.065022</ele>
        <time>2022-07-14T09:15:47Z</time>
      </trkpt>
      <trkpt lat="50.80059" lon="3.36426">
        <ele>26.325306</ele>
        <time>2022-07-14T09:15:51Z</time>
      </trkpt>
      <trkpt lat="50.80018" lon="3.36458">
        <ele>26.749781</ele>
        <time>2022-07-14T09:15:59Z</time>
      </trkpt>
      <trkpt lat="50.79965" lon="3.36497">
        <ele>28</ele>
        <time>2022-07-14T09:16:09Z</time>
      </trkpt>
      <trkpt lat="50.79924" lon="3.36529">
        <ele>27.4</ele>
        <time>2022-07-14T09:16:17Z</time>
      </trkpt>
      <trkpt lat="50.79872" lon="3.36568">
        <ele>28.1</ele>
        <time>2022-07-14T09:16:27Z</time>
      </trkpt>
      <trkpt lat="50.79854" lon="3.36584">
        <ele>27.713421</ele>
        <time>2022-07-14T09:16:31Z</time>
      </trkpt>
      <trkpt lat="50.7981" lon="3.36617">
        <ele>27.965399</ele>
        <time>2022-07-14T09:16:39Z</time>
      </trkpt>
      <trkpt lat="50.79757" lon="3.36657">
        <ele>28.250072</ele>
        <time>2022-07-14T09:16:49Z</time>
      </trkpt>
      <trkpt lat="50.79715" lon="3.3669">
        <ele>28.4827</ele>
        <time>2022-07-14T09:16:57Z</time>
      </trkpt>
      <trkpt lat="50.79672" lon="3.36722">
        <ele>27.7</ele>
        <time>2022-07-14T09:17:05Z</time>
      </trkpt>
      <trkpt lat="50.79641" lon="3.36744">
        <ele>28.2</ele>
        <time>2022-07-14T09:17:11Z</time>
      </trkpt>
      <trkpt lat="50.79603" lon="3.36776">
        <ele>29.487103</ele>
        <time>2022-07-14T09:17:19Z</time>
      </trkpt>
      <trkpt lat="50.79549" lon="3.36815">
        <ele>28.3</ele>
        <time>2022-07-14T09:17:29Z</time>
      </trkpt>
      <trkpt lat="50.79508" lon="3.36845">
        <ele>29.1</ele>
        <time>2022-07-14T09:17:37Z</time>
      </trkpt>
      <trkpt lat="50.79464" lon="3.36876">
        <ele>29.7</ele>
        <time>2022-07-14T09:17:45Z</time>
      </trkpt>
      <trkpt lat="50.79433" lon="3.36898">
        <ele>29.7</ele>
        <time>2022-07-14T09:17:51Z</time>
      </trkpt>
      <trkpt lat="50.79395" lon="3.36925">
        <ele>30.4</ele>
        <time>2022-07-14T09:17:59Z</time>
      </trkpt>
      <trkpt lat="50.79354" lon="3.36956">
        <ele>30.4</ele>
        <time>2022-07-14T09:18:07Z</time>
      </trkpt>
      <trkpt lat="50.79308" lon="3.36988">
        <ele>30.1</ele>
        <time>2022-07-14T09:18:17Z</time>
      </trkpt>
      <trkpt lat="50.79293" lon="3.37009">
        <ele>28.7</ele>
      </trkpt>
      <trkpt lat="50.79266" lon="3.37022">
        <ele>29.3</ele>
        <time>2022-07-14T09:18:25Z</time>
      </trkpt>
      <trkpt lat="50.79245" lon="3.37038">
        <ele>32.357712</ele>
        <time>2022-07-14T09:18:29Z</time>
      </trkpt>
      <trkpt lat="50.79194" lon="3.37072">
        <ele>32.094959</ele>
        <time>2022-07-14T09:18:39Z</time>
      </trkpt>
      <trkpt lat="50.79153" lon="3.37098">
        <ele>32.005768</ele>
        <time>2022-07-14T09:18:47Z</time>
      </trkpt>
      <trkpt lat="50.79105" lon="3.37129">
        <ele>32.139931</ele>
        <time>2022-07-14T09:18:57Z</time>
      </trkpt>
      <trkpt lat="50.79067" lon="3.37154">
        <ele>28</ele>
        <time>2022-07-14T09:19:05Z</time>
      </trkpt>
      <trkpt lat="50.79046" lon="3.37164">
        <ele>27.9</ele>
        <time>2022-07-14T09:19:09Z</time>
      </trkpt>
      <trkpt lat="50.78996" lon="3.37189">
        <ele>33.508171</ele>
        <time>2022-07-14T09:19:19Z</time>
      </trkpt>
      <trkpt lat="50.78956" lon="3.37216">
        <ele>34.241192</ele>
        <time>2022-07-14T09:19:27Z</time>
      </trkpt>
      <trkpt lat="50.78905" lon="3.37246">
        <ele>35.001598</ele>
        <time>2022-07-14T09:19:37Z</time>
      </trkpt>
      <trkpt lat="50.78862" lon="3.37275">
        <ele>35.365925</ele>
        <time>2022-07-14T09:19:45Z</time>
      </trkpt>
      <trkpt lat="50.78841" lon="3.37289">
        <ele>35.510567</ele>
        <time>2022-07-14T09:19:49Z</time>
      </trkpt>
      <trkpt lat="50.78787" lon="3.37327">
        <ele>35.613209</ele>
        <time>2022-07-14T09:19:59Z</time>
      </trkpt>
      <trkpt lat="50.78744" lon="3.37357">
        <ele>35.529175</ele>
        <time>2022-07-14T09:20:07Z</time>
      </trkpt>
      <trkpt lat="50.78692" lon="3.37391">
        <ele>35.22683</ele>
        <time>2022-07-14T09:20:17Z</time>
      </trkpt>
      <trkpt lat="50.78649" lon="3.37421">
        <ele>34.872269</ele>
        <time>2022-07-14T09:20:25Z</time>
      </trkpt>
      <trkpt lat="50.78627" lon="3.37435">
        <ele>34.686558</ele>
        <time>2022-07-14T09:20:29Z</time>
      </trkpt>
      <trkpt lat="50.78573" lon="3.3747">
        <ele>34.302971</ele>
        <time>2022-07-14T09:20:39Z</time>
      </trkpt>
      <trkpt lat="50.78531" lon="3.37498">
        <ele>34.03043</ele>
        <time>2022-07-14T09:20:47Z</time>
      </trkpt>
      <trkpt lat="50.7849" lon="3.37523">
        <ele>27.4</ele>
        <time>2022-07-14T09:20:55Z</time>
      </trkpt>
      <trkpt lat="50.78435" lon="3.37558">
        <ele>33.720985</ele>
        <time>2022-07-14T09:21:05Z</time>
      </trkpt>
      <trkpt lat="50.78415" lon="3.37568">
        <ele>33.69516</ele>
        <time>2022-07-14T09:21:09Z</time>
      </trkpt>
      <trkpt lat="50.784" lon="3.37572">
        <ele>28.2</ele>
      </trkpt>
      <trkpt lat="50.78376" lon="3.37586">
        <ele>27.7</ele>
        <time>2022-07-14T09:21:17Z</time>
      </trkpt>
      <trkpt lat="50.78323" lon="3.37619">
        <ele>28.1</ele>
        <time>2022-07-14T09:21:27Z</time>
      </trkpt>
      <trkpt lat="50.78278" lon="3.37645">
        <ele>33.886478</ele>
        <time>2022-07-14T09:21:35Z</time>
      </trkpt>
      <trkpt lat="50.78226" lon="3.37677">
        <ele>34.062183</ele>
        <time>2022-07-14T09:21:45Z</time>
      </trkpt>
      <trkpt lat="50.78205" lon="3.37692">
        <ele>27.6</ele>
        <time>2022-07-14T09:21:49Z</time>
      </trkpt>
      <trkpt lat="50.78169" lon="3.37712">
        <ele>34.186184</ele>
        <time>2022-07-14T09:21:57Z</time>
      </trkpt>
      <trkpt lat="50.78117" lon="3.37747">
        <ele>27.6</ele>
        <time>2022-07-14T09:22:07Z</time>
      </trkpt>
      <trkpt lat="50.78077" lon="3.37771">
        <ele>33.965355</ele>
        <time>2022-07-14T09:22:15Z</time>
      </trkpt>
      <trkpt lat="50.78031" lon="3.37799">
        <ele>27.2</ele>
        <time>2022-07-14T09:22:25Z</time>
      </trkpt>
      <trkpt lat="50.78009" lon="3.37815">
        <ele>33.155663</ele>
        <time>2022-07-14T09:22:29Z</time>
      </trkpt>
      <trkpt lat="50.77969" lon="3.37838">
        <ele>32.249493</ele>
        <time>2022-07-14T09:22:37Z</time>
      </trkpt>
      <trkpt lat="50.77916" lon="3.37873">
        <ele>30.816116</ele>
        <time>2022-07-14T09:22:47Z</time>
      </trkpt>
      <trkpt lat="50.77873" lon="3.379">
        <ele>25.7</ele>
        <time>2022-07-14T09:22:55Z</time>
      </trkpt>
      <trkpt lat="50.77842" lon="3.37926">
        <ele>26</ele>
        <time>2022-07-14T09:23:03Z</time>
      </trkpt>
      <trkpt lat="50.77855" lon="3.37963">
        <ele>26.1</ele>
      </trkpt>
      <trkpt lat="50.77848" lon="3.37982">
        <ele>25.406059</ele>
        <time>2022-07-14T09:23:17Z</time>
      </trkpt>
      <trkpt lat="50.77837" lon="3.37996">
        <ele>27.7</ele>
      </trkpt>
      <trkpt lat="50.77826" lon="3.38007">
        <ele>27.4</ele>
        <time>2022-07-14T09:23:27Z</time>
      </trkpt>
      <trkpt lat="50.77814" lon="3.3802">
        <ele>23.073046</ele>
        <time>2022-07-14T09:24:04Z</time>
      </trkpt>
      <trkpt lat="50.77785" lon="3.38042">
        <ele>26.6</ele>
        <time>2022-07-14T09:24:12Z</time>
      </trkpt>
      <trkpt lat="50.7776" lon="3.38065">
        <ele>26</ele>
        <time>2022-07-14T09:24:18Z</time>
      </trkpt>
      <trkpt lat="50.77723" lon="3.38099">
        <ele>25</ele>
        <time>2022-07-14T09:24:26Z</time>
      </trkpt>
      <trkpt lat="50.77685" lon="3.38135">
        <ele>24.7</ele>
        <time>2022-07-14T09:24:34Z</time>
      </trkpt>
      <trkpt lat="50.7764" lon="3.38177">
        <ele>23.6</ele>
        <time>2022-07-14T09:24:44Z</time>
      </trkpt>
      <trkpt lat="50.77602" lon="3.38211">
        <ele>23</ele>
        <time>2022-07-14T09:24:52Z</time>
      </trkpt>
      <trkpt lat="50.7759" lon="3.38222">
        <ele>23</ele>
        <time>2022-07-14T09:24:56Z</time>
      </trkpt>
      <trkpt lat="50.77556" lon="3.38251">
        <ele>23.453718</ele>
        <time>2022-07-14T09:25:06Z</time>
      </trkpt>
      <trkpt lat="50.77522" lon="3.38282">
        <ele>23.457848</ele>
        <time>2022-07-14T09:25:14Z</time>
      </trkpt>
      <trkpt lat="50.77479" lon="3.38323">
        <ele>23.429279</ele>
        <time>2022-07-14T09:25:24Z</time>
      </trkpt>
      <trkpt lat="50.77444" lon="3.38354">
        <ele>23.329128</ele>
        <time>2022-07-14T09:25:32Z</time>
      </trkpt>
      <trkpt lat="50.77425" lon="3.38372">
        <ele>23.237892</ele>
        <time>2022-07-14T09:25:36Z</time>
      </trkpt>
      <trkpt lat="50.77378" lon="3.3841">
        <ele>23.079121</ele>
        <time>2022-07-14T09:25:46Z</time>
      </trkpt>
      <trkpt lat="50.77342" lon="3.38441">
        <ele>23.02042</ele>
        <time>2022-07-14T09:25:54Z</time>
      </trkpt>
      <trkpt lat="50.77294" lon="3.38483">
        <ele>22.997093</ele>
        <time>2022-07-14T09:26:04Z</time>
      </trkpt>
      <trkpt lat="50.77256" lon="3.38516">
        <ele>22.949232</ele>
        <time>2022-07-14T09:26:12Z</time>
      </trkpt>
      <trkpt lat="50.77237" lon="3.38534">
        <ele>22.897158</ele>
        <time>2022-07-14T09:26:16Z</time>
      </trkpt>
      <trkpt lat="50.7719" lon="3.38575">
        <ele>22.775517</ele>
        <time>2022-07-14T09:26:26Z</time>
      </trkpt>
      <trkpt lat="50.77152" lon="3.3861">
        <ele>22.707241</ele>
        <time>2022-07-14T09:26:34Z</time>
      </trkpt>
      <trkpt lat="50.77103" lon="3.38656">
        <ele>22.455723</ele>
        <time>2022-07-14T09:26:44Z</time>
      </trkpt>
      <trkpt lat="50.77065" lon="3.38698">
        <ele>22.064392</ele>
        <time>2022-07-14T09:26:52Z</time>
      </trkpt>
      <trkpt lat="50.77047" lon="3.3872">
        <ele>21.754269</ele>
        <time>2022-07-14T09:26:56Z</time>
      </trkpt>
      <trkpt lat="50.77004" lon="3.38772">
        <ele>20.969486</ele>
        <time>2022-07-14T09:27:06Z</time>
      </trkpt>
      <trkpt lat="50.7697" lon="3.38819">
        <ele>20.430943</ele>
        <time>2022-07-14T09:27:14Z</time>
      </trkpt>
      <trkpt lat="50.76938" lon="3.38868">
        <ele>19.991713</ele>
        <time>2022-07-14T09:27:22Z</time>
      </trkpt>
      <trkpt lat="50.76902" lon="3.3893">
        <ele>19.534912</ele>
        <time>2022-07-14T09:27:32Z</time>
      </trkpt>
      <trkpt lat="50.76888" lon="3.38954">
        <ele>19.393475</ele>
        <time>2022-07-14T09:27:36Z</time>
      </trkpt>
      <trkpt lat="50.76863" lon="3.39001">
        <ele>19.303225</ele>
        <time>2022-07-14T09:27:44Z</time>
      </trkpt>
      <trkpt lat="50.76832" lon="3.39064">
        <ele>19.664669</ele>
        <time>2022-07-14T09:27:54Z</time>
      </trkpt>
      <trkpt lat="50.76811" lon="3.39115">
        <ele>23.6</ele>
        <time>2022-07-14T09:28:02Z</time>
      </trkpt>
      <trkpt lat="50.76788" lon="3.39172">
        <ele>24.2</ele>
        <time>2022-07-14T09:28:12Z</time>
      </trkpt>
      <trkpt lat="50.76777" lon="3.39199">
        <ele>25</ele>
        <time>2022-07-14T09:28:16Z</time>
      </trkpt>
      <trkpt lat="50.7676" lon="3.39238">
        <ele>24.7</ele>
        <time>2022-07-14T09:28:24Z</time>
      </trkpt>
      <trkpt lat="50.76735" lon="3.39301">
        <ele>25.2</ele>
        <time>2022-07-14T09:28:34Z</time>
      </trkpt>
      <trkpt lat="50.76713" lon="3.39348">
        <ele>26.3</ele>
        <time>2022-07-14T09:28:42Z</time>
      </trkpt>
      <trkpt lat="50.76661" lon="3.39446">
        <ele>27.9</ele>
        <time>2022-07-14T09:29:02Z</time>
      </trkpt>
      <trkpt lat="50.76651" lon="3.39466">
        <ele>27.7</ele>
        <time>2022-07-14T09:29:06Z</time>
      </trkpt>
      <trkpt lat="50.76636" lon="3.39494">
        <ele>29</ele>
        <time>2022-07-14T09:29:14Z</time>
      </trkpt>
      <trkpt lat="50.76613" lon="3.39541">
        <ele>25.045404</ele>
        <time>2022-07-14T09:29:24Z</time>
      </trkpt>
      <trkpt lat="50.76589" lon="3.39589">
        <ele>25.495817</ele>
        <time>2022-07-14T09:29:37Z</time>
      </trkpt>
      <trkpt lat="50.76562" lon="3.39623">
        <ele>25.9</ele>
        <time>2022-07-14T09:29:45Z</time>
      </trkpt>
      <trkpt lat="50.76539" lon="3.39643">
        <ele>26.4793</ele>
        <time>2022-07-14T09:29:51Z</time>
      </trkpt>
      <trkpt lat="50.76509" lon="3.39667">
        <ele>26.928391</ele>
        <time>2022-07-14T09:29:59Z</time>
      </trkpt>
      <trkpt lat="50.76473" lon="3.39695">
        <ele>27.377029</ele>
        <time>2022-07-14T09:30:09Z</time>
      </trkpt>
      <trkpt lat="50.76442" lon="3.39725">
        <ele>27.662037</ele>
        <time>2022-07-14T09:30:17Z</time>
      </trkpt>
      <trkpt lat="50.76391" lon="3.39773">
        <ele>27.849407</ele>
        <time>2022-07-14T09:30:30Z</time>
      </trkpt>
      <trkpt lat="50.76368" lon="3.39797">
        <ele>27.88641</ele>
        <time>2022-07-14T09:30:36Z</time>
      </trkpt>
      <trkpt lat="50.76333" lon="3.39836">
        <ele>26.8</ele>
        <time>2022-07-14T09:30:44Z</time>
      </trkpt>
      <trkpt lat="50.7631" lon="3.39877">
        <ele>27.624798</ele>
        <time>2022-07-14T09:30:52Z</time>
      </trkpt>
      <trkpt lat="50.76272" lon="3.39931">
        <ele>24.6</ele>
      </trkpt>
      <trkpt lat="50.76231" lon="3.3998">
        <ele>27.301477</ele>
        <time>2022-07-14T09:31:08Z</time>
      </trkpt>
      <trkpt lat="50.76195" lon="3.40018">
        <ele>24.1</ele>
        <time>2022-07-14T09:31:16Z</time>
      </trkpt>
      <trkpt lat="50.76176" lon="3.40037">
        <ele>24.3</ele>
        <time>2022-07-14T09:31:20Z</time>
      </trkpt>
      <trkpt lat="50.76144" lon="3.40068">
        <ele>24.3</ele>
        <time>2022-07-14T09:31:30Z</time>
      </trkpt>
      <trkpt lat="50.76104" lon="3.40091">
        <ele>24.8</ele>
        <time>2022-07-14T09:31:38Z</time>
      </trkpt>
      <trkpt lat="50.76077" lon="3.40109">
        <ele>25.027857</ele>
        <time>2022-07-14T09:31:48Z</time>
      </trkpt>
      <trkpt lat="50.76042" lon="3.40128">
        <ele>25.7</ele>
        <time>2022-07-14T09:31:56Z</time>
      </trkpt>
      <trkpt lat="50.76027" lon="3.40139">
        <ele>26</ele>
        <time>2022-07-14T09:32:00Z</time>
      </trkpt>
      <trkpt lat="50.75994" lon="3.40167">
        <ele>24.8</ele>
        <time>2022-07-14T09:32:10Z</time>
      </trkpt>
      <trkpt lat="50.75961" lon="3.40203">
        <ele>23.862812</ele>
        <time>2022-07-14T09:32:18Z</time>
      </trkpt>
      <trkpt lat="50.75916" lon="3.40248">
        <ele>23.531971</ele>
        <time>2022-07-14T09:32:28Z</time>
      </trkpt>
      <trkpt lat="50.75882" lon="3.40283">
        <ele>23.276043</ele>
        <time>2022-07-14T09:32:36Z</time>
      </trkpt>
      <trkpt lat="50.75866" lon="3.403">
        <ele>23.104504</ele>
        <time>2022-07-14T09:32:40Z</time>
      </trkpt>
      <trkpt lat="50.75824" lon="3.40342">
        <ele>22.667767</ele>
        <time>2022-07-14T09:32:50Z</time>
      </trkpt>
      <trkpt lat="50.75791" lon="3.40376">
        <ele>22.201397</ele>
        <time>2022-07-14T09:32:58Z</time>
      </trkpt>
      <trkpt lat="50.75776" lon="3.40402">
        <ele>23.5</ele>
      </trkpt>
      <trkpt lat="50.75757" lon="3.40423">
        <ele>21.5704</ele>
        <time>2022-07-14T09:33:08Z</time>
      </trkpt>
      <trkpt lat="50.75721" lon="3.40454">
        <ele>21.079586</ele>
        <time>2022-07-14T09:33:16Z</time>
      </trkpt>
      <trkpt lat="50.75704" lon="3.4047">
        <ele>20.818705</ele>
        <time>2022-07-14T09:33:20Z</time>
      </trkpt>
      <trkpt lat="50.75663" lon="3.40512">
        <ele>20.227261</ele>
        <time>2022-07-14T09:33:30Z</time>
      </trkpt>
      <trkpt lat="50.75631" lon="3.40544">
        <ele>19.819529</ele>
        <time>2022-07-14T09:33:38Z</time>
      </trkpt>
      <trkpt lat="50.75596" lon="3.4058">
        <ele>19.502747</ele>
        <time>2022-07-14T09:33:46Z</time>
      </trkpt>
      <trkpt lat="50.75549" lon="3.40627">
        <ele>19.088257</ele>
        <time>2022-07-14T09:33:56Z</time>
      </trkpt>
      <trkpt lat="50.7553" lon="3.40646">
        <ele>18.893085</ele>
        <time>2022-07-14T09:34:00Z</time>
      </trkpt>
      <trkpt lat="50.75488" lon="3.40685">
        <ele>18.593023</ele>
        <time>2022-07-14T09:34:08Z</time>
      </trkpt>
      <trkpt lat="50.75433" lon="3.40724">
        <ele>18.380194</ele>
        <time>2022-07-14T09:34:18Z</time>
      </trkpt>
      <trkpt lat="50.75384" lon="3.40756">
        <ele>18.310774</ele>
        <time>2022-07-14T09:34:26Z</time>
      </trkpt>
      <trkpt lat="50.7533" lon="3.40793">
        <ele>18.296116</ele>
        <time>2022-07-14T09:34:36Z</time>
      </trkpt>
      <trkpt lat="50.75311" lon="3.40805">
        <ele>18.307423</ele>
        <time>2022-07-14T09:34:40Z</time>
      </trkpt>
      <trkpt lat="50.75271" lon="3.40832">
        <ele>18.35046</ele>
        <time>2022-07-14T09:34:48Z</time>
      </trkpt>
      <trkpt lat="50.75221" lon="3.40866">
        <ele>18.438517</ele>
        <time>2022-07-14T09:34:58Z</time>
      </trkpt>
      <trkpt lat="50.75183" lon="3.4089">
        <ele>18.429754</ele>
        <time>2022-07-14T09:35:06Z</time>
      </trkpt>
      <trkpt lat="50.75134" lon="3.40924">
        <ele>18.34992</ele>
        <time>2022-07-14T09:35:16Z</time>
      </trkpt>
      <trkpt lat="50.75115" lon="3.40937">
        <ele>18.323629</ele>
        <time>2022-07-14T09:35:20Z</time>
      </trkpt>
      <trkpt lat="50.75076" lon="3.40964">
        <ele>18.272358</ele>
        <time>2022-07-14T09:35:28Z</time>
      </trkpt>
      <trkpt lat="50.75025" lon="3.40996">
        <ele>19</ele>
        <time>2022-07-14T09:35:38Z</time>
      </trkpt>
      <trkpt lat="50.74987" lon="3.41027">
        <ele>18.012041</ele>
        <time>2022-07-14T09:35:46Z</time>
      </trkpt>
      <trkpt lat="50.74945" lon="3.41052">
        <ele>19</ele>
        <time>2022-07-14T09:35:54Z</time>
      </trkpt>
      <trkpt lat="50.74913" lon="3.41078">
        <ele>17.625362</ele>
        <time>2022-07-14T09:36:00Z</time>
      </trkpt>
      <trkpt lat="50.74909" lon="3.41075">
        <ele>19.5</ele>
      </trkpt>
      <trkpt lat="50.74878" lon="3.41093">
        <ele>20</ele>
        <time>2022-07-14T09:36:08Z</time>
      </trkpt>
      <trkpt lat="50.74854" lon="3.41102">
        <ele>19.8</ele>
        <time>2022-07-14T09:36:24Z</time>
      </trkpt>
      <trkpt lat="50.74835" lon="3.41105">
        <ele>19.3</ele>
        <time>2022-07-14T09:36:32Z</time>
      </trkpt>
      <trkpt lat="50.74808" lon="3.41115">
        <ele>16.4</ele>
        <time>2022-07-14T09:36:54Z</time>
      </trkpt>
      <trkpt lat="50.74779" lon="3.41128">
        <ele>16.4</ele>
        <time>2022-07-14T09:37:00Z</time>
      </trkpt>
      <trkpt lat="50.74747" lon="3.41143">
        <ele>14.9</ele>
        <time>2022-07-14T09:37:13Z</time>
      </trkpt>
      <trkpt lat="50.74718" lon="3.41159">
        <ele>15.3</ele>
      </trkpt>
      <trkpt lat="50.74714" lon="3.41178">
        <ele>15.4</ele>
      </trkpt>
      <trkpt lat="50.74692" lon="3.41204">
        <ele>15.088404</ele>
        <time>2022-07-14T09:37:26Z</time>
      </trkpt>
      <trkpt lat="50.74666" lon="3.41195">
        <ele>13.9</ele>
      </trkpt>
      <trkpt lat="50.74654" lon="3.41191">
        <ele>13.8</ele>
      </trkpt>
      <trkpt lat="50.74642" lon="3.41179">
        <ele>14.533191</ele>
        <time>2022-07-14T09:37:36Z</time>
      </trkpt>
      <trkpt lat="50.74632" lon="3.41161">
        <ele>13.5</ele>
      </trkpt>
      <trkpt lat="50.74625" lon="3.41116">
        <ele>13.980553</ele>
        <time>2022-07-14T09:37:44Z</time>
      </trkpt>
      <trkpt lat="50.74619" lon="3.41082">
        <ele>13.729747</ele>
        <time>2022-07-14T09:37:48Z</time>
      </trkpt>
      <trkpt lat="50.74601" lon="3.41">
        <ele>13.032041</ele>
        <time>2022-07-14T09:37:58Z</time>
      </trkpt>
      <trkpt lat="50.74585" lon="3.40935">
        <ele>12.585544</ele>
        <time>2022-07-14T09:38:06Z</time>
      </trkpt>
      <trkpt lat="50.74561" lon="3.40857">
        <ele>12.187928</ele>
        <time>2022-07-14T09:38:16Z</time>
      </trkpt>
      <trkpt lat="50.7454" lon="3.40795">
        <ele>12.080034</ele>
        <time>2022-07-14T09:38:24Z</time>
      </trkpt>
      <trkpt lat="50.7453" lon="3.40765">
        <ele>12.068078</ele>
        <time>2022-07-14T09:38:28Z</time>
      </trkpt>
      <trkpt lat="50.74498" lon="3.40693">
        <ele>12.060273</ele>
        <time>2022-07-14T09:38:38Z</time>
      </trkpt>
      <trkpt lat="50.74472" lon="3.40637">
        <ele>11.921129</ele>
        <time>2022-07-14T09:38:46Z</time>
      </trkpt>
      <trkpt lat="50.74435" lon="3.40571">
        <ele>11.771613</ele>
        <time>2022-07-14T09:38:56Z</time>
      </trkpt>
      <trkpt lat="50.74403" lon="3.4052">
        <ele>11.746989</ele>
        <time>2022-07-14T09:39:04Z</time>
      </trkpt>
      <trkpt lat="50.74387" lon="3.40496">
        <ele>11.744175</ele>
        <time>2022-07-14T09:39:08Z</time>
      </trkpt>
      <trkpt lat="50.74345" lon="3.40438">
        <ele>11.783921</ele>
        <time>2022-07-14T09:39:18Z</time>
      </trkpt>
      <trkpt lat="50.74309" lon="3.40394">
        <ele>11.925415</ele>
        <time>2022-07-14T09:39:26Z</time>
      </trkpt>
      <trkpt lat="50.74263" lon="3.40345">
        <ele>12.130075</ele>
        <time>2022-07-14T09:39:36Z</time>
      </trkpt>
      <trkpt lat="50.74224" lon="3.4031">
        <ele>12.176291</ele>
        <time>2022-07-14T09:39:44Z</time>
      </trkpt>
      <trkpt lat="50.74205" lon="3.40294">
        <ele>12.185873</ele>
        <time>2022-07-14T09:39:48Z</time>
      </trkpt>
      <trkpt lat="50.74155" lon="3.40256">
        <ele>12.205034</ele>
        <time>2022-07-14T09:39:58Z</time>
      </trkpt>
      <trkpt lat="50.74112" lon="3.40227">
        <ele>12.216064</ele>
        <time>2022-07-14T09:40:06Z</time>
      </trkpt>
      <trkpt lat="50.74072" lon="3.40201">
        <ele>12.216252</ele>
        <time>2022-07-14T09:40:14Z</time>
      </trkpt>
      <trkpt lat="50.74021" lon="3.40167">
        <ele>13.7</ele>
        <time>2022-07-14T09:40:24Z</time>
      </trkpt>
      <trkpt lat="50.73999" lon="3.40156">
        <ele>12.206842</ele>
        <time>2022-07-14T09:40:28Z</time>
      </trkpt>
      <trkpt lat="50.73957" lon="3.40126">
        <ele>12.7</ele>
        <time>2022-07-14T09:40:36Z</time>
      </trkpt>
      <trkpt lat="50.73905" lon="3.40095">
        <ele>12.8</ele>
        <time>2022-07-14T09:40:46Z</time>
      </trkpt>
      <trkpt lat="50.73866" lon="3.40072">
        <ele>12.372319</ele>
        <time>2022-07-14T09:40:54Z</time>
      </trkpt>
      <trkpt lat="50.73814" lon="3.40039">
        <ele>12.622992</ele>
        <time>2022-07-14T09:41:04Z</time>
      </trkpt>
      <trkpt lat="50.73795" lon="3.40028">
        <ele>12.802999</ele>
        <time>2022-07-14T09:41:08Z</time>
      </trkpt>
      <trkpt lat="50.73755" lon="3.4">
        <ele>13</ele>
        <time>2022-07-14T09:41:16Z</time>
      </trkpt>
      <trkpt lat="50.73703" lon="3.39968">
        <ele>13.4</ele>
        <time>2022-07-14T09:41:26Z</time>
      </trkpt>
      <trkpt lat="50.73661" lon="3.39939">
        <ele>13.6</ele>
        <time>2022-07-14T09:41:34Z</time>
      </trkpt>
      <trkpt lat="50.73607" lon="3.3991">
        <ele>14.326648</ele>
        <time>2022-07-14T09:41:44Z</time>
      </trkpt>
      <trkpt lat="50.73586" lon="3.39896">
        <ele>14.366687</ele>
        <time>2022-07-14T09:41:48Z</time>
      </trkpt>
      <trkpt lat="50.73544" lon="3.39867">
        <ele>13.4</ele>
        <time>2022-07-14T09:41:56Z</time>
      </trkpt>
      <trkpt lat="50.73491" lon="3.39837">
        <ele>13.957171</ele>
        <time>2022-07-14T09:42:06Z</time>
      </trkpt>
      <trkpt lat="50.73449" lon="3.39809">
        <ele>13.653366</ele>
        <time>2022-07-14T09:42:14Z</time>
      </trkpt>
      <trkpt lat="50.73406" lon="3.3978">
        <ele>13.42137</ele>
        <time>2022-07-14T09:42:22Z</time>
      </trkpt>
      <trkpt lat="50.73374" lon="3.39755">
        <ele>13.260132</ele>
        <time>2022-07-14T09:42:28Z</time>
      </trkpt>
      <trkpt lat="50.73333" lon="3.39721">
        <ele>13.084595</ele>
        <time>2022-07-14T09:42:36Z</time>
      </trkpt>
      <trkpt lat="50.7328" lon="3.3967">
        <ele>13.059149</ele>
        <time>2022-07-14T09:42:47Z</time>
      </trkpt>
      <trkpt lat="50.73242" lon="3.39628">
        <ele>13.107225</ele>
        <time>2022-07-14T09:42:55Z</time>
      </trkpt>
      <trkpt lat="50.73206" lon="3.39584">
        <ele>13.163345</ele>
        <time>2022-07-14T09:43:03Z</time>
      </trkpt>
      <trkpt lat="50.73182" lon="3.39552">
        <ele>13.193126</ele>
        <time>2022-07-14T09:43:09Z</time>
      </trkpt>
      <trkpt lat="50.7315" lon="3.39506">
        <ele>13.258753</ele>
        <time>2022-07-14T09:43:17Z</time>
      </trkpt>
      <trkpt lat="50.73118" lon="3.39456">
        <ele>13.364471</ele>
        <time>2022-07-14T09:43:25Z</time>
      </trkpt>
      <trkpt lat="50.73081" lon="3.39392">
        <ele>13.551752</ele>
        <time>2022-07-14T09:43:35Z</time>
      </trkpt>
      <trkpt lat="50.73054" lon="3.39339">
        <ele>13.747833</ele>
        <time>2022-07-14T09:43:43Z</time>
      </trkpt>
      <trkpt lat="50.7304" lon="3.39311">
        <ele>13.862187</ele>
        <time>2022-07-14T09:43:47Z</time>
      </trkpt>
      <trkpt lat="50.73008" lon="3.39239">
        <ele>14.150882</ele>
        <time>2022-07-14T09:43:57Z</time>
      </trkpt>
      <trkpt lat="50.72985" lon="3.39178">
        <ele>14.343718</ele>
        <time>2022-07-14T09:44:05Z</time>
      </trkpt>
      <trkpt lat="50.72957" lon="3.39098">
        <ele>14.391955</ele>
        <time>2022-07-14T09:44:15Z</time>
      </trkpt>
      <trkpt lat="50.72939" lon="3.39036">
        <ele>14.270955</ele>
        <time>2022-07-14T09:44:23Z</time>
      </trkpt>
      <trkpt lat="50.7293" lon="3.39005">
        <ele>14.176344</ele>
        <time>2022-07-14T09:44:27Z</time>
      </trkpt>
      <trkpt lat="50.7291" lon="3.38925">
        <ele>13.780378</ele>
        <time>2022-07-14T09:44:37Z</time>
      </trkpt>
      <trkpt lat="50.72894" lon="3.38859">
        <ele>13.442991</ele>
        <time>2022-07-14T09:44:45Z</time>
      </trkpt>
      <trkpt lat="50.72881" lon="3.3881">
        <ele>16</ele>
      </trkpt>
      <trkpt lat="50.72879" lon="3.38787">
        <ele>13.089266</ele>
        <time>2022-07-14T09:44:55Z</time>
      </trkpt>
      <trkpt lat="50.72874" lon="3.38728">
        <ele>12.867538</ele>
        <time>2022-07-14T09:45:03Z</time>
      </trkpt>
      <trkpt lat="50.72867" lon="3.38665">
        <ele>12.684487</ele>
        <time>2022-07-14T09:45:11Z</time>
      </trkpt>
      <trkpt lat="50.72863" lon="3.38617">
        <ele>12.574586</ele>
        <time>2022-07-14T09:45:17Z</time>
      </trkpt>
      <trkpt lat="50.72857" lon="3.3855">
        <ele>12.467197</ele>
        <time>2022-07-14T09:45:25Z</time>
      </trkpt>
      <trkpt lat="50.72851" lon="3.38464">
        <ele>12.308939</ele>
        <time>2022-07-14T09:45:35Z</time>
      </trkpt>
      <trkpt lat="50.72847" lon="3.38395">
        <ele>12.172145</ele>
        <time>2022-07-14T09:45:43Z</time>
      </trkpt>
      <trkpt lat="50.72841" lon="3.38326">
        <ele>12.019363</ele>
        <time>2022-07-14T09:45:51Z</time>
      </trkpt>
      <trkpt lat="50.72838" lon="3.38278">
        <ele>11.97452</ele>
        <time>2022-07-14T09:45:57Z</time>
      </trkpt>
      <trkpt lat="50.72834" lon="3.38211">
        <ele>12.022947</ele>
        <time>2022-07-14T09:46:05Z</time>
      </trkpt>
      <trkpt lat="50.72828" lon="3.38142">
        <ele>12.135225</ele>
        <time>2022-07-14T09:46:13Z</time>
      </trkpt>
      <trkpt lat="50.72822" lon="3.38059">
        <ele>12.369431</ele>
        <time>2022-07-14T09:46:23Z</time>
      </trkpt>
      <trkpt lat="50.72818" lon="3.37997">
        <ele>12.600306</ele>
        <time>2022-07-14T09:46:31Z</time>
      </trkpt>
      <trkpt lat="50.72815" lon="3.37965">
        <ele>12.703398</ele>
        <time>2022-07-14T09:46:35Z</time>
      </trkpt>
      <trkpt lat="50.7281" lon="3.37885">
        <ele>12.948992</ele>
        <time>2022-07-14T09:46:45Z</time>
      </trkpt>
      <trkpt lat="50.72809" lon="3.37823">
        <ele>13.085544</ele>
        <time>2022-07-14T09:46:53Z</time>
      </trkpt>
      <trkpt lat="50.72808" lon="3.37748">
        <ele>13.328816</ele>
        <time>2022-07-14T09:47:03Z</time>
      </trkpt>
      <trkpt lat="50.72807" lon="3.37719">
        <ele>16</ele>
      </trkpt>
      <trkpt lat="50.72801" lon="3.37693">
        <ele>13.441923</ele>
        <time>2022-07-14T09:47:11Z</time>
      </trkpt>
      <trkpt lat="50.72797" lon="3.37664">
        <ele>13.46313</ele>
        <time>2022-07-14T09:47:15Z</time>
      </trkpt>
      <trkpt lat="50.72787" lon="3.37582">
        <ele>13.3</ele>
        <time>2022-07-14T09:47:25Z</time>
      </trkpt>
      <trkpt lat="50.72779" lon="3.37514">
        <ele>13.411385</ele>
        <time>2022-07-14T09:47:33Z</time>
      </trkpt>
      <trkpt lat="50.72765" lon="3.37435">
        <ele>13.428294</ele>
        <time>2022-07-14T09:47:43Z</time>
      </trkpt>
      <trkpt lat="50.72751" lon="3.37375">
        <ele>13.542048</ele>
        <time>2022-07-14T09:47:51Z</time>
      </trkpt>
      <trkpt lat="50.72743" lon="3.37345">
        <ele>13.655104</ele>
        <time>2022-07-14T09:47:55Z</time>
      </trkpt>
      <trkpt lat="50.72719" lon="3.3727">
        <ele>14.148723</ele>
        <time>2022-07-14T09:48:05Z</time>
      </trkpt>
      <trkpt lat="50.72697" lon="3.37211">
        <ele>14.575361</ele>
        <time>2022-07-14T09:48:13Z</time>
      </trkpt>
      <trkpt lat="50.72673" lon="3.37146">
        <ele>13.6</ele>
        <time>2022-07-14T09:48:21Z</time>
      </trkpt>
      <trkpt lat="50.72641" lon="3.37072">
        <ele>13.5</ele>
        <time>2022-07-14T09:48:31Z</time>
      </trkpt>
      <trkpt lat="50.72627" lon="3.37045">
        <ele>13.5</ele>
        <time>2022-07-14T09:48:35Z</time>
      </trkpt>
      <trkpt lat="50.72599" lon="3.36997">
        <ele>13.2</ele>
        <time>2022-07-14T09:48:45Z</time>
      </trkpt>
      <trkpt lat="50.72573" lon="3.36955">
        <ele>13.5</ele>
        <time>2022-07-14T09:48:53Z</time>
      </trkpt>
      <trkpt lat="50.72549" lon="3.36905">
        <ele>12.8328</ele>
        <time>2022-07-14T09:49:01Z</time>
      </trkpt>
      <trkpt lat="50.72528" lon="3.36832">
        <ele>12.044152</ele>
        <time>2022-07-14T09:49:11Z</time>
      </trkpt>
      <trkpt lat="50.72518" lon="3.36808">
        <ele>11.857607</ele>
        <time>2022-07-14T09:49:15Z</time>
      </trkpt>
      <trkpt lat="50.72508" lon="3.36788">
        <ele>13.4</ele>
      </trkpt>
      <trkpt lat="50.72491" lon="3.36809">
        <ele>12.7</ele>
        <time>2022-07-14T09:49:23Z</time>
      </trkpt>
      <trkpt lat="50.7246" lon="3.36795">
        <ele>13.7</ele>
        <time>2022-07-14T09:49:33Z</time>
      </trkpt>
      <trkpt lat="50.72423" lon="3.36776">
        <ele>11.565202</ele>
        <time>2022-07-14T09:49:41Z</time>
      </trkpt>
      <trkpt lat="50.72379" lon="3.36739">
        <ele>11.733919</ele>
        <time>2022-07-14T09:49:51Z</time>
      </trkpt>
      <trkpt lat="50.7236" lon="3.36725">
        <ele>11.818449</ele>
        <time>2022-07-14T09:49:55Z</time>
      </trkpt>
      <trkpt lat="50.72321" lon="3.36702">
        <ele>11.935739</ele>
        <time>2022-07-14T09:50:03Z</time>
      </trkpt>
      <trkpt lat="50.72278" lon="3.36676">
        <ele>12.072487</ele>
        <time>2022-07-14T09:50:13Z</time>
      </trkpt>
      <trkpt lat="50.7224" lon="3.36656">
        <ele>12.282578</ele>
        <time>2022-07-14T09:50:21Z</time>
      </trkpt>
      <trkpt lat="50.72195" lon="3.36621">
        <ele>12.693892</ele>
        <time>2022-07-14T09:50:31Z</time>
      </trkpt>
      <trkpt lat="50.72177" lon="3.36608">
        <ele>12.891304</ele>
        <time>2022-07-14T09:50:35Z</time>
      </trkpt>
      <trkpt lat="50.72154" lon="3.36594">
        <ele>14.1</ele>
      </trkpt>
      <trkpt lat="50.72147" lon="3.3658">
        <ele>13.23907</ele>
        <time>2022-07-14T09:50:43Z</time>
      </trkpt>
      <trkpt lat="50.72117" lon="3.36529">
        <ele>13.605871</ele>
        <time>2022-07-14T09:50:53Z</time>
      </trkpt>
      <trkpt lat="50.72085" lon="3.36498">
        <ele>13.847774</ele>
        <time>2022-07-14T09:51:01Z</time>
      </trkpt>
      <trkpt lat="50.72053" lon="3.36475">
        <ele>13.957248</ele>
        <time>2022-07-14T09:51:09Z</time>
      </trkpt>
      <trkpt lat="50.72029" lon="3.36463">
        <ele>15</ele>
        <time>2022-07-14T09:51:15Z</time>
      </trkpt>
      <trkpt lat="50.72002" lon="3.36456">
        <ele>13.843595</ele>
        <time>2022-07-14T09:51:23Z</time>
      </trkpt>
      <trkpt lat="50.71975" lon="3.36451">
        <ele>13.420479</ele>
        <time>2022-07-14T09:51:43Z</time>
      </trkpt>
      <trkpt lat="50.71942" lon="3.3645">
        <ele>13.246859</ele>
        <time>2022-07-14T09:51:51Z</time>
      </trkpt>
      <trkpt lat="50.71906" lon="3.36458">
        <ele>13.068886</ele>
        <time>2022-07-14T09:51:59Z</time>
      </trkpt>
      <trkpt lat="50.7188" lon="3.36468">
        <ele>12.936495</ele>
        <time>2022-07-14T09:52:05Z</time>
      </trkpt>
      <trkpt lat="50.71848" lon="3.36455">
        <ele>12.753168</ele>
        <time>2022-07-14T09:52:13Z</time>
      </trkpt>
      <trkpt lat="50.71812" lon="3.36436">
        <ele>12.582015</ele>
        <time>2022-07-14T09:52:21Z</time>
      </trkpt>
      <trkpt lat="50.71764" lon="3.36411">
        <ele>12.357138</ele>
        <time>2022-07-14T09:52:31Z</time>
      </trkpt>
      <trkpt lat="50.71726" lon="3.36391">
        <ele>12.188946</ele>
        <time>2022-07-14T09:52:39Z</time>
      </trkpt>
      <trkpt lat="50.71706" lon="3.36381">
        <ele>12.112185</ele>
        <time>2022-07-14T09:52:43Z</time>
      </trkpt>
      <trkpt lat="50.71657" lon="3.36352">
        <ele>12.0229</ele>
        <time>2022-07-14T09:52:53Z</time>
      </trkpt>
      <trkpt lat="50.71634" lon="3.36338">
        <ele>11.97059</ele>
        <time>2022-07-14T09:53:01Z</time>
      </trkpt>
      <trkpt lat="50.71613" lon="3.3632">
        <ele>14</ele>
        <time>2022-07-14T09:58:54Z</time>
      </trkpt>
      <trkpt lat="50.71594" lon="3.36305">
        <ele>14.6</ele>
        <time>2022-07-14T09:59:02Z</time>
      </trkpt>
      <trkpt lat="50.71582" lon="3.36296">
        <ele>14.6</ele>
        <time>2022-07-14T09:59:06Z</time>
      </trkpt>
      <trkpt lat="50.71555" lon="3.36266">
        <ele>11.658587</ele>
        <time>2022-07-14T09:59:16Z</time>
      </trkpt>
      <trkpt lat="50.71538" lon="3.36224">
        <ele>11.533595</ele>
        <time>2022-07-14T09:59:25Z</time>
      </trkpt>
      <trkpt lat="50.71525" lon="3.36179">
        <ele>14</ele>
        <time>2022-07-14T09:59:35Z</time>
      </trkpt>
      <trkpt lat="50.7152" lon="3.36153">
        <ele>14</ele>
      </trkpt>
      <trkpt lat="50.71523" lon="3.36142">
        <ele>14</ele>
        <time>2022-07-14T09:59:43Z</time>
      </trkpt>
      <trkpt lat="50.71534" lon="3.36117">
        <ele>14.6</ele>
        <time>2022-07-14T09:59:47Z</time>
      </trkpt>
      <trkpt lat="50.71546" lon="3.36094">
        <ele>14.7</ele>
        <time>2022-07-14T09:59:57Z</time>
      </trkpt>
      <trkpt lat="50.71565" lon="3.3607">
        <ele>11.523896</ele>
        <time>2022-07-14T10:00:05Z</time>
      </trkpt>
      <trkpt lat="50.71585" lon="3.36036">
        <ele>11.770596</ele>
        <time>2022-07-14T10:00:13Z</time>
      </trkpt>
      <trkpt lat="50.71613" lon="3.35986">
        <ele>12.173881</ele>
        <time>2022-07-14T10:00:23Z</time>
      </trkpt>
      <trkpt lat="50.71621" lon="3.35963">
        <ele>12.431224</ele>
        <time>2022-07-14T10:00:27Z</time>
      </trkpt>
      <trkpt lat="50.7163" lon="3.35925">
        <ele>14.7</ele>
      </trkpt>
      <trkpt lat="50.71633" lon="3.35895">
        <ele>14.8</ele>
        <time>2022-07-14T10:00:37Z</time>
      </trkpt>
      <trkpt lat="50.71629" lon="3.35841">
        <ele>13.593023</ele>
        <time>2022-07-14T10:00:45Z</time>
      </trkpt>
      <trkpt lat="50.71626" lon="3.35785">
        <ele>13.9</ele>
        <time>2022-07-14T10:00:53Z</time>
      </trkpt>
      <trkpt lat="50.71625" lon="3.35719">
        <ele>14.787573</ele>
        <time>2022-07-14T10:01:03Z</time>
      </trkpt>
      <trkpt lat="50.71623" lon="3.3569">
        <ele>15.073748</ele>
        <time>2022-07-14T10:01:07Z</time>
      </trkpt>
      <trkpt lat="50.71619" lon="3.35625">
        <ele>14.9</ele>
        <time>2022-07-14T10:01:15Z</time>
      </trkpt>
      <trkpt lat="50.71624" lon="3.35575">
        <ele>13.9</ele>
        <time>2022-07-14T10:01:25Z</time>
      </trkpt>
      <trkpt lat="50.7167" lon="3.3561">
        <ele>15.7</ele>
        <time>2022-07-14T10:01:33Z</time>
      </trkpt>
      <trkpt lat="50.71708" lon="3.35632">
        <ele>16</ele>
        <time>2022-07-14T10:01:43Z</time>
      </trkpt>
      <trkpt lat="50.71726" lon="3.35645">
        <ele>15.4</ele>
        <time>2022-07-14T10:01:47Z</time>
      </trkpt>
      <trkpt lat="50.71753" lon="3.35666">
        <ele>15.952724</ele>
        <time>2022-07-14T10:01:55Z</time>
      </trkpt>
      <trkpt lat="50.71757" lon="3.35678">
        <ele>15.7</ele>
      </trkpt>
      <trkpt lat="50.71729" lon="3.35664">
        <ele>15.898259</ele>
        <time>2022-07-14T10:02:05Z</time>
      </trkpt>
      <trkpt lat="50.71706" lon="3.35651">
        <ele>15.85426</ele>
        <time>2022-07-14T10:02:13Z</time>
      </trkpt>
      <trkpt lat="50.71677" lon="3.35635">
        <ele>15.836046</ele>
        <time>2022-07-14T10:02:23Z</time>
      </trkpt>
      <trkpt lat="50.71666" lon="3.35629">
        <ele>15.841368</ele>
        <time>2022-07-14T10:02:27Z</time>
      </trkpt>
      <trkpt lat="50.71647" lon="3.35619">
        <ele>15.854475</ele>
        <time>2022-07-14T10:02:35Z</time>
      </trkpt>
      <trkpt lat="50.71616" lon="3.356">
        <ele>15.88405</ele>
        <time>2022-07-14T10:02:45Z</time>
      </trkpt>
      <trkpt lat="50.7158" lon="3.35577">
        <ele>15.939665</ele>
        <time>2022-07-14T10:02:54Z</time>
      </trkpt>
      <trkpt lat="50.71543" lon="3.35551">
        <ele>15.975851</ele>
        <time>2022-07-14T10:03:02Z</time>
      </trkpt>
      <trkpt lat="50.7151" lon="3.35522">
        <ele>15.986806</ele>
        <time>2022-07-14T10:03:08Z</time>
      </trkpt>
      <trkpt lat="50.71471" lon="3.35489">
        <ele>17</ele>
        <time>2022-07-14T10:03:21Z</time>
      </trkpt>
      <trkpt lat="50.71478" lon="3.35484">
        <ele>16.9</ele>
      </trkpt>
      <trkpt lat="50.71549" lon="3.35536">
        <ele>16.3</ele>
        <time>2022-07-14T10:03:37Z</time>
      </trkpt>
      <trkpt lat="50.71579" lon="3.35556">
        <ele>16.01652</ele>
        <time>2022-07-14T10:03:45Z</time>
      </trkpt>
      <trkpt lat="50.71589" lon="3.35555">
        <ele>14.8</ele>
      </trkpt>
      <trkpt lat="50.71588" lon="3.35519">
        <ele>16.016541</ele>
        <time>2022-07-14T10:03:53Z</time>
      </trkpt>
      <trkpt lat="50.71588" lon="3.35474">
        <ele>16.007683</ele>
        <time>2022-07-14T10:03:59Z</time>
      </trkpt>
      <trkpt lat="50.71585" lon="3.3541">
        <ele>15.949109</ele>
        <time>2022-07-14T10:04:07Z</time>
      </trkpt>
      <trkpt lat="50.71581" lon="3.35345">
        <ele>15.813443</ele>
        <time>2022-07-14T10:04:15Z</time>
      </trkpt>
      <trkpt lat="50.71578" lon="3.35264">
        <ele>15.561514</ele>
        <time>2022-07-14T10:04:25Z</time>
      </trkpt>
      <trkpt lat="50.71574" lon="3.35198">
        <ele>15.373497</ele>
        <time>2022-07-14T10:04:33Z</time>
      </trkpt>
      <trkpt lat="50.71572" lon="3.35164">
        <ele>15.253899</ele>
        <time>2022-07-14T10:04:37Z</time>
      </trkpt>
      <trkpt lat="50.71567" lon="3.35076">
        <ele>15.033213</ele>
        <time>2022-07-14T10:04:47Z</time>
      </trkpt>
      <trkpt lat="50.71565" lon="3.3501">
        <ele>14.907168</ele>
        <time>2022-07-14T10:04:55Z</time>
      </trkpt>
      <trkpt lat="50.71561" lon="3.34925">
        <ele>14.901172</ele>
        <time>2022-07-14T10:05:05Z</time>
      </trkpt>
      <trkpt lat="50.71558" lon="3.34859">
        <ele>15.035767</ele>
        <time>2022-07-14T10:05:13Z</time>
      </trkpt>
      <trkpt lat="50.71556" lon="3.34824">
        <ele>15.144218</ele>
        <time>2022-07-14T10:05:17Z</time>
      </trkpt>
      <trkpt lat="50.71551" lon="3.34736">
        <ele>15.358632</ele>
        <time>2022-07-14T10:05:27Z</time>
      </trkpt>
      <trkpt lat="50.7155" lon="3.34668">
        <ele>15.590259</ele>
        <time>2022-07-14T10:05:35Z</time>
      </trkpt>
      <trkpt lat="50.71549" lon="3.34583">
        <ele>15.878281</ele>
        <time>2022-07-14T10:05:45Z</time>
      </trkpt>
      <trkpt lat="50.7155" lon="3.34517">
        <ele>16.054829</ele>
        <time>2022-07-14T10:05:53Z</time>
      </trkpt>
      <trkpt lat="50.71549" lon="3.34482">
        <ele>16.10096</ele>
        <time>2022-07-14T10:05:57Z</time>
      </trkpt>
      <trkpt lat="50.71549" lon="3.34397">
        <ele>16.07793</ele>
        <time>2022-07-14T10:06:07Z</time>
      </trkpt>
      <trkpt lat="50.71549" lon="3.34329">
        <ele>16.050426</ele>
        <time>2022-07-14T10:06:15Z</time>
      </trkpt>
      <trkpt lat="50.71549" lon="3.34261">
        <ele>15.928624</ele>
        <time>2022-07-14T10:06:23Z</time>
      </trkpt>
      <trkpt lat="50.71545" lon="3.34176">
        <ele>15.689511</ele>
        <time>2022-07-14T10:06:33Z</time>
      </trkpt>
      <trkpt lat="50.71542" lon="3.34141">
        <ele>15.599045</ele>
        <time>2022-07-14T10:06:37Z</time>
      </trkpt>
      <trkpt lat="50.71534" lon="3.34057">
        <ele>15.575605</ele>
        <time>2022-07-14T10:06:47Z</time>
      </trkpt>
      <trkpt lat="50.71528" lon="3.33991">
        <ele>15.681273</ele>
        <time>2022-07-14T10:06:55Z</time>
      </trkpt>
      <trkpt lat="50.71521" lon="3.33925">
        <ele>15.907407</ele>
        <time>2022-07-14T10:07:03Z</time>
      </trkpt>
      <trkpt lat="50.71513" lon="3.33845">
        <ele>16.674383</ele>
        <time>2022-07-14T10:07:13Z</time>
      </trkpt>
      <trkpt lat="50.7151" lon="3.33813">
        <ele>17.083866</ele>
        <time>2022-07-14T10:07:17Z</time>
      </trkpt>
      <trkpt lat="50.71503" lon="3.33748">
        <ele>18.061531</ele>
        <time>2022-07-14T10:07:25Z</time>
      </trkpt>
      <trkpt lat="50.71494" lon="3.33665">
        <ele>19.074745</ele>
        <time>2022-07-14T10:07:35Z</time>
      </trkpt>
      <trkpt lat="50.71488" lon="3.33601">
        <ele>19.732344</ele>
        <time>2022-07-14T10:07:43Z</time>
      </trkpt>
      <trkpt lat="50.7148" lon="3.33521">
        <ele>20.349052</ele>
        <time>2022-07-14T10:07:53Z</time>
      </trkpt>
      <trkpt lat="50.71476" lon="3.3349">
        <ele>20.436871</ele>
        <time>2022-07-14T10:07:57Z</time>
      </trkpt>
      <trkpt lat="50.71469" lon="3.33432">
        <ele>20.301704</ele>
        <time>2022-07-14T10:08:05Z</time>
      </trkpt>
      <trkpt lat="50.71463" lon="3.33362">
        <ele>19.914818</ele>
        <time>2022-07-14T10:08:15Z</time>
      </trkpt>
      <trkpt lat="50.71458" lon="3.33299">
        <ele>19.454735</ele>
        <time>2022-07-14T10:08:23Z</time>
      </trkpt>
      <trkpt lat="50.71451" lon="3.33222">
        <ele>18.823271</ele>
        <time>2022-07-14T10:08:33Z</time>
      </trkpt>
      <trkpt lat="50.71448" lon="3.33192">
        <ele>18.58913</ele>
        <time>2022-07-14T10:08:37Z</time>
      </trkpt>
      <trkpt lat="50.71444" lon="3.33129">
        <ele>18.063128</ele>
        <time>2022-07-14T10:08:45Z</time>
      </trkpt>
      <trkpt lat="50.71436" lon="3.33048">
        <ele>17.369503</ele>
        <time>2022-07-14T10:08:55Z</time>
      </trkpt>
      <trkpt lat="50.7143" lon="3.32983">
        <ele>16.703184</ele>
        <time>2022-07-14T10:09:03Z</time>
      </trkpt>
      <trkpt lat="50.71423" lon="3.32917">
        <ele>16.235447</ele>
        <time>2022-07-14T10:09:11Z</time>
      </trkpt>
      <trkpt lat="50.71418" lon="3.32868">
        <ele>15.971418</ele>
        <time>2022-07-14T10:09:17Z</time>
      </trkpt>
      <trkpt lat="50.71412" lon="3.32811">
        <ele>15.711977</ele>
        <time>2022-07-14T10:09:25Z</time>
      </trkpt>
      <trkpt lat="50.71403" lon="3.32772">
        <ele>16</ele>
      </trkpt>
      <trkpt lat="50.7139" lon="3.32749">
        <ele>15.434784</ele>
        <time>2022-07-14T10:09:35Z</time>
      </trkpt>
      <trkpt lat="50.71379" lon="3.32724">
        <ele>16</ele>
      </trkpt>
      <trkpt lat="50.71363" lon="3.32701">
        <ele>15.261266</ele>
        <time>2022-07-14T10:09:43Z</time>
      </trkpt>
      <trkpt lat="50.71335" lon="3.32652">
        <ele>15.188644</ele>
        <time>2022-07-14T10:09:51Z</time>
      </trkpt>
      <trkpt lat="50.71313" lon="3.32615">
        <ele>15.147158</ele>
        <time>2022-07-14T10:09:57Z</time>
      </trkpt>
      <trkpt lat="50.71283" lon="3.32564">
        <ele>15.041568</ele>
        <time>2022-07-14T10:10:05Z</time>
      </trkpt>
      <trkpt lat="50.71252" lon="3.32512">
        <ele>14.910128</ele>
        <time>2022-07-14T10:10:13Z</time>
      </trkpt>
      <trkpt lat="50.71215" lon="3.32447">
        <ele>14.873431</ele>
        <time>2022-07-14T10:10:23Z</time>
      </trkpt>
      <trkpt lat="50.71185" lon="3.32396">
        <ele>14.922481</ele>
        <time>2022-07-14T10:10:31Z</time>
      </trkpt>
      <trkpt lat="50.7117" lon="3.3237">
        <ele>14.960002</ele>
        <time>2022-07-14T10:10:35Z</time>
      </trkpt>
      <trkpt lat="50.71135" lon="3.3231">
        <ele>14.995641</ele>
        <time>2022-07-14T10:10:45Z</time>
      </trkpt>
      <trkpt lat="50.71106" lon="3.32259">
        <ele>15.025429</ele>
        <time>2022-07-14T10:10:53Z</time>
      </trkpt>
      <trkpt lat="50.71069" lon="3.32195">
        <ele>15.132166</ele>
        <time>2022-07-14T10:11:03Z</time>
      </trkpt>
      <trkpt lat="50.71039" lon="3.32144">
        <ele>15.287007</ele>
        <time>2022-07-14T10:11:11Z</time>
      </trkpt>
      <trkpt lat="50.71024" lon="3.32119">
        <ele>15.384552</ele>
        <time>2022-07-14T10:11:15Z</time>
      </trkpt>
      <trkpt lat="50.70987" lon="3.32054">
        <ele>15.58342</ele>
        <time>2022-07-14T10:11:25Z</time>
      </trkpt>
      <trkpt lat="50.70958" lon="3.32005">
        <ele>15.752894</ele>
        <time>2022-07-14T10:11:33Z</time>
      </trkpt>
      <trkpt lat="50.70927" lon="3.31939">
        <ele>15.90126</ele>
        <time>2022-07-14T10:11:43Z</time>
      </trkpt>
      <trkpt lat="50.70918" lon="3.31912">
        <ele>16.236973</ele>
        <time>2022-07-14T10:11:57Z</time>
      </trkpt>
      <trkpt lat="50.70915" lon="3.31903">
        <ele>16.346504</ele>
        <time>2022-07-14T10:12:01Z</time>
      </trkpt>
      <trkpt lat="50.70896" lon="3.31858">
        <ele>16.688156</ele>
        <time>2022-07-14T10:12:11Z</time>
      </trkpt>
      <trkpt lat="50.70878" lon="3.31806">
        <ele>17.066916</ele>
        <time>2022-07-14T10:12:19Z</time>
      </trkpt>
      <trkpt lat="50.70857" lon="3.31751">
        <ele>17.677074</ele>
        <time>2022-07-14T10:12:27Z</time>
      </trkpt>
      <trkpt lat="50.7083" lon="3.3168">
        <ele>16</ele>
        <time>2022-07-14T10:12:37Z</time>
      </trkpt>
      <trkpt lat="50.70817" lon="3.31647">
        <ele>18.516354</ele>
        <time>2022-07-14T10:12:41Z</time>
      </trkpt>
      <trkpt lat="50.70789" lon="3.31572">
        <ele>18.679272</ele>
        <time>2022-07-14T10:12:51Z</time>
      </trkpt>
      <trkpt lat="50.70767" lon="3.31511">
        <ele>18.554996</ele>
        <time>2022-07-14T10:12:59Z</time>
      </trkpt>
      <trkpt lat="50.70744" lon="3.3145">
        <ele>18.206448</ele>
        <time>2022-07-14T10:13:07Z</time>
      </trkpt>
      <trkpt lat="50.70731" lon="3.31411">
        <ele>15.5</ele>
      </trkpt>
      <trkpt lat="50.70713" lon="3.31378">
        <ele>17.290915</ele>
        <time>2022-07-14T10:13:17Z</time>
      </trkpt>
      <trkpt lat="50.707" lon="3.31351">
        <ele>16.960211</ele>
        <time>2022-07-14T10:13:21Z</time>
      </trkpt>
      <trkpt lat="50.70673" lon="3.31299">
        <ele>16.390553</ele>
        <time>2022-07-14T10:13:29Z</time>
      </trkpt>
      <trkpt lat="50.70639" lon="3.31233">
        <ele>16.005512</ele>
        <time>2022-07-14T10:13:39Z</time>
      </trkpt>
      <trkpt lat="50.70613" lon="3.3118">
        <ele>16.037901</ele>
        <time>2022-07-14T10:13:47Z</time>
      </trkpt>
      <trkpt lat="50.70574" lon="3.31113">
        <ele>16.410198</ele>
        <time>2022-07-14T10:13:57Z</time>
      </trkpt>
      <trkpt lat="50.70558" lon="3.31089">
        <ele>16.580233</ele>
        <time>2022-07-14T10:14:01Z</time>
      </trkpt>
      <trkpt lat="50.70528" lon="3.31041">
        <ele>16.936312</ele>
        <time>2022-07-14T10:14:09Z</time>
      </trkpt>
      <trkpt lat="50.70494" lon="3.3099">
        <ele>17.209963</ele>
        <time>2022-07-14T10:14:19Z</time>
      </trkpt>
      <trkpt lat="50.70466" lon="3.30943">
        <ele>17.315964</ele>
        <time>2022-07-14T10:14:27Z</time>
      </trkpt>
      <trkpt lat="50.70427" lon="3.30885">
        <ele>17.391993</ele>
        <time>2022-07-14T10:14:37Z</time>
      </trkpt>
      <trkpt lat="50.70412" lon="3.30858">
        <ele>16</ele>
        <time>2022-07-14T10:14:41Z</time>
      </trkpt>
      <trkpt lat="50.7038" lon="3.3081">
        <ele>15.9</ele>
        <time>2022-07-14T10:14:49Z</time>
      </trkpt>
      <trkpt lat="50.70342" lon="3.30752">
        <ele>17.201763</ele>
        <time>2022-07-14T10:14:59Z</time>
      </trkpt>
      <trkpt lat="50.70321" lon="3.30691">
        <ele>17.082935</ele>
        <time>2022-07-14T10:15:07Z</time>
      </trkpt>
      <trkpt lat="50.70316" lon="3.30621">
        <ele>16.918861</ele>
        <time>2022-07-14T10:15:15Z</time>
      </trkpt>
      <trkpt lat="50.70313" lon="3.30573">
        <ele>16.764278</ele>
        <time>2022-07-14T10:15:21Z</time>
      </trkpt>
      <trkpt lat="50.70309" lon="3.30506">
        <ele>16.599096</ele>
        <time>2022-07-14T10:15:29Z</time>
      </trkpt>
      <trkpt lat="50.70306" lon="3.30418">
        <ele>16.535393</ele>
        <time>2022-07-14T10:15:39Z</time>
      </trkpt>
      <trkpt lat="50.70302" lon="3.30347">
        <ele>16.587736</ele>
        <time>2022-07-14T10:15:47Z</time>
      </trkpt>
      <trkpt lat="50.70299" lon="3.30277">
        <ele>16.673939</ele>
        <time>2022-07-14T10:15:55Z</time>
      </trkpt>
      <trkpt lat="50.70294" lon="3.30227">
        <ele>16.702883</ele>
        <time>2022-07-14T10:16:01Z</time>
      </trkpt>
      <trkpt lat="50.70282" lon="3.30172">
        <ele>16.586021</ele>
        <time>2022-07-14T10:16:09Z</time>
      </trkpt>
      <trkpt lat="50.70264" lon="3.3012">
        <ele>16.358355</ele>
        <time>2022-07-14T10:16:17Z</time>
      </trkpt>
      <trkpt lat="50.70244" lon="3.30071">
        <ele>16.056793</ele>
        <time>2022-07-14T10:16:27Z</time>
      </trkpt>
      <trkpt lat="50.70224" lon="3.30019">
        <ele>15.719828</ele>
        <time>2022-07-14T10:16:35Z</time>
      </trkpt>
      <trkpt lat="50.70213" lon="3.29991">
        <ele>15.563253</ele>
        <time>2022-07-14T10:16:39Z</time>
      </trkpt>
      <trkpt lat="50.70186" lon="3.29921">
        <ele>15.267548</ele>
        <time>2022-07-14T10:16:49Z</time>
      </trkpt>
      <trkpt lat="50.70165" lon="3.29865">
        <ele>15.208059</ele>
        <time>2022-07-14T10:16:57Z</time>
      </trkpt>
      <trkpt lat="50.70137" lon="3.29793">
        <ele>15.332326</ele>
        <time>2022-07-14T10:17:07Z</time>
      </trkpt>
      <trkpt lat="50.70115" lon="3.29735">
        <ele>15.401495</ele>
        <time>2022-07-14T10:17:15Z</time>
      </trkpt>
      <trkpt lat="50.70104" lon="3.29706">
        <ele>15.416178</ele>
        <time>2022-07-14T10:17:19Z</time>
      </trkpt>
      <trkpt lat="50.70076" lon="3.29633">
        <ele>15.42278</ele>
        <time>2022-07-14T10:17:29Z</time>
      </trkpt>
      <trkpt lat="50.70061" lon="3.29586">
        <ele>17.1</ele>
        <time>2022-07-14T10:17:37Z</time>
      </trkpt>
      <trkpt lat="50.7004" lon="3.29538">
        <ele>17</ele>
        <time>2022-07-14T10:18:28Z</time>
      </trkpt>
      <trkpt lat="50.70021" lon="3.29495">
        <ele>15.091127</ele>
        <time>2022-07-14T10:18:36Z</time>
      </trkpt>
      <trkpt lat="50.70013" lon="3.29472">
        <ele>16.5</ele>
        <time>2022-07-14T10:18:40Z</time>
      </trkpt>
      <trkpt lat="50.69987" lon="3.29401">
        <ele>15.203465</ele>
        <time>2022-07-14T10:18:50Z</time>
      </trkpt>
      <trkpt lat="50.69973" lon="3.29341">
        <ele>15.26502</ele>
        <time>2022-07-14T10:18:58Z</time>
      </trkpt>
      <trkpt lat="50.6996" lon="3.29283">
        <ele>15.285001</ele>
        <time>2022-07-14T10:19:06Z</time>
      </trkpt>
      <trkpt lat="50.69943" lon="3.29206">
        <ele>15.280278</ele>
        <time>2022-07-14T10:19:16Z</time>
      </trkpt>
      <trkpt lat="50.69937" lon="3.29175">
        <ele>15.266733</ele>
        <time>2022-07-14T10:19:20Z</time>
      </trkpt>
      <trkpt lat="50.69919" lon="3.29095">
        <ele>15.116124</ele>
        <time>2022-07-14T10:19:30Z</time>
      </trkpt>
      <trkpt lat="50.69905" lon="3.2903">
        <ele>14.912295</ele>
        <time>2022-07-14T10:19:38Z</time>
      </trkpt>
      <trkpt lat="50.69891" lon="3.28964">
        <ele>14.694636</ele>
        <time>2022-07-14T10:19:46Z</time>
      </trkpt>
      <trkpt lat="50.69873" lon="3.28881">
        <ele>14.492925</ele>
        <time>2022-07-14T10:19:56Z</time>
      </trkpt>
      <trkpt lat="50.69866" lon="3.28847">
        <ele>14.446589</ele>
        <time>2022-07-14T10:20:00Z</time>
      </trkpt>
      <trkpt lat="50.69852" lon="3.2878">
        <ele>14.399564</ele>
        <time>2022-07-14T10:20:08Z</time>
      </trkpt>
      <trkpt lat="50.69834" lon="3.28697">
        <ele>14.452505</ele>
        <time>2022-07-14T10:20:18Z</time>
      </trkpt>
      <trkpt lat="50.6982" lon="3.28631">
        <ele>14.651538</ele>
        <time>2022-07-14T10:20:26Z</time>
      </trkpt>
      <trkpt lat="50.698" lon="3.2854">
        <ele>15.016047</ele>
        <time>2022-07-14T10:20:37Z</time>
      </trkpt>
      <trkpt lat="50.69793" lon="3.28508">
        <ele>15.194776</ele>
        <time>2022-07-14T10:20:41Z</time>
      </trkpt>
      <trkpt lat="50.69777" lon="3.28444">
        <ele>15.441473</ele>
        <time>2022-07-14T10:20:49Z</time>
      </trkpt>
      <trkpt lat="50.69754" lon="3.28366">
        <ele>15.678772</ele>
        <time>2022-07-14T10:20:59Z</time>
      </trkpt>
      <trkpt lat="50.69736" lon="3.28305">
        <ele>15.842395</ele>
        <time>2022-07-14T10:21:07Z</time>
      </trkpt>
      <trkpt lat="50.69714" lon="3.2823">
        <ele>16.033691</ele>
        <time>2022-07-14T10:21:17Z</time>
      </trkpt>
      <trkpt lat="50.69706" lon="3.28204">
        <ele>16.101789</ele>
        <time>2022-07-14T10:21:21Z</time>
      </trkpt>
      <trkpt lat="50.69692" lon="3.28147">
        <ele>18.9</ele>
        <time>2022-07-14T10:21:29Z</time>
      </trkpt>
      <trkpt lat="50.69671" lon="3.28071">
        <ele>18.1</ele>
        <time>2022-07-14T10:21:39Z</time>
      </trkpt>
      <trkpt lat="50.69653" lon="3.28003">
        <ele>18</ele>
        <time>2022-07-14T10:21:47Z</time>
      </trkpt>
      <trkpt lat="50.69636" lon="3.27947">
        <ele>18.7</ele>
        <time>2022-07-14T10:21:55Z</time>
      </trkpt>
      <trkpt lat="50.69625" lon="3.2791">
        <ele>18</ele>
        <time>2022-07-14T10:22:01Z</time>
      </trkpt>
      <trkpt lat="50.69609" lon="3.2786">
        <ele>17.923819</ele>
        <time>2022-07-14T10:22:09Z</time>
      </trkpt>
      <trkpt lat="50.69589" lon="3.27778">
        <ele>18.2</ele>
        <time>2022-07-14T10:22:19Z</time>
      </trkpt>
      <trkpt lat="50.69569" lon="3.27716">
        <ele>18.5</ele>
        <time>2022-07-14T10:22:27Z</time>
      </trkpt>
      <trkpt lat="50.69551" lon="3.27657">
        <ele>18.1</ele>
        <time>2022-07-14T10:22:35Z</time>
      </trkpt>
      <trkpt lat="50.69538" lon="3.2761">
        <ele>17.7</ele>
        <time>2022-07-14T10:22:41Z</time>
      </trkpt>
      <trkpt lat="50.69521" lon="3.27554">
        <ele>18.5</ele>
        <time>2022-07-14T10:22:49Z</time>
      </trkpt>
      <trkpt lat="50.69503" lon="3.27489">
        <ele>18.1</ele>
        <time>2022-07-14T10:22:57Z</time>
      </trkpt>
      <trkpt lat="50.69483" lon="3.27419">
        <ele>18.4</ele>
        <time>2022-07-14T10:23:07Z</time>
      </trkpt>
      <trkpt lat="50.69465" lon="3.27355">
        <ele>18.7</ele>
        <time>2022-07-14T10:23:15Z</time>
      </trkpt>
      <trkpt lat="50.69453" lon="3.27315">
        <ele>18.8</ele>
        <time>2022-07-14T10:23:19Z</time>
      </trkpt>
      <trkpt lat="50.69433" lon="3.27245">
        <ele>18.6</ele>
        <time>2022-07-14T10:23:29Z</time>
      </trkpt>
      <trkpt lat="50.69415" lon="3.27179">
        <ele>19</ele>
        <time>2022-07-14T10:23:37Z</time>
      </trkpt>
      <trkpt lat="50.69394" lon="3.27108">
        <ele>19.5</ele>
        <time>2022-07-14T10:23:47Z</time>
      </trkpt>
      <trkpt lat="50.69377" lon="3.27048">
        <ele>18.6</ele>
        <time>2022-07-14T10:23:55Z</time>
      </trkpt>
      <trkpt lat="50.69365" lon="3.27011">
        <ele>18.7</ele>
        <time>2022-07-14T10:23:59Z</time>
      </trkpt>
      <trkpt lat="50.69343" lon="3.26937">
        <ele>18.5</ele>
        <time>2022-07-14T10:24:09Z</time>
      </trkpt>
      <trkpt lat="50.69325" lon="3.26878">
        <ele>18.94183</ele>
        <time>2022-07-14T10:24:17Z</time>
      </trkpt>
      <trkpt lat="50.69303" lon="3.26799">
        <ele>19</ele>
        <time>2022-07-14T10:24:27Z</time>
      </trkpt>
      <trkpt lat="50.69286" lon="3.2674">
        <ele>19</ele>
        <time>2022-07-14T10:24:35Z</time>
      </trkpt>
      <trkpt lat="50.69275" lon="3.26703">
        <ele>19</ele>
        <time>2022-07-14T10:24:39Z</time>
      </trkpt>
      <trkpt lat="50.69258" lon="3.26651">
        <ele>19.22575</ele>
        <time>2022-07-14T10:24:49Z</time>
      </trkpt>
      <trkpt lat="50.69243" lon="3.26597">
        <ele>19.220226</ele>
        <time>2022-07-14T10:24:57Z</time>
      </trkpt>
      <trkpt lat="50.69224" lon="3.26535">
        <ele>19.143084</ele>
        <time>2022-07-14T10:25:05Z</time>
      </trkpt>
      <trkpt lat="50.69202" lon="3.2646">
        <ele>19.043043</ele>
        <time>2022-07-14T10:25:15Z</time>
      </trkpt>
      <trkpt lat="50.69193" lon="3.26431">
        <ele>18.984179</ele>
        <time>2022-07-14T10:25:19Z</time>
      </trkpt>
      <trkpt lat="50.69171" lon="3.26355">
        <ele>18.891882</ele>
        <time>2022-07-14T10:25:29Z</time>
      </trkpt>
      <trkpt lat="50.69153" lon="3.26286">
        <ele>18.7</ele>
        <time>2022-07-14T10:25:37Z</time>
      </trkpt>
      <trkpt lat="50.69135" lon="3.26227">
        <ele>19</ele>
        <time>2022-07-14T10:25:45Z</time>
      </trkpt>
      <trkpt lat="50.69113" lon="3.2615">
        <ele>19</ele>
        <time>2022-07-14T10:25:55Z</time>
      </trkpt>
      <trkpt lat="50.69105" lon="3.26118">
        <ele>18.939405</ele>
        <time>2022-07-14T10:25:59Z</time>
      </trkpt>
      <trkpt lat="50.69098" lon="3.26049">
        <ele>19.010386</ele>
        <time>2022-07-14T10:26:07Z</time>
      </trkpt>
      <trkpt lat="50.69098" lon="3.25961">
        <ele>19.072659</ele>
        <time>2022-07-14T10:26:17Z</time>
      </trkpt>
      <trkpt lat="50.69098" lon="3.25891">
        <ele>19.064432</ele>
        <time>2022-07-14T10:26:25Z</time>
      </trkpt>
      <trkpt lat="50.69096" lon="3.2581">
        <ele>18.900555</ele>
        <time>2022-07-14T10:26:35Z</time>
      </trkpt>
      <trkpt lat="50.69096" lon="3.25783">
        <ele>18.811741</ele>
        <time>2022-07-14T10:26:39Z</time>
      </trkpt>
      <trkpt lat="50.69098" lon="3.25735">
        <ele>18.589972</ele>
        <time>2022-07-14T10:26:47Z</time>
      </trkpt>
      <trkpt lat="50.69096" lon="3.25672">
        <ele>18.187607</ele>
        <time>2022-07-14T10:26:57Z</time>
      </trkpt>
      <trkpt lat="50.69096" lon="3.25613">
        <ele>17.883106</ele>
        <time>2022-07-14T10:27:05Z</time>
      </trkpt>
      <trkpt lat="50.69097" lon="3.25538">
        <ele>17.534887</ele>
        <time>2022-07-14T10:27:15Z</time>
      </trkpt>
      <trkpt lat="50.69097" lon="3.25506">
        <ele>17.438219</ele>
        <time>2022-07-14T10:27:19Z</time>
      </trkpt>
      <trkpt lat="50.691" lon="3.25468">
        <ele>19.6</ele>
      </trkpt>
      <trkpt lat="50.69105" lon="3.25444">
        <ele>17.289188</ele>
        <time>2022-07-14T10:27:27Z</time>
      </trkpt>
      <trkpt lat="50.69129" lon="3.25395">
        <ele>17.260681</ele>
        <time>2022-07-14T10:27:37Z</time>
      </trkpt>
      <trkpt lat="50.69149" lon="3.25342">
        <ele>21</ele>
        <time>2022-07-14T10:27:45Z</time>
      </trkpt>
      <trkpt lat="50.69159" lon="3.25272">
        <ele>20.9</ele>
        <time>2022-07-14T10:27:53Z</time>
      </trkpt>
      <trkpt lat="50.69161" lon="3.25217">
        <ele>20.2</ele>
        <time>2022-07-14T10:27:59Z</time>
      </trkpt>
      <trkpt lat="50.69164" lon="3.25155">
        <ele>20.9</ele>
        <time>2022-07-14T10:28:07Z</time>
      </trkpt>
      <trkpt lat="50.69165" lon="3.25082">
        <ele>20.9</ele>
        <time>2022-07-14T10:28:17Z</time>
      </trkpt>
      <trkpt lat="50.69165" lon="3.25029">
        <ele>17.959888</ele>
        <time>2022-07-14T10:28:25Z</time>
      </trkpt>
      <trkpt lat="50.69169" lon="3.24964">
        <ele>20.7</ele>
        <time>2022-07-14T10:28:33Z</time>
      </trkpt>
      <trkpt lat="50.69169" lon="3.24915">
        <ele>18.010775</ele>
        <time>2022-07-14T10:28:39Z</time>
      </trkpt>
      <trkpt lat="50.69176" lon="3.24848">
        <ele>20.7</ele>
        <time>2022-07-14T10:28:47Z</time>
      </trkpt>
      <trkpt lat="50.69177" lon="3.24785">
        <ele>21</ele>
        <time>2022-07-14T10:28:55Z</time>
      </trkpt>
      <trkpt lat="50.6918" lon="3.24702">
        <ele>19.6</ele>
        <time>2022-07-14T10:29:05Z</time>
      </trkpt>
      <trkpt lat="50.69181" lon="3.24643">
        <ele>18.034391</ele>
        <time>2022-07-14T10:29:13Z</time>
      </trkpt>
      <trkpt lat="50.69181" lon="3.24614">
        <ele>17.993034</ele>
        <time>2022-07-14T10:29:17Z</time>
      </trkpt>
      <trkpt lat="50.69181" lon="3.2458">
        <ele>19.6</ele>
      </trkpt>
      <trkpt lat="50.69172" lon="3.24543">
        <ele>21</ele>
        <time>2022-07-14T10:29:27Z</time>
      </trkpt>
      <trkpt lat="50.69148" lon="3.24487">
        <ele>19.8</ele>
      </trkpt>
      <trkpt lat="50.69119" lon="3.24418">
        <ele>21</ele>
        <time>2022-07-14T10:29:45Z</time>
      </trkpt>
      <trkpt lat="50.69095" lon="3.24363">
        <ele>20.4</ele>
        <time>2022-07-14T10:29:53Z</time>
      </trkpt>
      <trkpt lat="50.6908" lon="3.24329">
        <ele>21</ele>
        <time>2022-07-14T10:29:57Z</time>
      </trkpt>
      <trkpt lat="50.69052" lon="3.24273">
        <ele>17.182283</ele>
        <time>2022-07-14T10:30:07Z</time>
      </trkpt>
      <trkpt lat="50.69029" lon="3.24221">
        <ele>17.256977</ele>
        <time>2022-07-14T10:30:15Z</time>
      </trkpt>
      <trkpt lat="50.69003" lon="3.24163">
        <ele>17.440855</ele>
        <time>2022-07-14T10:30:25Z</time>
      </trkpt>
      <trkpt lat="50.68984" lon="3.24119">
        <ele>17.68611</ele>
        <time>2022-07-14T10:30:33Z</time>
      </trkpt>
      <trkpt lat="50.68974" lon="3.24093">
        <ele>17.806992</ele>
        <time>2022-07-14T10:30:37Z</time>
      </trkpt>
      <trkpt lat="50.68962" lon="3.24062">
        <ele>21.4</ele>
      </trkpt>
      <trkpt lat="50.68956" lon="3.24021">
        <ele>18.078449</ele>
        <time>2022-07-14T10:30:47Z</time>
      </trkpt>
      <trkpt lat="50.68951" lon="3.23957">
        <ele>18.33334</ele>
        <time>2022-07-14T10:30:55Z</time>
      </trkpt>
      <trkpt lat="50.68945" lon="3.23891">
        <ele>18.613079</ele>
        <time>2022-07-14T10:31:03Z</time>
      </trkpt>
      <trkpt lat="50.68941" lon="3.2381">
        <ele>18.961651</ele>
        <time>2022-07-14T10:31:13Z</time>
      </trkpt>
      <trkpt lat="50.68938" lon="3.23778">
        <ele>19.131153</ele>
        <time>2022-07-14T10:31:17Z</time>
      </trkpt>
      <trkpt lat="50.68932" lon="3.23702">
        <ele>19.543718</ele>
        <time>2022-07-14T10:31:27Z</time>
      </trkpt>
      <trkpt lat="50.68928" lon="3.23648">
        <ele>19.864429</ele>
        <time>2022-07-14T10:31:35Z</time>
      </trkpt>
      <trkpt lat="50.68926" lon="3.23614">
        <ele>20.06937</ele>
        <time>2022-07-14T10:31:43Z</time>
      </trkpt>
      <trkpt lat="50.6892" lon="3.2355">
        <ele>20.214188</ele>
        <time>2022-07-14T10:31:53Z</time>
      </trkpt>
      <trkpt lat="50.68919" lon="3.23525">
        <ele>20.199251</ele>
        <time>2022-07-14T10:31:57Z</time>
      </trkpt>
      <trkpt lat="50.68915" lon="3.2347">
        <ele>20.074493</ele>
        <time>2022-07-14T10:32:05Z</time>
      </trkpt>
      <trkpt lat="50.6891" lon="3.23395">
        <ele>19.76309</ele>
        <time>2022-07-14T10:32:15Z</time>
      </trkpt>
      <trkpt lat="50.6891" lon="3.23331">
        <ele>19.378712</ele>
        <time>2022-07-14T10:32:23Z</time>
      </trkpt>
      <trkpt lat="50.68911" lon="3.23248">
        <ele>18.888203</ele>
        <time>2022-07-14T10:32:33Z</time>
      </trkpt>
      <trkpt lat="50.68911" lon="3.23214">
        <ele>18.741472</ele>
        <time>2022-07-14T10:32:37Z</time>
      </trkpt>
      <trkpt lat="50.68913" lon="3.23154">
        <ele>18.492994</ele>
        <time>2022-07-14T10:32:45Z</time>
      </trkpt>
      <trkpt lat="50.68914" lon="3.2308">
        <ele>18.237875</ele>
        <time>2022-07-14T10:32:55Z</time>
      </trkpt>
      <trkpt lat="50.68916" lon="3.23013">
        <ele>18.108488</ele>
        <time>2022-07-14T10:33:03Z</time>
      </trkpt>
      <trkpt lat="50.68917" lon="3.22928">
        <ele>18.07107</ele>
        <time>2022-07-14T10:33:13Z</time>
      </trkpt>
      <trkpt lat="50.68918" lon="3.22894">
        <ele>18.114014</ele>
        <time>2022-07-14T10:33:17Z</time>
      </trkpt>
      <trkpt lat="50.68918" lon="3.22827">
        <ele>18.297119</ele>
        <time>2022-07-14T10:33:25Z</time>
      </trkpt>
      <trkpt lat="50.68919" lon="3.22745">
        <ele>18.654007</ele>
        <time>2022-07-14T10:33:35Z</time>
      </trkpt>
      <trkpt lat="50.68919" lon="3.2268">
        <ele>18.971069</ele>
        <time>2022-07-14T10:33:43Z</time>
      </trkpt>
      <trkpt lat="50.68921" lon="3.22614">
        <ele>19.328115</ele>
        <time>2022-07-14T10:33:51Z</time>
      </trkpt>
      <trkpt lat="50.68921" lon="3.22561">
        <ele>19.8</ele>
      </trkpt>
      <trkpt lat="50.6891" lon="3.22552">
        <ele>19.805649</ele>
        <time>2022-07-14T10:34:01Z</time>
      </trkpt>
      <trkpt lat="50.68896" lon="3.22537">
        <ele>19.952934</ele>
        <time>2022-07-14T10:34:05Z</time>
      </trkpt>
      <trkpt lat="50.6889" lon="3.22516">
        <ele>20</ele>
      </trkpt>
      <trkpt lat="50.6889" lon="3.22489">
        <ele>19.6</ele>
      </trkpt>
      <trkpt lat="50.68901" lon="3.22473">
        <ele>20.114004</ele>
        <time>2022-07-14T10:34:15Z</time>
      </trkpt>
      <trkpt lat="50.68922" lon="3.22443">
        <ele>20.8</ele>
      </trkpt>
      <trkpt lat="50.68922" lon="3.22429">
        <ele>20.060438</ele>
        <time>2022-07-14T10:34:23Z</time>
      </trkpt>
      <trkpt lat="50.68925" lon="3.22371">
        <ele>20.4</ele>
        <time>2022-07-14T10:34:31Z</time>
      </trkpt>
      <trkpt lat="50.68926" lon="3.22313">
        <ele>20.6</ele>
        <time>2022-07-14T10:34:41Z</time>
      </trkpt>
      <trkpt lat="50.68926" lon="3.22281">
        <ele>19.805498</ele>
        <time>2022-07-14T10:34:45Z</time>
      </trkpt>
      <trkpt lat="50.68926" lon="3.22224">
        <ele>19.720999</ele>
        <time>2022-07-14T10:34:53Z</time>
      </trkpt>
      <trkpt lat="50.68929" lon="3.22151">
        <ele>19.669407</ele>
        <time>2022-07-14T10:35:03Z</time>
      </trkpt>
      <trkpt lat="50.68929" lon="3.22089">
        <ele>19.723288</ele>
        <time>2022-07-14T10:35:11Z</time>
      </trkpt>
      <trkpt lat="50.6893" lon="3.22011">
        <ele>19.838676</ele>
        <time>2022-07-14T10:35:21Z</time>
      </trkpt>
      <trkpt lat="50.6893" lon="3.21982">
        <ele>19.878323</ele>
        <time>2022-07-14T10:35:25Z</time>
      </trkpt>
      <trkpt lat="50.68929" lon="3.21926">
        <ele>19.898924</ele>
        <time>2022-07-14T10:35:33Z</time>
      </trkpt>
      <trkpt lat="50.6893" lon="3.21849">
        <ele>19.780262</ele>
        <time>2022-07-14T10:35:43Z</time>
      </trkpt>
      <trkpt lat="50.68931" lon="3.21786">
        <ele>19.619736</ele>
        <time>2022-07-14T10:35:51Z</time>
      </trkpt>
      <trkpt lat="50.68934" lon="3.21704">
        <ele>19.41976</ele>
        <time>2022-07-14T10:36:01Z</time>
      </trkpt>
      <trkpt lat="50.68934" lon="3.21672">
        <ele>19.360943</ele>
        <time>2022-07-14T10:36:05Z</time>
      </trkpt>
      <trkpt lat="50.68935" lon="3.2161">
        <ele>19.292986</ele>
        <time>2022-07-14T10:36:13Z</time>
      </trkpt>
      <trkpt lat="50.6894" lon="3.21539">
        <ele>19.287794</ele>
        <time>2022-07-14T10:36:23Z</time>
      </trkpt>
      <trkpt lat="50.68947" lon="3.2148">
        <ele>19.370298</ele>
        <time>2022-07-14T10:36:31Z</time>
      </trkpt>
      <trkpt lat="50.68958" lon="3.21419">
        <ele>19.470331</ele>
        <time>2022-07-14T10:36:39Z</time>
      </trkpt>
      <trkpt lat="50.68967" lon="3.21376">
        <ele>19.506212</ele>
        <time>2022-07-14T10:36:45Z</time>
      </trkpt>
      <trkpt lat="50.68977" lon="3.21326">
        <ele>19.522526</ele>
        <time>2022-07-14T10:36:53Z</time>
      </trkpt>
      <trkpt lat="50.68988" lon="3.2127">
        <ele>19.51228</ele>
        <time>2022-07-14T10:37:01Z</time>
      </trkpt>
      <trkpt lat="50.69002" lon="3.21196">
        <ele>19.475267</ele>
        <time>2022-07-14T10:37:11Z</time>
      </trkpt>
      <trkpt lat="50.69014" lon="3.21135">
        <ele>19.481321</ele>
        <time>2022-07-14T10:37:19Z</time>
      </trkpt>
      <trkpt lat="50.69024" lon="3.21089">
        <ele>19.53594</ele>
        <time>2022-07-14T10:37:25Z</time>
      </trkpt>
      <trkpt lat="50.69035" lon="3.2103">
        <ele>19.6653</ele>
        <time>2022-07-14T10:37:33Z</time>
      </trkpt>
      <trkpt lat="50.69047" lon="3.20972">
        <ele>21</ele>
        <time>2022-07-14T10:37:41Z</time>
      </trkpt>
      <trkpt lat="50.69062" lon="3.20898">
        <ele>20.235638</ele>
        <time>2022-07-14T10:37:51Z</time>
      </trkpt>
      <trkpt lat="50.69074" lon="3.20838">
        <ele>20.463861</ele>
        <time>2022-07-14T10:37:59Z</time>
      </trkpt>
      <trkpt lat="50.69079" lon="3.20809">
        <ele>20.57197</ele>
        <time>2022-07-14T10:38:03Z</time>
      </trkpt>
      <trkpt lat="50.69096" lon="3.20728">
        <ele>20.71129</ele>
        <time>2022-07-14T10:38:14Z</time>
      </trkpt>
      <trkpt lat="50.69111" lon="3.20681">
        <ele>20.690464</ele>
        <time>2022-07-14T10:38:22Z</time>
      </trkpt>
      <trkpt lat="50.69118" lon="3.20644">
        <ele>20.66427</ele>
        <time>2022-07-14T10:38:56Z</time>
      </trkpt>
      <trkpt lat="50.69124" lon="3.20609">
        <ele>20.751051</ele>
        <time>2022-07-14T10:39:04Z</time>
      </trkpt>
      <trkpt lat="50.69128" lon="3.20587">
        <ele>20.809444</ele>
        <time>2022-07-14T10:39:08Z</time>
      </trkpt>
      <trkpt lat="50.69151" lon="3.20539">
        <ele>20.939106</ele>
        <time>2022-07-14T10:39:18Z</time>
      </trkpt>
      <trkpt lat="50.69175" lon="3.20501">
        <ele>20.986671</ele>
        <time>2022-07-14T10:39:26Z</time>
      </trkpt>
      <trkpt lat="50.69216" lon="3.20452">
        <ele>20.997944</ele>
        <time>2022-07-14T10:39:36Z</time>
      </trkpt>
      <trkpt lat="50.69249" lon="3.2041">
        <ele>20.999584</ele>
        <time>2022-07-14T10:39:44Z</time>
      </trkpt>
      <trkpt lat="50.69267" lon="3.2039">
        <ele>20.999813</ele>
        <time>2022-07-14T10:39:48Z</time>
      </trkpt>
      <trkpt lat="50.69307" lon="3.20336">
        <ele>21.00005</ele>
        <time>2022-07-14T10:39:58Z</time>
      </trkpt>
      <trkpt lat="50.69335" lon="3.20285">
        <ele>21.010294</ele>
        <time>2022-07-14T10:40:06Z</time>
      </trkpt>
      <trkpt lat="50.69356" lon="3.20226">
        <ele>21.3</ele>
        <time>2022-07-14T10:40:14Z</time>
      </trkpt>
      <trkpt lat="50.69362" lon="3.20181">
        <ele>21</ele>
      </trkpt>
      <trkpt lat="50.69364" lon="3.2014">
        <ele>21.2</ele>
        <time>2022-07-14T10:40:24Z</time>
      </trkpt>
      <trkpt lat="50.6938" lon="3.20125">
        <ele>23</ele>
        <time>2022-07-14T10:40:28Z</time>
      </trkpt>
      <trkpt lat="50.69356" lon="3.19951">
        <ele>21</ele>
        <time>2022-07-14T10:40:50Z</time>
      </trkpt>
      <trkpt lat="50.69348" lon="3.19897">
        <ele>21.4</ele>
      </trkpt>
      <trkpt lat="50.69345" lon="3.19868">
        <ele>21.4</ele>
        <time>2022-07-14T10:40:58Z</time>
      </trkpt>
      <trkpt lat="50.69334" lon="3.19797">
        <ele>22</ele>
        <time>2022-07-14T10:41:06Z</time>
      </trkpt>
      <trkpt lat="50.69326" lon="3.1974">
        <ele>22</ele>
        <time>2022-07-14T10:41:16Z</time>
      </trkpt>
      <trkpt lat="50.69318" lon="3.19675">
        <ele>22</ele>
        <time>2022-07-14T10:41:20Z</time>
      </trkpt>
      <trkpt lat="50.69313" lon="3.19628">
        <ele>22</ele>
        <time>2022-07-14T10:41:28Z</time>
      </trkpt>
      <trkpt lat="50.69304" lon="3.19563">
        <ele>22</ele>
        <time>2022-07-14T10:41:38Z</time>
      </trkpt>
      <trkpt lat="50.69292" lon="3.19483">
        <ele>22</ele>
        <time>2022-07-14T10:41:46Z</time>
      </trkpt>
      <trkpt lat="50.69282" lon="3.19396">
        <ele>22.7</ele>
        <time>2022-07-14T10:42:08Z</time>
      </trkpt>
      <trkpt lat="50.69278" lon="3.19325">
        <ele>23</ele>
        <time>2022-07-14T10:42:18Z</time>
      </trkpt>
      <trkpt lat="50.69275" lon="3.19246">
        <ele>23</ele>
        <time>2022-07-14T10:42:26Z</time>
      </trkpt>
      <trkpt lat="50.69273" lon="3.19204">
        <ele>23.7</ele>
        <time>2022-07-14T10:42:36Z</time>
      </trkpt>
      <trkpt lat="50.69281" lon="3.19164">
        <ele>24</ele>
        <time>2022-07-14T10:42:58Z</time>
      </trkpt>
      <trkpt lat="50.69306" lon="3.19124">
        <ele>24</ele>
        <time>2022-07-14T10:43:06Z</time>
      </trkpt>
      <trkpt lat="50.69338" lon="3.19094">
        <ele>24</ele>
        <time>2022-07-14T10:43:14Z</time>
      </trkpt>
      <trkpt lat="50.69368" lon="3.19071">
        <ele>24</ele>
        <time>2022-07-14T10:43:21Z</time>
      </trkpt>
      <trkpt lat="50.69418" lon="3.19037">
        <ele>25</ele>
        <time>2022-07-14T10:43:37Z</time>
      </trkpt>
      <trkpt lat="50.6954" lon="3.1896">
        <ele>25.4</ele>
        <time>2022-07-14T10:44:43Z</time>
      </trkpt>
      <trkpt lat="50.69656" lon="3.1888">
        <ele>26.6</ele>
        <time>2022-07-14T10:45:23Z</time>
      </trkpt>
      <trkpt lat="50.69812" lon="3.18782">
        <ele>29</ele>
        <time>2022-07-14T10:46:13Z</time>
      </trkpt>
      <trkpt lat="50.69996" lon="3.18654">
        <ele>31</ele>
        <time>2022-07-14T10:47:05Z</time>
      </trkpt>
      <trkpt lat="50.7015" lon="3.18554">
        <ele>33</ele>
      </trkpt>
      <trkpt lat="50.70295" lon="3.18456">
        <ele>32</ele>
        <time>2022-07-14T10:48:25Z</time>
      </trkpt>
      <trkpt lat="50.70372" lon="3.18409">
        <ele>32.7</ele>
        <time>2022-07-14T10:48:43Z</time>
      </trkpt>
      <trkpt lat="50.7048" lon="3.18304">
        <ele>32</ele>
        <time>2022-07-14T10:49:13Z</time>
      </trkpt>
      <trkpt lat="50.70564" lon="3.18193">
        <ele>31.7</ele>
        <time>2022-07-14T10:49:39Z</time>
      </trkpt>
      <trkpt lat="50.70611" lon="3.18093">
        <ele>32</ele>
        <time>2022-07-14T10:49:53Z</time>
      </trkpt>
      <trkpt lat="50.70623" lon="3.18064">
        <ele>31.9</ele>
        <time>2022-07-14T10:50:01Z</time>
      </trkpt>
      <trkpt lat="50.70623" lon="3.18034">
        <ele>32</ele>
        <time>2022-07-14T10:50:11Z</time>
      </trkpt>
      <trkpt lat="50.70629" lon="3.18014">
        <ele>32</ele>
        <time>2022-07-14T10:50:19Z</time>
      </trkpt>
      <trkpt lat="50.7065" lon="3.17949">
        <ele>32</ele>
        <time>2022-07-14T10:50:33Z</time>
      </trkpt>
      <trkpt lat="50.70668" lon="3.17916">
        <ele>31</ele>
        <time>2022-07-14T10:50:41Z</time>
      </trkpt>
      <trkpt lat="50.70684" lon="3.17856">
        <ele>31.3</ele>
      </trkpt>
      <trkpt lat="50.70689" lon="3.17858">
        <ele>31.6</ele>
      </trkpt>
      <trkpt lat="50.70692" lon="3.17842">
        <ele>31.8</ele>
        <time>2022-07-14T10:50:51Z</time>
      </trkpt>
      <trkpt lat="50.70704" lon="3.17754">
        <ele>32</ele>
      </trkpt>
      <trkpt lat="50.7071" lon="3.17661">
        <ele>32.6</ele>
        <time>2022-07-14T10:51:21Z</time>
      </trkpt>
      <trkpt lat="50.7071" lon="3.17572">
        <ele>31.7</ele>
      </trkpt>
      <trkpt lat="50.70697" lon="3.17436">
        <ele>32</ele>
        <time>2022-07-14T10:51:53Z</time>
      </trkpt>
      <trkpt lat="50.70672" lon="3.17288">
        <ele>32.5</ele>
        <time>2022-07-14T10:52:11Z</time>
      </trkpt>
      <trkpt lat="50.706" lon="3.17014">
        <ele>34.9</ele>
        <time>2022-07-14T10:52:59Z</time>
      </trkpt>
      <trkpt lat="50.70557" lon="3.16845">
        <ele>33.9</ele>
      </trkpt>
      <trkpt lat="50.70508" lon="3.16668">
        <ele>35.3</ele>
        <time>2022-07-14T10:54:20Z</time>
      </trkpt>
      <trkpt lat="50.70491" lon="3.16593">
        <ele>35.4</ele>
        <time>2022-07-14T10:54:30Z</time>
      </trkpt>
      <trkpt lat="50.70476" lon="3.16541">
        <ele>35.2</ele>
        <time>2022-07-14T10:54:34Z</time>
      </trkpt>
      <trkpt lat="50.70477" lon="3.16516">
        <ele>36.2</ele>
        <time>2022-07-14T10:54:43Z</time>
      </trkpt>
      <trkpt lat="50.70468" lon="3.16481">
        <ele>36.4</ele>
      </trkpt>
      <trkpt lat="50.70459" lon="3.1646">
        <ele>36.5</ele>
        <time>2022-07-14T10:54:53Z</time>
      </trkpt>
      <trkpt lat="50.70438" lon="3.16396">
        <ele>36.4</ele>
        <time>2022-07-14T10:55:01Z</time>
      </trkpt>
      <trkpt lat="50.70414" lon="3.16313">
        <ele>36</ele>
        <time>2022-07-14T10:55:11Z</time>
      </trkpt>
      <trkpt lat="50.70397" lon="3.16247">
        <ele>35.7</ele>
        <time>2022-07-14T10:55:23Z</time>
      </trkpt>
      <trkpt lat="50.70389" lon="3.16243">
        <ele>35.3</ele>
        <time>2022-07-14T10:55:33Z</time>
      </trkpt>
      <trkpt lat="50.70369" lon="3.16171">
        <ele>35.8</ele>
        <time>2022-07-14T10:55:41Z</time>
      </trkpt>
      <trkpt lat="50.70347" lon="3.16095">
        <ele>37</ele>
        <time>2022-07-14T10:56:25Z</time>
      </trkpt>
      <trkpt lat="50.70331" lon="3.16032">
        <ele>36</ele>
        <time>2022-07-14T10:57:21Z</time>
      </trkpt>
      <trkpt lat="50.70285" lon="3.15854">
        <ele>34.5</ele>
        <time>2022-07-14T10:59:59Z</time>
      </trkpt>
      <trkpt lat="50.70257" lon="3.15733">
        <ele>34.7</ele>
        <time>2022-07-14T11:00:22Z</time>
      </trkpt>
      <trkpt lat="50.70253" lon="3.15707">
        <ele>33.6</ele>
      </trkpt>
      <trkpt lat="50.70259" lon="3.15685">
        <ele>34.6</ele>
        <time>2022-07-14T11:00:32Z</time>
      </trkpt>
      <trkpt lat="50.70271" lon="3.15673">
        <ele>35.8</ele>
      </trkpt>
      <trkpt lat="50.70292" lon="3.15667">
        <ele>36.5</ele>
        <time>2022-07-14T11:00:40Z</time>
      </trkpt>
      <trkpt lat="50.7029" lon="3.15631">
        <ele>37.1</ele>
        <time>2022-07-14T11:00:50Z</time>
      </trkpt>
      <trkpt lat="50.70261" lon="3.15634">
        <ele>38.762707</ele>
        <time>2022-07-14T11:00:58Z</time>
      </trkpt>
      <trkpt lat="50.7024" lon="3.15626">
        <ele>38.855389</ele>
        <time>2022-07-14T11:01:02Z</time>
      </trkpt>
      <trkpt lat="50.70214" lon="3.15603">
        <ele>35.6</ele>
        <time>2022-07-14T11:01:12Z</time>
      </trkpt>
      <trkpt lat="50.70192" lon="3.15561">
        <ele>36</ele>
        <time>2022-07-14T11:01:20Z</time>
      </trkpt>
      <trkpt lat="50.70172" lon="3.15525">
        <ele>37</ele>
      </trkpt>
      <trkpt lat="50.70114" lon="3.15428">
        <ele>39.725437</ele>
        <time>2022-07-14T11:01:52Z</time>
      </trkpt>
      <trkpt lat="50.70079" lon="3.15389">
        <ele>40.103439</ele>
        <time>2022-07-14T11:02:00Z</time>
      </trkpt>
      <trkpt lat="50.70003" lon="3.15297">
        <ele>39</ele>
        <time>2022-07-14T11:02:18Z</time>
      </trkpt>
      <trkpt lat="50.69985" lon="3.15276">
        <ele>39</ele>
        <time>2022-07-14T11:02:22Z</time>
      </trkpt>
      <trkpt lat="50.69956" lon="3.15241">
        <ele>38.7</ele>
        <time>2022-07-14T11:02:30Z</time>
      </trkpt>
      <trkpt lat="50.69918" lon="3.1519">
        <ele>38.2</ele>
        <time>2022-07-14T11:02:40Z</time>
      </trkpt>
      <trkpt lat="50.69888" lon="3.15147">
        <ele>41.85482</ele>
        <time>2022-07-14T11:02:48Z</time>
      </trkpt>
      <trkpt lat="50.69882" lon="3.15148">
        <ele>36.8</ele>
      </trkpt>
      <trkpt lat="50.6984" lon="3.15099">
        <ele>35.5</ele>
        <time>2022-07-14T11:02:58Z</time>
      </trkpt>
      <trkpt lat="50.69817" lon="3.15069">
        <ele>36.5</ele>
      </trkpt>
      <trkpt lat="50.69803" lon="3.15047">
        <ele>41.107456</ele>
        <time>2022-07-14T11:03:10Z</time>
      </trkpt>
      <trkpt lat="50.6977" lon="3.15006">
        <ele>40.481186</ele>
        <time>2022-07-14T11:03:20Z</time>
      </trkpt>
      <trkpt lat="50.6974" lon="3.1497">
        <ele>38.6</ele>
        <time>2022-07-14T11:03:28Z</time>
      </trkpt>
      <trkpt lat="50.69705" lon="3.14925">
        <ele>38</ele>
      </trkpt>
      <trkpt lat="50.69691" lon="3.14907">
        <ele>37.9</ele>
      </trkpt>
      <trkpt lat="50.69668" lon="3.1488">
        <ele>36.8</ele>
      </trkpt>
      <trkpt lat="50.69663" lon="3.14862">
        <ele>37.6</ele>
        <time>2022-07-14T11:03:50Z</time>
      </trkpt>
      <trkpt lat="50.69645" lon="3.1484">
        <ele>37.957249</ele>
        <time>2022-07-14T11:04:00Z</time>
      </trkpt>
      <trkpt lat="50.69616" lon="3.14806">
        <ele>37.701694</ele>
        <time>2022-07-14T11:04:08Z</time>
      </trkpt>
      <trkpt lat="50.69587" lon="3.14771">
        <ele>37.507187</ele>
        <time>2022-07-14T11:04:17Z</time>
      </trkpt>
      <trkpt lat="50.69567" lon="3.14747">
        <ele>37.410339</ele>
        <time>2022-07-14T11:04:23Z</time>
      </trkpt>
      <trkpt lat="50.69552" lon="3.14711">
        <ele>37.220123</ele>
        <time>2022-07-14T11:04:32Z</time>
      </trkpt>
      <trkpt lat="50.69532" lon="3.14684">
        <ele>36.990894</ele>
        <time>2022-07-14T11:04:40Z</time>
      </trkpt>
      <trkpt lat="50.69501" lon="3.14663">
        <ele>36.660812</ele>
        <time>2022-07-14T11:04:50Z</time>
      </trkpt>
      <trkpt lat="50.69475" lon="3.14627">
        <ele>36.393139</ele>
        <time>2022-07-14T11:04:58Z</time>
      </trkpt>
      <trkpt lat="50.69452" lon="3.14604">
        <ele>36.4</ele>
        <time>2022-07-14T11:05:04Z</time>
      </trkpt>
      <trkpt lat="50.69424" lon="3.14567">
        <ele>35.918102</ele>
        <time>2022-07-14T11:05:12Z</time>
      </trkpt>
      <trkpt lat="50.69395" lon="3.14532">
        <ele>35.728359</ele>
        <time>2022-07-14T11:05:20Z</time>
      </trkpt>
      <trkpt lat="50.69351" lon="3.14483">
        <ele>35.9</ele>
        <time>2022-07-14T11:05:38Z</time>
      </trkpt>
      <trkpt lat="50.69314" lon="3.14438">
        <ele>36</ele>
        <time>2022-07-14T11:05:42Z</time>
      </trkpt>
      <trkpt lat="50.69277" lon="3.14384">
        <ele>36</ele>
        <time>2022-07-14T11:05:52Z</time>
      </trkpt>
      <trkpt lat="50.69249" lon="3.1434">
        <ele>35.342739</ele>
        <time>2022-07-14T11:06:00Z</time>
      </trkpt>
      <trkpt lat="50.69214" lon="3.14293">
        <ele>35.255283</ele>
        <time>2022-07-14T11:06:10Z</time>
      </trkpt>
      <trkpt lat="50.69191" lon="3.14275">
        <ele>35.166737</ele>
        <time>2022-07-14T11:06:19Z</time>
      </trkpt>
      <trkpt lat="50.6918" lon="3.1427">
        <ele>35.111298</ele>
        <time>2022-07-14T11:06:23Z</time>
      </trkpt>
      <trkpt lat="50.69152" lon="3.14242">
        <ele>35.058979</ele>
        <time>2022-07-14T11:06:33Z</time>
      </trkpt>
      <trkpt lat="50.69135" lon="3.14223">
        <ele>35.043423</ele>
        <time>2022-07-14T11:06:41Z</time>
      </trkpt>
      <trkpt lat="50.69119" lon="3.14206">
        <ele>35.094391</ele>
        <time>2022-07-14T11:07:01Z</time>
      </trkpt>
      <trkpt lat="50.69099" lon="3.14181">
        <ele>36.8</ele>
        <time>2022-07-14T11:07:09Z</time>
      </trkpt>
      <trkpt lat="50.69087" lon="3.14165">
        <ele>38</ele>
        <time>2022-07-14T11:07:13Z</time>
      </trkpt>
      <trkpt lat="50.69064" lon="3.14139">
        <ele>35.336815</ele>
        <time>2022-07-14T11:07:23Z</time>
      </trkpt>
      <trkpt lat="50.69045" lon="3.14113">
        <ele>35.461548</ele>
        <time>2022-07-14T11:07:31Z</time>
      </trkpt>
      <trkpt lat="50.69023" lon="3.14084">
        <ele>35.587116</ele>
        <time>2022-07-14T11:07:39Z</time>
      </trkpt>
      <trkpt lat="50.69001" lon="3.14055">
        <ele>35.751656</ele>
        <time>2022-07-14T11:07:49Z</time>
      </trkpt>
      <trkpt lat="50.68989" lon="3.14041">
        <ele>35.816895</ele>
        <time>2022-07-14T11:07:53Z</time>
      </trkpt>
      <trkpt lat="50.68953" lon="3.14002">
        <ele>40.3</ele>
        <time>2022-07-14T11:08:03Z</time>
      </trkpt>
      <trkpt lat="50.68904" lon="3.1395">
        <ele>37.9</ele>
        <time>2022-07-14T11:08:28Z</time>
      </trkpt>
      <trkpt lat="50.6888" lon="3.13923">
        <ele>39.3</ele>
        <time>2022-07-14T11:08:36Z</time>
      </trkpt>
      <trkpt lat="50.68849" lon="3.13889">
        <ele>36.613964</ele>
        <time>2022-07-14T11:08:48Z</time>
      </trkpt>
      <trkpt lat="50.68808" lon="3.13847">
        <ele>40.5</ele>
        <time>2022-07-14T11:09:04Z</time>
      </trkpt>
      <trkpt lat="50.68681" lon="3.13718">
        <ele>40.3</ele>
        <time>2022-07-14T11:09:33Z</time>
      </trkpt>
      <trkpt lat="50.68626" lon="3.13662">
        <ele>40.4</ele>
        <time>2022-07-14T11:09:51Z</time>
      </trkpt>
      <trkpt lat="50.68586" lon="3.13624">
        <ele>38.8</ele>
        <time>2022-07-14T11:09:59Z</time>
      </trkpt>
      <trkpt lat="50.68544" lon="3.13584">
        <ele>36.6</ele>
        <time>2022-07-14T11:10:10Z</time>
      </trkpt>
      <trkpt lat="50.6853" lon="3.13569">
        <ele>36</ele>
        <time>2022-07-14T11:10:14Z</time>
      </trkpt>
      <trkpt lat="50.6851" lon="3.13552">
        <ele>37.78886</ele>
        <time>2022-07-14T11:10:22Z</time>
      </trkpt>
      <trkpt lat="50.68477" lon="3.1352">
        <ele>37.247017</ele>
        <time>2022-07-14T11:10:32Z</time>
      </trkpt>
      <trkpt lat="50.68454" lon="3.13495">
        <ele>36.737839</ele>
        <time>2022-07-14T11:10:40Z</time>
      </trkpt>
      <trkpt lat="50.6842" lon="3.13463">
        <ele>35.893921</ele>
        <time>2022-07-14T11:10:50Z</time>
      </trkpt>
      <trkpt lat="50.68379" lon="3.13422">
        <ele>35.8</ele>
        <time>2022-07-14T11:11:02Z</time>
      </trkpt>
      <trkpt lat="50.68335" lon="3.13377">
        <ele>33</ele>
        <time>2022-07-14T11:11:12Z</time>
      </trkpt>
      <trkpt lat="50.68298" lon="3.13337">
        <ele>33.801254</ele>
        <time>2022-07-14T11:11:20Z</time>
      </trkpt>
      <trkpt lat="50.6827" lon="3.1331">
        <ele>33.273869</ele>
        <time>2022-07-14T11:11:28Z</time>
      </trkpt>
      <trkpt lat="50.68252" lon="3.1329">
        <ele>32.926163</ele>
        <time>2022-07-14T11:11:34Z</time>
      </trkpt>
      <trkpt lat="50.68221" lon="3.1326">
        <ele>32.501335</ele>
        <time>2022-07-14T11:11:43Z</time>
      </trkpt>
      <trkpt lat="50.6819" lon="3.13228">
        <ele>32.006252</ele>
        <time>2022-07-14T11:11:51Z</time>
      </trkpt>
      <trkpt lat="50.68161" lon="3.13199">
        <ele>31.41589</ele>
        <time>2022-07-14T11:12:02Z</time>
      </trkpt>
      <trkpt lat="50.68138" lon="3.13172">
        <ele>32.8</ele>
        <time>2022-07-14T11:12:10Z</time>
      </trkpt>
      <trkpt lat="50.68132" lon="3.13154">
        <ele>33.3</ele>
        <time>2022-07-14T11:12:18Z</time>
      </trkpt>
      <trkpt lat="50.68121" lon="3.13131">
        <ele>33.7</ele>
        <time>2022-07-14T11:12:26Z</time>
      </trkpt>
      <trkpt lat="50.68101" lon="3.13125">
        <ele>29.41485</ele>
        <time>2022-07-14T11:12:35Z</time>
      </trkpt>
      <trkpt lat="50.68073" lon="3.13101">
        <ele>30.7</ele>
        <time>2022-07-14T11:12:45Z</time>
      </trkpt>
      <trkpt lat="50.68054" lon="3.1308">
        <ele>30.8</ele>
        <time>2022-07-14T11:12:53Z</time>
      </trkpt>
      <trkpt lat="50.68017" lon="3.13044">
        <ele>28.8</ele>
        <time>2022-07-14T11:13:07Z</time>
      </trkpt>
      <trkpt lat="50.67993" lon="3.1302">
        <ele>28</ele>
        <time>2022-07-14T11:13:15Z</time>
      </trkpt>
      <trkpt lat="50.67848" lon="3.12871">
        <ele>25.7</ele>
        <time>2022-07-14T11:13:55Z</time>
      </trkpt>
      <trkpt lat="50.67799" lon="3.12822">
        <ele>24</ele>
        <time>2022-07-14T11:14:05Z</time>
      </trkpt>
      <trkpt lat="50.67753" lon="3.12778">
        <ele>24</ele>
        <time>2022-07-14T11:14:17Z</time>
      </trkpt>
      <trkpt lat="50.67717" lon="3.12739">
        <ele>22.8</ele>
        <time>2022-07-14T11:14:27Z</time>
      </trkpt>
      <trkpt lat="50.67687" lon="3.12713">
        <ele>24</ele>
        <time>2022-07-14T11:14:35Z</time>
      </trkpt>
      <trkpt lat="50.67656" lon="3.12683">
        <ele>24.5</ele>
        <time>2022-07-14T11:14:43Z</time>
      </trkpt>
      <trkpt lat="50.67622" lon="3.12651">
        <ele>21.542828</ele>
        <time>2022-07-14T11:14:53Z</time>
      </trkpt>
      <trkpt lat="50.67608" lon="3.1264">
        <ele>21.510443</ele>
        <time>2022-07-14T11:14:57Z</time>
      </trkpt>
      <trkpt lat="50.67588" lon="3.12611">
        <ele>21.473608</ele>
        <time>2022-07-14T11:15:07Z</time>
      </trkpt>
      <trkpt lat="50.67563" lon="3.12579">
        <ele>24.5</ele>
        <time>2022-07-14T11:15:15Z</time>
      </trkpt>
      <trkpt lat="50.6752" lon="3.12537">
        <ele>22.8</ele>
        <time>2022-07-14T11:15:24Z</time>
      </trkpt>
      <trkpt lat="50.67485" lon="3.125">
        <ele>22.5</ele>
        <time>2022-07-14T11:15:34Z</time>
      </trkpt>
      <trkpt lat="50.67444" lon="3.12465">
        <ele>22.081871</ele>
        <time>2022-07-14T11:15:46Z</time>
      </trkpt>
      <trkpt lat="50.6741" lon="3.12429">
        <ele>22.174061</ele>
        <time>2022-07-14T11:15:56Z</time>
      </trkpt>
      <trkpt lat="50.67391" lon="3.12405">
        <ele>22.165071</ele>
        <time>2022-07-14T11:16:04Z</time>
      </trkpt>
      <trkpt lat="50.67361" lon="3.12375">
        <ele>22.082979</ele>
        <time>2022-07-14T11:16:14Z</time>
      </trkpt>
      <trkpt lat="50.67349" lon="3.12362">
        <ele>22.024107</ele>
        <time>2022-07-14T11:16:19Z</time>
      </trkpt>
      <trkpt lat="50.67326" lon="3.12343">
        <ele>21.878191</ele>
        <time>2022-07-14T11:16:27Z</time>
      </trkpt>
      <trkpt lat="50.67295" lon="3.12305">
        <ele>23</ele>
        <time>2022-07-14T11:16:37Z</time>
      </trkpt>
      <trkpt lat="50.67282" lon="3.12295">
        <ele>23</ele>
      </trkpt>
      <trkpt lat="50.67264" lon="3.12332">
        <ele>23</ele>
        <time>2022-07-14T11:16:45Z</time>
      </trkpt>
      <trkpt lat="50.67249" lon="3.12311">
        <ele>20.895105</ele>
        <time>2022-07-14T11:16:55Z</time>
      </trkpt>
      <trkpt lat="50.67235" lon="3.12297">
        <ele>20.797947</ele>
        <time>2022-07-14T11:16:59Z</time>
      </trkpt>
      <trkpt lat="50.67212" lon="3.12282">
        <ele>21.2</ele>
        <time>2022-07-14T11:17:09Z</time>
      </trkpt>
      <trkpt lat="50.67192" lon="3.1229">
        <ele>21.4</ele>
        <time>2022-07-14T11:17:19Z</time>
      </trkpt>
      <trkpt lat="50.67173" lon="3.12318">
        <ele>22.3</ele>
        <time>2022-07-14T11:18:14Z</time>
      </trkpt>
      <trkpt lat="50.67147" lon="3.12298">
        <ele>21.4</ele>
        <time>2022-07-14T11:18:22Z</time>
      </trkpt>
      <trkpt lat="50.67176" lon="3.12232">
        <ele>20.2</ele>
        <time>2022-07-14T11:18:36Z</time>
      </trkpt>
      <trkpt lat="50.67204" lon="3.12185">
        <ele>20.2</ele>
        <time>2022-07-14T11:18:44Z</time>
      </trkpt>
      <trkpt lat="50.67233" lon="3.12149">
        <ele>19.816893</ele>
        <time>2022-07-14T11:18:54Z</time>
      </trkpt>
      <trkpt lat="50.67259" lon="3.12114">
        <ele>19.862354</ele>
        <time>2022-07-14T11:19:02Z</time>
      </trkpt>
      <trkpt lat="50.67283" lon="3.12082">
        <ele>19.910419</ele>
        <time>2022-07-14T11:19:09Z</time>
      </trkpt>
      <trkpt lat="50.6731" lon="3.12044">
        <ele>20.003963</ele>
        <time>2022-07-14T11:19:17Z</time>
      </trkpt>
      <trkpt lat="50.67336" lon="3.12008">
        <ele>20.071796</ele>
        <time>2022-07-14T11:19:25Z</time>
      </trkpt>
      <trkpt lat="50.6737" lon="3.11962">
        <ele>20.103979</ele>
        <time>2022-07-14T11:19:35Z</time>
      </trkpt>
      <trkpt lat="50.67398" lon="3.11925">
        <ele>20.100149</ele>
        <time>2022-07-14T11:19:43Z</time>
      </trkpt>
      <trkpt lat="50.67413" lon="3.11908">
        <ele>20.093739</ele>
        <time>2022-07-14T11:19:47Z</time>
      </trkpt>
      <trkpt lat="50.67447" lon="3.11885">
        <ele>20.068249</ele>
        <time>2022-07-14T11:19:57Z</time>
      </trkpt>
      <trkpt lat="50.67481" lon="3.1188">
        <ele>20.033924</ele>
        <time>2022-07-14T11:20:05Z</time>
      </trkpt>
      <trkpt lat="50.67525" lon="3.11885">
        <ele>20.1</ele>
        <time>2022-07-14T11:20:15Z</time>
      </trkpt>
      <trkpt lat="50.67558" lon="3.11911">
        <ele>19.921583</ele>
        <time>2022-07-14T11:20:23Z</time>
      </trkpt>
      <trkpt lat="50.67572" lon="3.11927">
        <ele>19.895252</ele>
        <time>2022-07-14T11:20:27Z</time>
      </trkpt>
      <trkpt lat="50.67606" lon="3.11962">
        <ele>19.81979</ele>
        <time>2022-07-14T11:20:37Z</time>
      </trkpt>
      <trkpt lat="50.6764" lon="3.11979">
        <ele>19.715914</ele>
        <time>2022-07-14T11:20:45Z</time>
      </trkpt>
      <trkpt lat="50.6768" lon="3.11985">
        <ele>19.627617</ele>
        <time>2022-07-14T11:20:55Z</time>
      </trkpt>
      <trkpt lat="50.677" lon="3.11988">
        <ele>19.380247</ele>
        <time>2022-07-14T11:22:01Z</time>
      </trkpt>
      <trkpt lat="50.67712" lon="3.11989">
        <ele>19.376982</ele>
        <time>2022-07-14T11:22:09Z</time>
      </trkpt>
      <trkpt lat="50.67719" lon="3.1199">
        <ele>19.37258</ele>
        <time>2022-07-14T11:22:15Z</time>
      </trkpt>
      <trkpt lat="50.67729" lon="3.1199">
        <ele>19.366413</ele>
        <time>2022-07-14T11:22:23Z</time>
      </trkpt>
      <trkpt lat="50.6774" lon="3.11991">
        <ele>19.356888</ele>
        <time>2022-07-14T11:22:31Z</time>
      </trkpt>
      <trkpt lat="50.67754" lon="3.11991">
        <ele>19.344296</ele>
        <time>2022-07-14T11:22:41Z</time>
      </trkpt>
      <trkpt lat="50.67763" lon="3.11991">
        <ele>19.3353</ele>
        <time>2022-07-14T11:22:49Z</time>
      </trkpt>
      <trkpt lat="50.67772" lon="3.11989">
        <ele>19.30892</ele>
        <time>2022-07-14T11:23:19Z</time>
      </trkpt>
      <trkpt lat="50.67783" lon="3.1199">
        <ele>19.309465</ele>
        <time>2022-07-14T11:23:27Z</time>
      </trkpt>
      <trkpt lat="50.67794" lon="3.1199">
        <ele>19.311897</ele>
        <time>2022-07-14T11:23:35Z</time>
      </trkpt>
      <trkpt lat="50.67808" lon="3.1199">
        <ele>19.320879</ele>
        <time>2022-07-14T11:23:45Z</time>
      </trkpt>
      <trkpt lat="50.6782" lon="3.11986">
        <ele>19.344135</ele>
        <time>2022-07-14T11:23:53Z</time>
      </trkpt>
      <trkpt lat="50.67825" lon="3.11984">
        <ele>19.363138</ele>
        <time>2022-07-14T11:23:57Z</time>
      </trkpt>
      <trkpt lat="50.67839" lon="3.11974">
        <ele>19.416544</ele>
        <time>2022-07-14T11:24:07Z</time>
      </trkpt>
      <trkpt lat="50.6785" lon="3.11963">
        <ele>19.490265</ele>
        <time>2022-07-14T11:24:15Z</time>
      </trkpt>
      <trkpt lat="50.67861" lon="3.11947">
        <ele>19.595961</ele>
        <time>2022-07-14T11:24:25Z</time>
      </trkpt>
      <trkpt lat="50.6787" lon="3.11936">
        <ele>19.678051</ele>
        <time>2022-07-14T11:24:33Z</time>
      </trkpt>
      <trkpt lat="50.67873" lon="3.1193">
        <ele>19.726248</ele>
        <time>2022-07-14T11:24:37Z</time>
      </trkpt>
      <trkpt lat="50.67883" lon="3.11914">
        <ele>19.801783</ele>
        <time>2022-07-14T11:24:47Z</time>
      </trkpt>
      <trkpt lat="50.67891" lon="3.11899">
        <ele>19.825119</ele>
        <time>2022-07-14T11:24:55Z</time>
      </trkpt>
      <trkpt lat="50.67901" lon="3.1188">
        <ele>19.762859</ele>
        <time>2022-07-14T11:25:05Z</time>
      </trkpt>
      <trkpt lat="50.6791" lon="3.11867">
        <ele>19.648403</ele>
        <time>2022-07-14T11:25:13Z</time>
      </trkpt>
      <trkpt lat="50.67914" lon="3.1186">
        <ele>19.551924</ele>
        <time>2022-07-14T11:25:17Z</time>
      </trkpt>
      <trkpt lat="50.67926" lon="3.11843">
        <ele>19.324862</ele>
        <time>2022-07-14T11:25:27Z</time>
      </trkpt>
      <trkpt lat="50.67935" lon="3.1183">
        <ele>19.090115</ele>
        <time>2022-07-14T11:25:35Z</time>
      </trkpt>
      <trkpt lat="50.67944" lon="3.11816">
        <ele>18.910545</ele>
        <time>2022-07-14T11:25:43Z</time>
      </trkpt>
      <trkpt lat="50.67954" lon="3.11798">
        <ele>18.708427</ele>
        <time>2022-07-14T11:25:53Z</time>
      </trkpt>
      <trkpt lat="50.67959" lon="3.11791">
        <ele>18.664507</ele>
        <time>2022-07-14T11:25:57Z</time>
      </trkpt>
      <trkpt lat="50.67966" lon="3.11776">
        <ele>18.591572</ele>
        <time>2022-07-14T11:26:05Z</time>
      </trkpt>
      <trkpt lat="50.67976" lon="3.11758">
        <ele>18.594311</ele>
        <time>2022-07-14T11:26:15Z</time>
      </trkpt>
      <trkpt lat="50.67984" lon="3.11744">
        <ele>18.679213</ele>
        <time>2022-07-14T11:26:23Z</time>
      </trkpt>
      <trkpt lat="50.67994" lon="3.11726">
        <ele>18.887859</ele>
        <time>2022-07-14T11:26:33Z</time>
      </trkpt>
      <trkpt lat="50.67997" lon="3.11719">
        <ele>18.95911</ele>
        <time>2022-07-14T11:26:37Z</time>
      </trkpt>
      <trkpt lat="50.68005" lon="3.11705">
        <ele>19.141581</ele>
        <time>2022-07-14T11:26:45Z</time>
      </trkpt>
      <trkpt lat="50.68015" lon="3.11688">
        <ele>19.391445</ele>
        <time>2022-07-14T11:26:55Z</time>
      </trkpt>
      <trkpt lat="50.68022" lon="3.11674">
        <ele>19.560863</ele>
        <time>2022-07-14T11:27:03Z</time>
      </trkpt>
      <trkpt lat="50.6803" lon="3.11656">
        <ele>19.766188</ele>
        <time>2022-07-14T11:27:13Z</time>
      </trkpt>
      <trkpt lat="50.68034" lon="3.1165">
        <ele>19.814833</ele>
        <time>2022-07-14T11:27:17Z</time>
      </trkpt>
      <trkpt lat="50.68042" lon="3.11636">
        <ele>19.92729</ele>
        <time>2022-07-14T11:27:25Z</time>
      </trkpt>
      <trkpt lat="50.68051" lon="3.11619">
        <ele>19.982319</ele>
        <time>2022-07-14T11:27:35Z</time>
      </trkpt>
      <trkpt lat="50.68058" lon="3.11606">
        <ele>19.995382</ele>
        <time>2022-07-14T11:27:43Z</time>
      </trkpt>
      <trkpt lat="50.68076" lon="3.11573">
        <ele>22</ele>
        <time>2022-07-14T11:28:25Z</time>
      </trkpt>
      <trkpt lat="50.68104" lon="3.11523">
        <ele>21.3</ele>
        <time>2022-07-14T11:28:39Z</time>
      </trkpt>
      <trkpt lat="50.68111" lon="3.115">
        <ele>20.079597</ele>
        <time>2022-07-14T11:28:47Z</time>
      </trkpt>
      <trkpt lat="50.68117" lon="3.11483">
        <ele>20.159952</ele>
        <time>2022-07-14T11:28:55Z</time>
      </trkpt>
      <trkpt lat="50.68125" lon="3.11464">
        <ele>21</ele>
        <time>2022-07-14T11:29:06Z</time>
      </trkpt>
      <trkpt lat="50.68127" lon="3.11449">
        <ele>21</ele>
        <time>2022-07-14T11:29:24Z</time>
      </trkpt>
      <trkpt lat="50.6813" lon="3.11427">
        <ele>21.2</ele>
        <time>2022-07-14T11:29:30Z</time>
      </trkpt>
      <trkpt lat="50.68131" lon="3.1139">
        <ele>20.75536</ele>
        <time>2022-07-14T11:29:38Z</time>
      </trkpt>
      <trkpt lat="50.68134" lon="3.11348">
        <ele>20.858212</ele>
        <time>2022-07-14T11:29:46Z</time>
      </trkpt>
      <trkpt lat="50.68137" lon="3.11293">
        <ele>20.942387</ele>
        <time>2022-07-14T11:29:56Z</time>
      </trkpt>
      <trkpt lat="50.68142" lon="3.1126">
        <ele>20.999147</ele>
        <time>2022-07-14T11:30:04Z</time>
      </trkpt>
      <trkpt lat="50.68143" lon="3.11243">
        <ele>21.047268</ele>
        <time>2022-07-14T11:30:08Z</time>
      </trkpt>
      <trkpt lat="50.68147" lon="3.11194">
        <ele>22.3</ele>
        <time>2022-07-14T11:30:18Z</time>
      </trkpt>
      <trkpt lat="50.68147" lon="3.11151">
        <ele>21.322666</ele>
        <time>2022-07-14T11:30:26Z</time>
      </trkpt>
      <trkpt lat="50.68149" lon="3.11124">
        <ele>20.8</ele>
      </trkpt>
      <trkpt lat="50.68136" lon="3.11102">
        <ele>21.472378</ele>
        <time>2022-07-14T11:30:36Z</time>
      </trkpt>
      <trkpt lat="50.68121" lon="3.11076">
        <ele>22.3</ele>
      </trkpt>
      <trkpt lat="50.6809" lon="3.11041">
        <ele>20.4</ele>
        <time>2022-07-14T11:30:58Z</time>
      </trkpt>
      <trkpt lat="50.68013" lon="3.1098">
        <ele>20</ele>
        <time>2022-07-14T11:31:16Z</time>
      </trkpt>
      <trkpt lat="50.67978" lon="3.10959">
        <ele>22.51321</ele>
        <time>2022-07-14T11:31:24Z</time>
      </trkpt>
      <trkpt lat="50.67962" lon="3.10948">
        <ele>22.593924</ele>
        <time>2022-07-14T11:31:28Z</time>
      </trkpt>
      <trkpt lat="50.67915" lon="3.10911">
        <ele>22.903791</ele>
        <time>2022-07-14T11:31:38Z</time>
      </trkpt>
      <trkpt lat="50.67886" lon="3.10888">
        <ele>23.122091</ele>
        <time>2022-07-14T11:31:46Z</time>
      </trkpt>
      <trkpt lat="50.67851" lon="3.1086">
        <ele>23.290424</ele>
        <time>2022-07-14T11:31:54Z</time>
      </trkpt>
      <trkpt lat="50.67814" lon="3.1082">
        <ele>21</ele>
        <time>2022-07-14T11:32:04Z</time>
      </trkpt>
      <trkpt lat="50.67795" lon="3.10792">
        <ele>21</ele>
        <time>2022-07-14T11:32:08Z</time>
      </trkpt>
      <trkpt lat="50.6778" lon="3.1076">
        <ele>21</ele>
        <time>2022-07-14T11:32:16Z</time>
      </trkpt>
      <trkpt lat="50.67754" lon="3.10689">
        <ele>21</ele>
        <time>2022-07-14T11:32:26Z</time>
      </trkpt>
      <trkpt lat="50.67732" lon="3.10643">
        <ele>22.440866</ele>
        <time>2022-07-14T11:32:34Z</time>
      </trkpt>
      <trkpt lat="50.67703" lon="3.10602">
        <ele>21.775486</ele>
        <time>2022-07-14T11:32:44Z</time>
      </trkpt>
      <trkpt lat="50.67693" lon="3.10586">
        <ele>21.584797</ele>
        <time>2022-07-14T11:32:48Z</time>
      </trkpt>
      <trkpt lat="50.67665" lon="3.10551">
        <ele>21</ele>
        <time>2022-07-14T11:32:56Z</time>
      </trkpt>
      <trkpt lat="50.6764" lon="3.10491">
        <ele>20</ele>
        <time>2022-07-14T11:33:06Z</time>
      </trkpt>
      <trkpt lat="50.67627" lon="3.10427">
        <ele>20.4</ele>
        <time>2022-07-14T11:33:14Z</time>
      </trkpt>
      <trkpt lat="50.67598" lon="3.1022">
        <ele>19.5</ele>
        <time>2022-07-14T11:33:46Z</time>
      </trkpt>
      <trkpt lat="50.67596" lon="3.10177">
        <ele>19.6</ele>
        <time>2022-07-14T11:33:54Z</time>
      </trkpt>
      <trkpt lat="50.67602" lon="3.1013">
        <ele>19.1</ele>
      </trkpt>
      <trkpt lat="50.67613" lon="3.10095">
        <ele>19.755753</ele>
        <time>2022-07-14T11:34:04Z</time>
      </trkpt>
      <trkpt lat="50.67634" lon="3.10025">
        <ele>19.2</ele>
        <time>2022-07-14T11:34:16Z</time>
      </trkpt>
      <trkpt lat="50.67659" lon="3.09964">
        <ele>19.659662</ele>
        <time>2022-07-14T11:34:26Z</time>
      </trkpt>
      <trkpt lat="50.67686" lon="3.09925">
        <ele>19.673309</ele>
        <time>2022-07-14T11:34:34Z</time>
      </trkpt>
      <trkpt lat="50.67712" lon="3.09885">
        <ele>19.725798</ele>
        <time>2022-07-14T11:34:42Z</time>
      </trkpt>
      <trkpt lat="50.67725" lon="3.09846">
        <ele>19.775589</ele>
        <time>2022-07-14T11:34:48Z</time>
      </trkpt>
      <trkpt lat="50.67733" lon="3.09795">
        <ele>19.830257</ele>
        <time>2022-07-14T11:34:56Z</time>
      </trkpt>
      <trkpt lat="50.6774" lon="3.09742">
        <ele>19.877949</ele>
        <time>2022-07-14T11:35:04Z</time>
      </trkpt>
      <trkpt lat="50.67756" lon="3.09682">
        <ele>19.980137</ele>
        <time>2022-07-14T11:35:14Z</time>
      </trkpt>
      <trkpt lat="50.6778" lon="3.09638">
        <ele>20.1028</ele>
        <time>2022-07-14T11:35:22Z</time>
      </trkpt>
      <trkpt lat="50.67797" lon="3.09606">
        <ele>20.207508</ele>
        <time>2022-07-14T11:35:28Z</time>
      </trkpt>
      <trkpt lat="50.67809" lon="3.09577">
        <ele>21</ele>
      </trkpt>
      <trkpt lat="50.67812" lon="3.09553">
        <ele>21</ele>
        <time>2022-07-14T11:35:36Z</time>
      </trkpt>
      <trkpt lat="50.67804" lon="3.09499">
        <ele>21</ele>
        <time>2022-07-14T11:35:44Z</time>
      </trkpt>
      <trkpt lat="50.67783" lon="3.09466">
        <ele>21</ele>
        <time>2022-07-14T11:35:54Z</time>
      </trkpt>
      <trkpt lat="50.67748" lon="3.09442">
        <ele>20.751274</ele>
        <time>2022-07-14T11:36:02Z</time>
      </trkpt>
      <trkpt lat="50.67733" lon="3.09426">
        <ele>20.83658</ele>
        <time>2022-07-14T11:36:06Z</time>
      </trkpt>
      <trkpt lat="50.677" lon="3.09375">
        <ele>21.022627</ele>
        <time>2022-07-14T11:36:16Z</time>
      </trkpt>
      <trkpt lat="50.67674" lon="3.09338">
        <ele>21.220236</ele>
        <time>2022-07-14T11:36:24Z</time>
      </trkpt>
      <trkpt lat="50.67655" lon="3.09323">
        <ele>20.6</ele>
      </trkpt>
      <trkpt lat="50.67631" lon="3.09324">
        <ele>21.447613</ele>
        <time>2022-07-14T11:36:34Z</time>
      </trkpt>
      <trkpt lat="50.67597" lon="3.0932">
        <ele>21.673588</ele>
        <time>2022-07-14T11:36:42Z</time>
      </trkpt>
      <trkpt lat="50.67578" lon="3.09318">
        <ele>21.815489</ele>
        <time>2022-07-14T11:36:46Z</time>
      </trkpt>
      <trkpt lat="50.67546" lon="3.09305">
        <ele>23.9</ele>
        <time>2022-07-14T11:36:56Z</time>
      </trkpt>
      <trkpt lat="50.67508" lon="3.09276">
        <ele>22.354485</ele>
        <time>2022-07-14T11:37:04Z</time>
      </trkpt>
      <trkpt lat="50.67469" lon="3.09239">
        <ele>22.553444</ele>
        <time>2022-07-14T11:37:14Z</time>
      </trkpt>
      <trkpt lat="50.67443" lon="3.09201">
        <ele>22.613285</ele>
        <time>2022-07-14T11:37:22Z</time>
      </trkpt>
      <trkpt lat="50.67429" lon="3.09179">
        <ele>20.8</ele>
        <time>2022-07-14T11:37:26Z</time>
      </trkpt>
      <trkpt lat="50.67407" lon="3.0912">
        <ele>20</ele>
        <time>2022-07-14T11:37:36Z</time>
      </trkpt>
      <trkpt lat="50.67392" lon="3.09064">
        <ele>20</ele>
        <time>2022-07-14T11:37:44Z</time>
      </trkpt>
      <trkpt lat="50.6739" lon="3.09004">
        <ele>20</ele>
        <time>2022-07-14T11:37:52Z</time>
      </trkpt>
      <trkpt lat="50.67399" lon="3.08935">
        <ele>18.5</ele>
        <time>2022-07-14T11:38:02Z</time>
      </trkpt>
      <trkpt lat="50.67406" lon="3.08907">
        <ele>21.315678</ele>
        <time>2022-07-14T11:38:06Z</time>
      </trkpt>
      <trkpt lat="50.67416" lon="3.08852">
        <ele>20.914083</ele>
        <time>2022-07-14T11:38:14Z</time>
      </trkpt>
      <trkpt lat="50.67418" lon="3.08783">
        <ele>20.423092</ele>
        <time>2022-07-14T11:38:24Z</time>
      </trkpt>
      <trkpt lat="50.67407" lon="3.08729">
        <ele>20.129776</ele>
        <time>2022-07-14T11:38:32Z</time>
      </trkpt>
      <trkpt lat="50.67385" lon="3.08673">
        <ele>19.869854</ele>
        <time>2022-07-14T11:38:42Z</time>
      </trkpt>
      <trkpt lat="50.67376" lon="3.08654">
        <ele>19.789442</ele>
        <time>2022-07-14T11:38:46Z</time>
      </trkpt>
      <trkpt lat="50.67354" lon="3.08613">
        <ele>19.745745</ele>
        <time>2022-07-14T11:38:54Z</time>
      </trkpt>
      <trkpt lat="50.67329" lon="3.08559">
        <ele>17.5</ele>
        <time>2022-07-14T11:39:04Z</time>
      </trkpt>
      <trkpt lat="50.67296" lon="3.08513">
        <ele>18.2</ele>
        <time>2022-07-14T11:39:13Z</time>
      </trkpt>
      <trkpt lat="50.67258" lon="3.08476">
        <ele>18.6</ele>
        <time>2022-07-14T11:39:23Z</time>
      </trkpt>
      <trkpt lat="50.67237" lon="3.08465">
        <ele>20.564104</ele>
        <time>2022-07-14T11:39:27Z</time>
      </trkpt>
      <trkpt lat="50.67201" lon="3.08444">
        <ele>20.854851</ele>
        <time>2022-07-14T11:39:35Z</time>
      </trkpt>
      <trkpt lat="50.67155" lon="3.08418">
        <ele>21.245403</ele>
        <time>2022-07-14T11:39:45Z</time>
      </trkpt>
      <trkpt lat="50.6712" lon="3.0839">
        <ele>21.590649</ele>
        <time>2022-07-14T11:39:53Z</time>
      </trkpt>
      <trkpt lat="50.67085" lon="3.0834">
        <ele>21.774815</ele>
        <time>2022-07-14T11:40:03Z</time>
      </trkpt>
      <trkpt lat="50.67073" lon="3.08321">
        <ele>21.803572</ele>
        <time>2022-07-14T11:40:07Z</time>
      </trkpt>
      <trkpt lat="50.67045" lon="3.08284">
        <ele>21.768446</ele>
        <time>2022-07-14T11:40:15Z</time>
      </trkpt>
      <trkpt lat="50.67022" lon="3.08268">
        <ele>17.8</ele>
      </trkpt>
      <trkpt lat="50.66997" lon="3.08269">
        <ele>21.59985</ele>
        <time>2022-07-14T11:40:25Z</time>
      </trkpt>
      <trkpt lat="50.6696" lon="3.08271">
        <ele>21.30624</ele>
        <time>2022-07-14T11:40:33Z</time>
      </trkpt>
      <trkpt lat="50.6693" lon="3.08259">
        <ele>21.040483</ele>
        <time>2022-07-14T11:40:41Z</time>
      </trkpt>
      <trkpt lat="50.66909" lon="3.08241">
        <ele>18</ele>
        <time>2022-07-14T11:40:47Z</time>
      </trkpt>
      <trkpt lat="50.66873" lon="3.08212">
        <ele>20.367504</ele>
        <time>2022-07-14T11:40:55Z</time>
      </trkpt>
      <trkpt lat="50.66854" lon="3.08194">
        <ele>18.5</ele>
      </trkpt>
      <trkpt lat="50.66844" lon="3.08169">
        <ele>18.7</ele>
        <time>2022-07-14T11:41:03Z</time>
      </trkpt>
      <trkpt lat="50.66822" lon="3.08096">
        <ele>18.4</ele>
        <time>2022-07-14T11:41:13Z</time>
      </trkpt>
      <trkpt lat="50.66805" lon="3.08038">
        <ele>19</ele>
        <time>2022-07-14T11:41:22Z</time>
      </trkpt>
      <trkpt lat="50.668" lon="3.07992">
        <ele>18.9</ele>
        <time>2022-07-14T11:41:28Z</time>
      </trkpt>
      <trkpt lat="50.66798" lon="3.07925">
        <ele>18.2</ele>
        <time>2022-07-14T11:41:37Z</time>
      </trkpt>
      <trkpt lat="50.668" lon="3.07861">
        <ele>18.95912</ele>
        <time>2022-07-14T11:41:45Z</time>
      </trkpt>
      <trkpt lat="50.66799" lon="3.07798">
        <ele>18</ele>
        <time>2022-07-14T11:41:55Z</time>
      </trkpt>
      <trkpt lat="50.66812" lon="3.07749">
        <ele>18</ele>
        <time>2022-07-14T11:42:03Z</time>
      </trkpt>
      <trkpt lat="50.66824" lon="3.07721">
        <ele>19.1</ele>
        <time>2022-07-14T11:42:07Z</time>
      </trkpt>
      <trkpt lat="50.66847" lon="3.07674">
        <ele>21</ele>
        <time>2022-07-14T11:42:17Z</time>
      </trkpt>
      <trkpt lat="50.66876" lon="3.0762">
        <ele>19.3</ele>
        <time>2022-07-14T11:42:26Z</time>
      </trkpt>
      <trkpt lat="50.66911" lon="3.07562">
        <ele>19.740606</ele>
        <time>2022-07-14T11:42:36Z</time>
      </trkpt>
      <trkpt lat="50.66937" lon="3.07521">
        <ele>19.800524</ele>
        <time>2022-07-14T11:42:44Z</time>
      </trkpt>
      <trkpt lat="50.6695" lon="3.07499">
        <ele>19.81324</ele>
        <time>2022-07-14T11:42:48Z</time>
      </trkpt>
      <trkpt lat="50.66983" lon="3.07446">
        <ele>19</ele>
        <time>2022-07-14T11:42:58Z</time>
      </trkpt>
      <trkpt lat="50.67016" lon="3.0741">
        <ele>19.800062</ele>
        <time>2022-07-14T11:43:06Z</time>
      </trkpt>
      <trkpt lat="50.67049" lon="3.07366">
        <ele>18.9</ele>
        <time>2022-07-14T11:43:16Z</time>
      </trkpt>
      <trkpt lat="50.6708" lon="3.0733">
        <ele>19.782444</ele>
        <time>2022-07-14T11:43:24Z</time>
      </trkpt>
      <trkpt lat="50.67094" lon="3.07312">
        <ele>19.770119</ele>
        <time>2022-07-14T11:43:28Z</time>
      </trkpt>
      <trkpt lat="50.67121" lon="3.07281">
        <ele>19.744307</ele>
        <time>2022-07-14T11:43:38Z</time>
      </trkpt>
      <trkpt lat="50.67129" lon="3.07272">
        <ele>19</ele>
      </trkpt>
      <trkpt lat="50.67133" lon="3.07283">
        <ele>19.744905</ele>
        <time>2022-07-14T11:43:46Z</time>
      </trkpt>
      <trkpt lat="50.67141" lon="3.07315">
        <ele>19</ele>
        <time>2022-07-14T11:43:54Z</time>
      </trkpt>
      <trkpt lat="50.67194" lon="3.07295">
        <ele>19.657078</ele>
        <time>2022-07-14T11:44:04Z</time>
      </trkpt>
      <trkpt lat="50.67218" lon="3.07291">
        <ele>19.592144</ele>
        <time>2022-07-14T11:44:08Z</time>
      </trkpt>
      <trkpt lat="50.67259" lon="3.07286">
        <ele>19.500275</ele>
        <time>2022-07-14T11:44:16Z</time>
      </trkpt>
      <trkpt lat="50.67304" lon="3.07281">
        <ele>19.479376</ele>
        <time>2022-07-14T11:44:26Z</time>
      </trkpt>
      <trkpt lat="50.67343" lon="3.07286">
        <ele>19.590031</ele>
        <time>2022-07-14T11:44:34Z</time>
      </trkpt>
      <trkpt lat="50.67387" lon="3.07315">
        <ele>19.716894</ele>
        <time>2022-07-14T11:44:44Z</time>
      </trkpt>
      <trkpt lat="50.67406" lon="3.07328">
        <ele>19.732403</ele>
        <time>2022-07-14T11:44:48Z</time>
      </trkpt>
      <trkpt lat="50.67441" lon="3.07354">
        <ele>17.9</ele>
        <time>2022-07-14T11:44:56Z</time>
      </trkpt>
      <trkpt lat="50.67485" lon="3.07385">
        <ele>18.4</ele>
        <time>2022-07-14T11:45:06Z</time>
      </trkpt>
      <trkpt lat="50.67523" lon="3.07409">
        <ele>19.337673</ele>
        <time>2022-07-14T11:45:14Z</time>
      </trkpt>
      <trkpt lat="50.67564" lon="3.07439">
        <ele>19.140589</ele>
        <time>2022-07-14T11:45:24Z</time>
      </trkpt>
      <trkpt lat="50.67583" lon="3.07452">
        <ele>19.037123</ele>
        <time>2022-07-14T11:45:28Z</time>
      </trkpt>
      <trkpt lat="50.67617" lon="3.07478">
        <ele>18.864208</ele>
        <time>2022-07-14T11:45:36Z</time>
      </trkpt>
      <trkpt lat="50.67662" lon="3.0751">
        <ele>18.681665</ele>
        <time>2022-07-14T11:45:46Z</time>
      </trkpt>
      <trkpt lat="50.67696" lon="3.07535">
        <ele>18.655239</ele>
        <time>2022-07-14T11:45:54Z</time>
      </trkpt>
      <trkpt lat="50.67743" lon="3.07562">
        <ele>18.728298</ele>
        <time>2022-07-14T11:46:04Z</time>
      </trkpt>
      <trkpt lat="50.67761" lon="3.0756">
        <ele>18.758472</ele>
        <time>2022-07-14T11:46:08Z</time>
      </trkpt>
      <trkpt lat="50.67793" lon="3.07531">
        <ele>18.803066</ele>
        <time>2022-07-14T11:46:16Z</time>
      </trkpt>
      <trkpt lat="50.67826" lon="3.07482">
        <ele>18.818933</ele>
        <time>2022-07-14T11:46:26Z</time>
      </trkpt>
      <trkpt lat="50.67847" lon="3.07436">
        <ele>18.831146</ele>
        <time>2022-07-14T11:46:34Z</time>
      </trkpt>
      <trkpt lat="50.67872" lon="3.07382">
        <ele>18.859623</ele>
        <time>2022-07-14T11:46:43Z</time>
      </trkpt>
      <trkpt lat="50.67886" lon="3.07351">
        <ele>18.895332</ele>
        <time>2022-07-14T11:46:49Z</time>
      </trkpt>
      <trkpt lat="50.67908" lon="3.07301">
        <ele>18.973072</ele>
        <time>2022-07-14T11:46:57Z</time>
      </trkpt>
      <trkpt lat="50.67931" lon="3.07254">
        <ele>19.08774</ele>
        <time>2022-07-14T11:47:05Z</time>
      </trkpt>
      <trkpt lat="50.67949" lon="3.07188">
        <ele>19.23888</ele>
        <time>2022-07-14T11:47:15Z</time>
      </trkpt>
      <trkpt lat="50.67957" lon="3.07136">
        <ele>19.340757</ele>
        <time>2022-07-14T11:47:23Z</time>
      </trkpt>
      <trkpt lat="50.67956" lon="3.07095">
        <ele>19.373579</ele>
        <time>2022-07-14T11:47:29Z</time>
      </trkpt>
      <trkpt lat="50.67946" lon="3.07038">
        <ele>19.348339</ele>
        <time>2022-07-14T11:47:37Z</time>
      </trkpt>
      <trkpt lat="50.67933" lon="3.06991">
        <ele>17.9</ele>
        <time>2022-07-14T11:47:45Z</time>
      </trkpt>
      <trkpt lat="50.67909" lon="3.06932">
        <ele>18.2</ele>
        <time>2022-07-14T11:47:55Z</time>
      </trkpt>
      <trkpt lat="50.6789" lon="3.0689">
        <ele>18</ele>
        <time>2022-07-14T11:48:03Z</time>
      </trkpt>
      <trkpt lat="50.67878" lon="3.06865">
        <ele>17.7</ele>
        <time>2022-07-14T11:48:07Z</time>
      </trkpt>
      <trkpt lat="50.6785" lon="3.06813">
        <ele>18.635681</ele>
        <time>2022-07-14T11:48:17Z</time>
      </trkpt>
      <trkpt lat="50.67836" lon="3.06798">
        <ele>17.6</ele>
      </trkpt>
      <trkpt lat="50.67812" lon="3.06795">
        <ele>18.570629</ele>
        <time>2022-07-14T11:48:25Z</time>
      </trkpt>
      <trkpt lat="50.67764" lon="3.06781">
        <ele>18.537283</ele>
        <time>2022-07-14T11:48:35Z</time>
      </trkpt>
      <trkpt lat="50.67727" lon="3.06769">
        <ele>18.47817</ele>
        <time>2022-07-14T11:48:43Z</time>
      </trkpt>
      <trkpt lat="50.6771" lon="3.06763">
        <ele>18.429958</ele>
        <time>2022-07-14T11:48:47Z</time>
      </trkpt>
      <trkpt lat="50.67672" lon="3.06745">
        <ele>17.4</ele>
        <time>2022-07-14T11:48:57Z</time>
      </trkpt>
      <trkpt lat="50.67639" lon="3.06718">
        <ele>17.2</ele>
        <time>2022-07-14T11:49:05Z</time>
      </trkpt>
      <trkpt lat="50.67621" lon="3.06705">
        <ele>17</ele>
      </trkpt>
      <trkpt lat="50.67606" lon="3.06683">
        <ele>17.2</ele>
        <time>2022-07-14T11:49:15Z</time>
      </trkpt>
      <trkpt lat="50.67572" lon="3.06644">
        <ele>18.608395</ele>
        <time>2022-07-14T11:49:23Z</time>
      </trkpt>
      <trkpt lat="50.67559" lon="3.06631">
        <ele>18.665247</ele>
        <time>2022-07-14T11:49:27Z</time>
      </trkpt>
      <trkpt lat="50.67524" lon="3.0659">
        <ele>18.775003</ele>
        <time>2022-07-14T11:49:37Z</time>
      </trkpt>
      <trkpt lat="50.6749" lon="3.06556">
        <ele>18.892365</ele>
        <time>2022-07-14T11:49:45Z</time>
      </trkpt>
      <trkpt lat="50.67456" lon="3.06525">
        <ele>17</ele>
        <time>2022-07-14T11:49:53Z</time>
      </trkpt>
      <trkpt lat="50.67436" lon="3.06486">
        <ele>17.1</ele>
        <time>2022-07-14T11:50:03Z</time>
      </trkpt>
      <trkpt lat="50.67425" lon="3.06427">
        <ele>16.8</ele>
        <time>2022-07-14T11:50:07Z</time>
      </trkpt>
      <trkpt lat="50.67416" lon="3.06364">
        <ele>16</ele>
        <time>2022-07-14T11:50:15Z</time>
      </trkpt>
      <trkpt lat="50.67406" lon="3.06302">
        <ele>16.6</ele>
      </trkpt>
      <trkpt lat="50.674" lon="3.06251">
        <ele>16.4</ele>
        <time>2022-07-14T11:50:33Z</time>
      </trkpt>
      <trkpt lat="50.67398" lon="3.06233">
        <ele>16.5</ele>
      </trkpt>
      <trkpt lat="50.6742" lon="3.06212">
        <ele>18.388988</ele>
        <time>2022-07-14T11:50:43Z</time>
      </trkpt>
      <trkpt lat="50.67441" lon="3.06184">
        <ele>16.6</ele>
        <time>2022-07-14T11:50:47Z</time>
      </trkpt>
      <trkpt lat="50.67438" lon="3.06173">
        <ele>16.2</ele>
        <time>2022-07-14T11:51:35Z</time>
      </trkpt>
      <trkpt lat="50.67417" lon="3.06195">
        <ele>17</ele>
      </trkpt>
      <trkpt lat="50.67408" lon="3.06215">
        <ele>17.420465</ele>
        <time>2022-07-14T11:51:45Z</time>
      </trkpt>
      <trkpt lat="50.6739" lon="3.06226">
        <ele>17.430901</ele>
        <time>2022-07-14T11:51:53Z</time>
      </trkpt>
      <trkpt lat="50.67354" lon="3.06236">
        <ele>17.584866</ele>
        <time>2022-07-14T11:52:03Z</time>
      </trkpt>
      <trkpt lat="50.67329" lon="3.06244">
        <ele>17.699644</ele>
        <time>2022-07-14T11:52:07Z</time>
      </trkpt>
      <trkpt lat="50.67284" lon="3.06274">
        <ele>17.973185</ele>
        <time>2022-07-14T11:52:15Z</time>
      </trkpt>
      <trkpt lat="50.6726" lon="3.06291">
        <ele>17.1</ele>
      </trkpt>
      <trkpt lat="50.67238" lon="3.06293">
        <ele>18.392561</ele>
        <time>2022-07-14T11:52:25Z</time>
      </trkpt>
      <trkpt lat="50.67202" lon="3.06302">
        <ele>18.747375</ele>
        <time>2022-07-14T11:52:33Z</time>
      </trkpt>
      <trkpt lat="50.67152" lon="3.06328">
        <ele>16.7</ele>
      </trkpt>
      <trkpt lat="50.67049" lon="3.06378">
        <ele>15.9</ele>
        <time>2022-07-14T11:53:05Z</time>
      </trkpt>
      <trkpt lat="50.67027" lon="3.06391">
        <ele>15.2</ele>
      </trkpt>
      <trkpt lat="50.67015" lon="3.06417">
        <ele>16.6</ele>
        <time>2022-07-14T11:53:13Z</time>
      </trkpt>
      <trkpt lat="50.66984" lon="3.0642">
        <ele>17</ele>
        <time>2022-07-14T11:53:21Z</time>
      </trkpt>
      <trkpt lat="50.66955" lon="3.06424">
        <ele>18.2</ele>
        <time>2022-07-14T11:53:27Z</time>
      </trkpt>
      <trkpt lat="50.66911" lon="3.06408">
        <ele>19.38044</ele>
        <time>2022-07-14T11:53:36Z</time>
      </trkpt>
      <trkpt lat="50.66876" lon="3.06394">
        <ele>19.633829</ele>
        <time>2022-07-14T11:53:44Z</time>
      </trkpt>
      <trkpt lat="50.66831" lon="3.06379">
        <ele>17</ele>
        <time>2022-07-14T11:53:54Z</time>
      </trkpt>
      <trkpt lat="50.66783" lon="3.06368">
        <ele>20.19128</ele>
        <time>2022-07-14T11:54:03Z</time>
      </trkpt>
      <trkpt lat="50.66754" lon="3.06352">
        <ele>20.293606</ele>
        <time>2022-07-14T11:54:09Z</time>
      </trkpt>
      <trkpt lat="50.66718" lon="3.06334">
        <ele>20.351261</ele>
        <time>2022-07-14T11:54:17Z</time>
      </trkpt>
      <trkpt lat="50.66681" lon="3.06318">
        <ele>20.239985</ele>
        <time>2022-07-14T11:54:28Z</time>
      </trkpt>
      <trkpt lat="50.66664" lon="3.06312">
        <ele>18.3</ele>
      </trkpt>
      <trkpt lat="50.66655" lon="3.06294">
        <ele>17.8</ele>
      </trkpt>
      <trkpt lat="50.66642" lon="3.06287">
        <ele>19.794067</ele>
        <time>2022-07-14T11:54:41Z</time>
      </trkpt>
      <trkpt lat="50.66595" lon="3.06258">
        <ele>17.4</ele>
        <time>2022-07-14T11:54:53Z</time>
      </trkpt>
      <trkpt lat="50.66574" lon="3.06251">
        <ele>19.009708</ele>
        <time>2022-07-14T11:54:57Z</time>
      </trkpt>
      <trkpt lat="50.66542" lon="3.06234">
        <ele>16.8</ele>
      </trkpt>
      <trkpt lat="50.66521" lon="3.06251">
        <ele>19</ele>
      </trkpt>
      <trkpt lat="50.6649" lon="3.06228">
        <ele>18.094456</ele>
        <time>2022-07-14T11:55:17Z</time>
      </trkpt>
      <trkpt lat="50.66442" lon="3.06204">
        <ele>17.822691</ele>
        <time>2022-07-14T11:55:27Z</time>
      </trkpt>
      <trkpt lat="50.66403" lon="3.06185">
        <ele>17.71772</ele>
        <time>2022-07-14T11:55:35Z</time>
      </trkpt>
      <trkpt lat="50.66383" lon="3.06177">
        <ele>17.692425</ele>
        <time>2022-07-14T11:55:39Z</time>
      </trkpt>
      <trkpt lat="50.66333" lon="3.06157">
        <ele>17.654282</ele>
        <time>2022-07-14T11:55:49Z</time>
      </trkpt>
      <trkpt lat="50.66293" lon="3.06142">
        <ele>17.66938</ele>
        <time>2022-07-14T11:55:57Z</time>
      </trkpt>
      <trkpt lat="50.66251" lon="3.06126">
        <ele>17.751215</ele>
        <time>2022-07-14T11:56:07Z</time>
      </trkpt>
      <trkpt lat="50.66215" lon="3.06113">
        <ele>17.828175</ele>
        <time>2022-07-14T11:56:15Z</time>
      </trkpt>
      <trkpt lat="50.66196" lon="3.06106">
        <ele>17.86026</ele>
        <time>2022-07-14T11:56:19Z</time>
      </trkpt>
      <trkpt lat="50.66147" lon="3.06085">
        <ele>15.9</ele>
        <time>2022-07-14T11:56:29Z</time>
      </trkpt>
      <trkpt lat="50.66129" lon="3.06077">
        <ele>16.8</ele>
        <time>2022-07-14T11:56:37Z</time>
      </trkpt>
      <trkpt lat="50.66107" lon="3.06035">
        <ele>16.2</ele>
      </trkpt>
      <trkpt lat="50.66088" lon="3.06021">
        <ele>17.833899</ele>
        <time>2022-07-14T11:56:45Z</time>
      </trkpt>
      <trkpt lat="50.66055" lon="3.06004">
        <ele>17.827084</ele>
        <time>2022-07-14T11:56:55Z</time>
      </trkpt>
      <trkpt lat="50.66035" lon="3.05993">
        <ele>17.4</ele>
        <time>2022-07-14T11:56:59Z</time>
      </trkpt>
      <trkpt lat="50.66004" lon="3.05978">
        <ele>17.878927</ele>
        <time>2022-07-14T11:57:07Z</time>
      </trkpt>
      <trkpt lat="50.65953" lon="3.05953">
        <ele>17.967121</ele>
        <time>2022-07-14T11:57:17Z</time>
      </trkpt>
      <trkpt lat="50.65912" lon="3.05935">
        <ele>18.050303</ele>
        <time>2022-07-14T11:57:25Z</time>
      </trkpt>
      <trkpt lat="50.65863" lon="3.05918">
        <ele>18.211981</ele>
        <time>2022-07-14T11:57:35Z</time>
      </trkpt>
      <trkpt lat="50.65846" lon="3.05914">
        <ele>18.274158</ele>
        <time>2022-07-14T11:57:39Z</time>
      </trkpt>
      <trkpt lat="50.65805" lon="3.05915">
        <ele>18.418827</ele>
        <time>2022-07-14T11:57:47Z</time>
      </trkpt>
      <trkpt lat="50.65757" lon="3.05907">
        <ele>18.551825</ele>
        <time>2022-07-14T11:57:57Z</time>
      </trkpt>
      <trkpt lat="50.65716" lon="3.05889">
        <ele>18.619518</ele>
        <time>2022-07-14T11:58:05Z</time>
      </trkpt>
      <trkpt lat="50.65672" lon="3.05857">
        <ele>16.4</ele>
        <time>2022-07-14T11:58:15Z</time>
      </trkpt>
      <trkpt lat="50.65653" lon="3.05836">
        <ele>18.713871</ele>
        <time>2022-07-14T11:58:19Z</time>
      </trkpt>
      <trkpt lat="50.65616" lon="3.05805">
        <ele>18.745213</ele>
        <time>2022-07-14T11:58:27Z</time>
      </trkpt>
      <trkpt lat="50.65575" lon="3.05766">
        <ele>16</ele>
      </trkpt>
      <trkpt lat="50.65563" lon="3.05762">
        <ele>18.803614</ele>
        <time>2022-07-14T11:58:38Z</time>
      </trkpt>
      <trkpt lat="50.65528" lon="3.05721">
        <ele>18.866468</ele>
        <time>2022-07-14T11:58:47Z</time>
      </trkpt>
      <trkpt lat="50.65497" lon="3.05681">
        <ele>16.2</ele>
      </trkpt>
      <trkpt lat="50.65492" lon="3.05666">
        <ele>18.92779</ele>
        <time>2022-07-14T11:58:58Z</time>
      </trkpt>
      <trkpt lat="50.65475" lon="3.05643">
        <ele>18.922977</ele>
        <time>2022-07-14T11:59:03Z</time>
      </trkpt>
      <trkpt lat="50.65469" lon="3.05631">
        <ele>16.1</ele>
      </trkpt>
      <trkpt lat="50.6545" lon="3.05624">
        <ele>17.8</ele>
      </trkpt>
      <trkpt lat="50.65458" lon="3.05642">
        <ele>18.864191</ele>
        <time>2022-07-14T11:59:12Z</time>
      </trkpt>
      <trkpt lat="50.65477" lon="3.05679">
        <ele>18.765001</ele>
        <time>2022-07-14T11:59:22Z</time>
      </trkpt>
      <trkpt lat="50.65479" lon="3.05694">
        <ele>17.7</ele>
      </trkpt>
      <trkpt lat="50.65475" lon="3.05697">
        <ele>17.9</ele>
      </trkpt>
      <trkpt lat="50.65459" lon="3.05662">
        <ele>18.524176</ele>
        <time>2022-07-14T11:59:38Z</time>
      </trkpt>
      <trkpt lat="50.65445" lon="3.05639">
        <ele>19.9</ele>
        <time>2022-07-14T11:59:44Z</time>
      </trkpt>
      <trkpt lat="50.65435" lon="3.05603">
        <ele>17</ele>
        <time>2022-07-14T11:59:52Z</time>
      </trkpt>
      <trkpt lat="50.65429" lon="3.05515">
        <ele>15.9</ele>
        <time>2022-07-14T12:00:09Z</time>
      </trkpt>
      <trkpt lat="50.65428" lon="3.0547">
        <ele>16.5</ele>
        <time>2022-07-14T12:00:27Z</time>
      </trkpt>
      <trkpt lat="50.65436" lon="3.05393">
        <ele>19.6</ele>
      </trkpt>
      <trkpt lat="50.65437" lon="3.05324">
        <ele>20</ele>
        <time>2022-07-14T12:00:35Z</time>
      </trkpt>
      <trkpt lat="50.65433" lon="3.05282">
        <ele>19.7</ele>
        <time>2022-07-14T12:00:41Z</time>
      </trkpt>
      <trkpt lat="50.65421" lon="3.05235">
        <ele>19.5</ele>
        <time>2022-07-14T12:00:50Z</time>
      </trkpt>
      <trkpt lat="50.6541" lon="3.05216">
        <ele>20</ele>
        <time>2022-07-14T12:01:15Z</time>
      </trkpt>
      <trkpt lat="50.65383" lon="3.05239">
        <ele>19.4</ele>
      </trkpt>
      <trkpt lat="50.65348" lon="3.05254">
        <ele>21.994507</ele>
        <time>2022-07-14T12:02:03Z</time>
      </trkpt>
      <trkpt lat="50.65324" lon="3.05262">
        <ele>20</ele>
      </trkpt>
      <trkpt lat="50.65282" lon="3.0525">
        <ele>22.376728</ele>
        <time>2022-07-14T12:02:18Z</time>
      </trkpt>
      <trkpt lat="50.6526" lon="3.05246">
        <ele>22.479876</ele>
        <time>2022-07-14T12:02:23Z</time>
      </trkpt>
      <trkpt lat="50.65244" lon="3.05238">
        <ele>19.4</ele>
      </trkpt>
      <trkpt lat="50.65224" lon="3.05204">
        <ele>22.606733</ele>
        <time>2022-07-14T12:02:33Z</time>
      </trkpt>
      <trkpt lat="50.65201" lon="3.05184">
        <ele>20</ele>
        <time>2022-07-14T12:02:41Z</time>
      </trkpt>
      <trkpt lat="50.65192" lon="3.05164">
        <ele>19.8</ele>
      </trkpt>
      <trkpt lat="50.65192" lon="3.05124">
        <ele>19</ele>
      </trkpt>
      <trkpt lat="50.65175" lon="3.05115">
        <ele>22.304922</ele>
        <time>2022-07-14T12:02:53Z</time>
      </trkpt>
      <trkpt lat="50.65157" lon="3.05114">
        <ele>19</ele>
      </trkpt>
      <trkpt lat="50.65135" lon="3.05078">
        <ele>18</ele>
      </trkpt>
      <trkpt lat="50.65108" lon="3.05019">
        <ele>16.9</ele>
        <time>2022-07-14T12:03:10Z</time>
      </trkpt>
      <trkpt lat="50.65084" lon="3.0496">
        <ele>16.9</ele>
        <time>2022-07-14T12:03:15Z</time>
      </trkpt>
      <trkpt lat="50.65063" lon="3.0489">
        <ele>18.5</ele>
        <time>2022-07-14T12:03:25Z</time>
      </trkpt>
      <trkpt lat="50.65058" lon="3.04833">
        <ele>19</ele>
        <time>2022-07-14T12:03:34Z</time>
      </trkpt>
      <trkpt lat="50.65056" lon="3.04778">
        <ele>19</ele>
        <time>2022-07-14T12:03:44Z</time>
      </trkpt>
      <trkpt lat="50.65053" lon="3.04721">
        <ele>18.9</ele>
        <time>2022-07-14T12:03:52Z</time>
      </trkpt>
      <trkpt lat="50.65042" lon="3.04673">
        <ele>19.4</ele>
      </trkpt>
      <trkpt lat="50.65027" lon="3.04641">
        <ele>20</ele>
        <time>2022-07-14T12:03:57Z</time>
      </trkpt>
      <trkpt lat="50.6503" lon="3.04633">
        <ele>17.220509</ele>
        <time>2022-07-14T12:04:10Z</time>
      </trkpt>
      <trkpt lat="50.65011" lon="3.04593">
        <ele>19.4</ele>
        <time>2022-07-14T12:04:21Z</time>
      </trkpt>
      <trkpt lat="50.64987" lon="3.04543">
        <ele>17.148737</ele>
        <time>2022-07-14T12:04:31Z</time>
      </trkpt>
      <trkpt lat="50.64952" lon="3.04478">
        <ele>19</ele>
      </trkpt>
      <trkpt lat="50.64946" lon="3.04476">
        <ele>19</ele>
      </trkpt>
      <trkpt lat="50.64945" lon="3.04335">
        <ele>19</ele>
        <time>2022-07-14T12:04:59Z</time>
      </trkpt>
      <trkpt lat="50.64944" lon="3.04238">
        <ele>20</ele>
        <time>2022-07-14T12:05:10Z</time>
      </trkpt>
      <trkpt lat="50.64949" lon="3.04158">
        <ele>19.2</ele>
        <time>2022-07-14T12:05:20Z</time>
      </trkpt>
      <trkpt lat="50.64965" lon="3.03924">
        <ele>19</ele>
        <time>2022-07-14T12:05:50Z</time>
      </trkpt>
      <trkpt lat="50.64969" lon="3.03845">
        <ele>19</ele>
        <time>2022-07-14T12:06:00Z</time>
      </trkpt>
      <trkpt lat="50.64982" lon="3.03788">
        <ele>19.4</ele>
        <time>2022-07-14T12:06:13Z</time>
      </trkpt>
      <trkpt lat="50.65006" lon="3.03724">
        <ele>20</ele>
        <time>2022-07-14T12:06:25Z</time>
      </trkpt>
      <trkpt lat="50.64998" lon="3.03706">
        <ele>20.1</ele>
        <time>2022-07-14T12:06:34Z</time>
      </trkpt>
      <trkpt lat="50.64979" lon="3.03664">
        <ele>20</ele>
        <time>2022-07-14T12:06:44Z</time>
      </trkpt>
      <trkpt lat="50.64975" lon="3.03655">
        <ele>20</ele>
        <time>2022-07-14T12:07:45Z</time>
      </trkpt>
    </trkseg>
  </trk>
</gpx>